GFSMA_prec_precacc_228.txt.gz
Total_Precipitation_Accumulation
0.83 0.64 0.48 0.54 0.48 0.48 0.69 0.93 1.21 1.21 1.24 1.18 1.26 1.16 0.94 0.74 0.85 1.00 1.09 1.43 1.31 1.13 1.14 1.06 0.82 0.91 0.75 0.68 0.69 0.71 0.60 0.49 0.50 0.52 0.46 0.37 0.46 0.55 0.56 0.54 0.56 0.49 0.54
0.79 0.68 0.55 0.54 0.52 0.53 0.64 0.85 1.19 1.29 1.35 1.53 1.30 0.96 0.94 0.67 0.67 1.06 1.75 1.84 1.42 1.38 1.16 1.28 1.48 1.32 1.09 0.98 0.92 0.83 0.65 0.54 0.53 0.46 0.50 0.50 0.49 0.55 0.50 0.46 0.52 0.55 0.53
0.72 0.77 0.75 0.72 0.61 0.60 0.67 0.91 1.16 1.29 1.07 1.02 1.11 1.34 1.56 1.46 0.89 0.59 0.73 0.86 0.91 0.96 1.06 1.40 1.58 1.80 1.95 1.72 1.32 1.01 0.88 0.62 0.54 0.53 0.49 0.48 0.47 0.44 0.46 0.46 0.48 0.55 0.60
1.15 0.98 0.76 0.84 1.01 0.88 0.77 0.89 1.10 1.63 1.50 1.09 0.74 0.76 1.03 1.16 1.04 1.09 0.82 0.66 0.64 0.79 1.18 1.03 1.80 2.48 2.33 1.72 1.23 1.09 0.79 0.73 0.72 0.77 0.85 0.78 0.63 0.54 0.51 0.48 0.57 0.71 0.70
1.82 1.43 1.33 1.43 1.39 1.40 1.43 1.62 1.83 1.95 1.55 1.23 0.88 0.66 0.62 0.59 0.47 0.43 0.45 0.46 0.45 0.44 0.44 0.55 0.80 1.08 0.98 0.94 0.86 0.83 0.80 0.71 0.71 0.83 1.00 1.05 0.91 0.81 0.76 0.68 0.73 0.79 0.82
1.27 1.36 1.54 1.77 1.79 1.61 1.29 1.08 1.17 1.31 1.28 1.10 1.00 0.70 0.64 0.43 0.32 0.23 0.24 0.34 0.37 0.52 0.51 0.42 0.57 0.64 0.60 0.61 0.71 0.80 0.79 0.87 0.87 0.86 0.96 1.07 1.19 1.16 1.12 1.03 1.03 1.11 1.07
1.22 1.12 1.40 2.15 2.28 1.46 1.01 1.07 1.33 1.34 1.19 1.03 1.40 1.09 0.77 0.50 0.34 0.23 0.19 0.25 0.26 0.32 0.63 0.66 0.48 0.56 0.70 0.52 0.47 0.64 0.84 1.04 1.13 1.10 1.21 1.22 1.20 1.29 1.34 1.30 1.17 1.42 1.46
1.02 1.12 0.94 1.05 1.60 1.87 1.69 1.23 1.23 1.50 1.36 1.27 1.44 1.42 1.27 1.20 0.73 0.40 0.35 0.24 0.22 0.31 0.30 0.45 0.56 0.46 0.56 0.80 0.45 0.45 0.80 1.11 1.26 1.35 1.67 1.78 1.52 1.49 1.65 1.79 1.89 1.82 2.00
0.98 1.08 1.05 0.96 1.13 1.77 1.76 1.33 0.97 1.14 1.58 1.50 1.37 1.47 1.49 1.04 0.70 0.46 0.44 0.37 0.32 0.33 0.35 0.36 0.40 0.45 0.43 0.69 1.04 0.62 0.48 0.86 1.28 1.52 1.66 2.13 2.24 1.86 1.77 1.80 1.96 1.97 1.86
1.09 0.96 1.14 1.17 1.07 1.07 1.37 1.35 1.10 0.97 1.50 1.49 1.99 1.41 1.03 1.06 1.29 1.00 0.72 0.62 0.57 0.42 0.36 0.46 0.47 0.41 0.44 0.48 0.68 0.99 0.71 0.55 0.84 1.25 1.78 2.15 2.24 2.22 2.17 2.00 1.83 1.91 2.00
1.29 1.33 1.30 1.45 1.51 1.61 1.23 1.73 1.63 1.51 1.64 1.37 0.93 1.18 1.43 1.39 1.66 1.69 1.19 0.82 0.94 0.73 0.63 0.60 0.77 0.65 0.61 0.70 0.69 0.67 0.80 0.77 0.80 1.04 1.31 1.66 2.11 2.10 1.93 2.29 2.81 2.39 2.03
1.34 1.33 1.34 1.35 1.29 1.36 1.51 1.78 2.17 2.17 2.19 1.96 1.52 1.36 1.39 1.39 1.16 1.54 1.72 1.27 1.19 1.13 1.14 1.49 1.28 1.09 0.98 0.96 1.04 1.12 1.01 0.98 1.04 1.03 1.10 1.54 2.04 2.40 2.60 2.42 2.48 3.26 3.40
1.56 1.08 1.21 1.22 1.19 1.00 1.09 1.41 1.88 2.09 2.49 2.67 2.50 2.00 1.61 1.44 1.38 1.59 1.78 1.71 1.61 1.33 1.38 1.50 1.38 1.30 1.38 1.56 1.48 1.56 1.42 1.29 1.37 1.57 1.55 1.63 1.77 2.03 2.53 2.57 2.55 2.65 3.08
1.14 0.92 1.11 1.25 1.24 1.27 1.29 1.26 1.41 1.42 1.53 1.94 2.69 3.21 3.23 2.53 2.19 2.36 2.49 2.76 2.81 2.37 1.98 1.31 1.01 1.02 1.01 1.25 1.45 1.91 1.79 1.77 1.69 1.78 1.81 1.72 1.67 1.86 2.15 2.68 2.95 2.86 2.93
1.18 1.11 1.25 1.34 1.38 1.34 1.34 1.38 1.32 1.30 1.36 1.41 1.46 1.69 1.98 2.08 2.12 2.09 2.26 2.63 3.32 3.15 2.36 1.73 1.13 0.90 0.88 1.18 1.44 1.59 1.50 1.58 1.72 1.69 1.87 1.99 1.97 1.93 1.90 1.94 2.19 2.46 2.68
1.47 1.60 1.61 1.51 1.52 1.58 1.64 1.62 1.54 1.41 1.57 1.49 1.33 1.30 1.36 1.38 1.40 1.47 1.68 2.05 2.62 2.87 2.46 1.59 1.28 0.98 1.14 1.35 1.58 1.56 1.90 2.23 1.72 1.69 1.71 2.03 2.17 2.06 1.96 1.92 1.88 2.09 2.32
1.97 1.88 1.96 2.16 2.00 2.04 2.05 2.02 1.89 1.76 1.70 1.61 1.53 1.46 1.24 1.17 1.37 1.59 1.75 1.88 2.11 2.49 2.68 1.85 1.49 1.36 1.53 1.69 1.61 1.37 1.45 1.74 2.17 2.17 1.71 1.49 1.72 2.10 2.26 2.38 2.33 2.18 2.22
1.83 1.77 1.97 2.09 2.03 2.19 2.30 2.20 2.10 1.96 1.86 1.99 2.05 2.04 1.86 1.72 1.74 1.73 2.03 1.94 1.91 2.06 2.20 1.95 1.50 1.26 1.34 1.51 1.60 1.46 1.45 1.32 1.37 1.80 2.16 2.00 1.79 1.87 2.09 2.36 2.91 2.74 2.49
2.77 2.59 2.63 2.71 2.42 2.39 2.65 2.69 2.59 2.34 2.19 2.16 2.02 2.01 1.88 1.82 1.97 1.97 2.03 2.20 2.04 1.94 2.19 2.41 1.92 1.63 1.62 1.56 1.70 1.70 1.54 1.48 1.41 1.72 1.82 1.96 2.05 1.91 1.97 2.04 2.14 2.34 2.18
2.03 2.26 2.22 2.21 2.20 2.21 2.24 2.54 2.77 2.89 2.58 2.39 2.24 2.09 2.15 2.03 1.77 1.53 1.61 1.73 1.64 1.70 1.91 2.21 2.18 2.06 2.07 2.12 2.05 1.90 1.88 1.72 1.74 1.68 1.79 1.72 1.72 1.68 1.90 2.12 2.16 1.99 1.92
1.45 1.44 1.42 1.63 1.73 1.88 2.18 2.13 2.31 2.60 2.59 2.54 2.37 2.25 2.20 2.46 2.40 2.09 1.91 1.91 1.89 2.11 2.14 2.28 2.43 2.21 2.09 2.20 2.19 2.01 1.83 2.05 2.18 1.80 1.79 1.90 1.80 1.90 1.90 1.94 2.06 2.07 2.17
1.45 1.58 1.41 1.54 1.86 1.90 2.36 2.28 2.24 2.47 2.61 2.61 2.66 2.47 2.60 2.92 2.69 2.75 2.46 2.17 2.06 2.23 2.21 2.01 2.06 2.16 1.93 1.59 1.61 1.78 2.17 2.43 2.68 2.33 2.15 2.54 2.22 2.27 2.19 2.16 2.59 2.24 2.04
2.02 1.84 2.00 1.93 1.88 1.83 2.42 2.41 2.42 2.21 2.62 2.67 2.66 2.57 2.64 2.73 2.86 2.54 2.91 2.72 2.49 2.58 2.35 2.12 2.05 1.83 1.84 1.82 1.99 2.14 2.05 2.05 2.10 2.02 2.16 2.97 2.66 2.62 2.42 2.46 2.74 2.26 2.21
2.50 2.14 2.01 1.95 1.82 2.39 2.52 2.87 3.23 2.74 2.41 2.57 2.73 2.52 2.43 2.48 2.70 2.71 2.63 2.82 2.72 2.68 2.88 2.89 2.85 2.97 2.95 2.84 2.82 2.83 2.93 3.30 3.41 3.20 2.68 3.12 2.92 2.74 2.59 2.58 2.94 2.30 2.15
2.89 2.69 2.25 2.04 2.09 2.08 1.99 1.70 1.90 2.21 2.63 2.96 2.88 2.84 3.00 2.93 3.62 3.52 3.12 3.47 3.71 3.91 4.42 4.28 4.11 4.16 3.96 3.58 3.32 3.48 4.21 3.90 3.98 3.73 3.09 2.92 3.02 3.09 3.13 3.22 3.08 2.79 2.32
2.44 2.34 2.35 2.08 2.15 2.01 2.32 1.90 1.64 1.20 1.53 1.85 2.25 2.56 3.27 2.84 3.18 2.93 2.68 2.66 3.30 3.96 3.82 4.02 4.07 3.92 3.70 3.57 3.68 3.12 2.87 2.89 3.05 3.57 3.06 2.90 2.88 2.79 3.53 3.31 2.92 2.71 2.59

GFSMA_prec_precacc_231.txt.gz
Total_Precipitation_Accumulation
0.83 0.64 0.48 0.54 0.48 0.48 0.69 0.93 1.21 1.21 1.24 1.18 1.26 1.16 0.94 0.74 0.85 1.00 1.09 1.43 1.31 1.13 1.14 1.06 0.82 0.91 0.75 0.69 0.70 0.71 0.61 0.50 0.51 0.53 0.46 0.37 0.46 0.55 0.56 0.54 0.56 0.49 0.54
0.79 0.68 0.55 0.54 0.52 0.53 0.64 0.85 1.19 1.29 1.35 1.53 1.30 0.96 0.94 0.67 0.67 1.06 1.75 1.84 1.42 1.38 1.16 1.28 1.48 1.32 1.09 0.98 0.92 0.83 0.65 0.54 0.53 0.47 0.50 0.51 0.49 0.55 0.50 0.46 0.52 0.55 0.53
0.72 0.77 0.75 0.72 0.61 0.60 0.67 0.91 1.16 1.29 1.07 1.02 1.11 1.34 1.56 1.46 0.89 0.59 0.73 0.86 0.91 0.96 1.06 1.40 1.58 1.80 1.95 1.72 1.32 1.01 0.88 0.62 0.54 0.53 0.49 0.48 0.48 0.45 0.47 0.46 0.48 0.55 0.61
1.15 0.98 0.76 0.84 1.01 0.88 0.77 0.89 1.10 1.63 1.50 1.09 0.74 0.76 1.03 1.16 1.04 1.09 0.82 0.66 0.64 0.79 1.18 1.03 1.80 2.48 2.33 1.72 1.23 1.09 0.79 0.73 0.72 0.77 0.85 0.78 0.63 0.55 0.51 0.49 0.59 0.73 0.72
1.82 1.43 1.33 1.43 1.39 1.40 1.43 1.62 1.83 1.95 1.55 1.23 0.88 0.66 0.62 0.59 0.47 0.43 0.45 0.47 0.46 0.44 0.44 0.55 0.80 1.08 0.98 0.94 0.86 0.83 0.80 0.71 0.71 0.83 1.00 1.05 0.91 0.81 0.76 0.68 0.73 0.79 0.82
1.27 1.36 1.54 1.77 1.79 1.61 1.29 1.08 1.17 1.31 1.28 1.10 1.00 0.70 0.64 0.43 0.32 0.23 0.24 0.34 0.37 0.52 0.51 0.42 0.57 0.64 0.60 0.61 0.71 0.80 0.79 0.87 0.87 0.86 0.96 1.07 1.19 1.16 1.12 1.03 1.03 1.11 1.07
1.22 1.12 1.40 2.15 2.28 1.46 1.01 1.07 1.33 1.34 1.19 1.03 1.40 1.09 0.77 0.50 0.34 0.23 0.19 0.25 0.26 0.32 0.63 0.66 0.48 0.56 0.70 0.52 0.47 0.64 0.84 1.04 1.13 1.10 1.21 1.22 1.20 1.29 1.34 1.30 1.17 1.42 1.46
1.02 1.12 0.94 1.05 1.60 1.87 1.70 1.24 1.23 1.50 1.36 1.27 1.44 1.42 1.27 1.20 0.73 0.40 0.35 0.24 0.22 0.31 0.30 0.45 0.56 0.46 0.56 0.80 0.45 0.45 0.80 1.11 1.26 1.35 1.67 1.78 1.52 1.49 1.65 1.79 1.89 1.82 2.01
0.98 1.08 1.05 0.96 1.13 1.77 1.77 1.34 0.98 1.15 1.58 1.50 1.37 1.47 1.49 1.04 0.70 0.46 0.44 0.37 0.32 0.33 0.35 0.36 0.40 0.45 0.43 0.69 1.04 0.62 0.48 0.86 1.28 1.52 1.66 2.13 2.24 1.86 1.77 1.80 1.96 1.97 1.87
1.09 0.96 1.14 1.17 1.07 1.07 1.37 1.36 1.10 0.98 1.50 1.49 1.99 1.41 1.03 1.06 1.29 1.00 0.72 0.62 0.57 0.42 0.36 0.46 0.47 0.41 0.44 0.48 0.68 0.99 0.71 0.55 0.84 1.25 1.78 2.15 2.24 2.22 2.17 2.00 1.83 1.92 2.01
1.29 1.33 1.30 1.45 1.51 1.61 1.23 1.73 1.63 1.52 1.64 1.37 0.93 1.18 1.43 1.39 1.66 1.69 1.19 0.82 0.94 0.73 0.63 0.60 0.77 0.65 0.61 0.70 0.69 0.67 0.80 0.77 0.80 1.04 1.31 1.66 2.11 2.10 1.93 2.29 2.81 2.39 2.04
1.34 1.33 1.34 1.35 1.29 1.36 1.51 1.78 2.17 2.17 2.19 1.96 1.52 1.36 1.39 1.39 1.16 1.54 1.72 1.27 1.19 1.13 1.14 1.49 1.28 1.09 0.98 0.96 1.04 1.12 1.01 0.98 1.04 1.03 1.10 1.54 2.04 2.40 2.60 2.42 2.48 3.26 3.40
1.56 1.08 1.21 1.22 1.19 1.00 1.09 1.41 1.90 2.11 2.49 2.67 2.50 2.00 1.61 1.44 1.38 1.59 1.78 1.71 1.61 1.33 1.38 1.50 1.38 1.30 1.38 1.56 1.48 1.56 1.42 1.29 1.37 1.57 1.55 1.63 1.77 2.03 2.53 2.57 2.55 2.66 3.09
1.14 0.92 1.11 1.25 1.24 1.29 1.33 1.32 1.48 1.47 1.53 1.94 2.69 3.21 3.23 2.53 2.19 2.36 2.49 2.76 2.81 2.37 1.98 1.31 1.01 1.02 1.01 1.25 1.45 1.91 1.79 1.77 1.69 1.78 1.81 1.72 1.67 1.86 2.15 2.68 2.95 2.86 2.93
1.19 1.13 1.29 1.35 1.38 1.36 1.41 1.45 1.38 1.33 1.38 1.42 1.47 1.69 1.98 2.08 2.12 2.09 2.26 2.63 3.32 3.15 2.36 1.73 1.13 0.90 0.88 1.18 1.44 1.59 1.50 1.58 1.72 1.69 1.87 1.99 1.97 1.93 1.90 1.94 2.19 2.46 2.68
1.52 1.65 1.67 1.51 1.52 1.59 1.65 1.63 1.55 1.43 1.58 1.50 1.33 1.30 1.36 1.38 1.40 1.47 1.68 2.05 2.62 2.87 2.46 1.59 1.28 0.98 1.14 1.35 1.58 1.56 1.90 2.23 1.72 1.69 1.71 2.03 2.17 2.06 1.96 1.92 1.88 2.09 2.32
2.01 1.91 1.98 2.17 2.00 2.04 2.05 2.03 1.90 1.77 1.71 1.62 1.53 1.46 1.24 1.17 1.37 1.59 1.75 1.88 2.11 2.49 2.68 1.85 1.49 1.36 1.53 1.69 1.61 1.37 1.45 1.74 2.17 2.17 1.71 1.49 1.72 2.10 2.26 2.38 2.33 2.18 2.22
1.85 1.79 1.99 2.10 2.04 2.20 2.32 2.22 2.12 1.98 1.87 1.99 2.05 2.04 1.86 1.72 1.74 1.73 2.03 1.94 1.91 2.06 2.20 1.95 1.50 1.26 1.34 1.51 1.60 1.46 1.45 1.32 1.37 1.80 2.16 2.00 1.79 1.87 2.09 2.36 2.91 2.74 2.49
2.78 2.60 2.63 2.71 2.42 2.40 2.71 2.74 2.65 2.40 2.21 2.16 2.02 2.01 1.88 1.82 1.97 1.97 2.03 2.20 2.04 1.94 2.19 2.41 1.92 1.63 1.62 1.56 1.70 1.70 1.54 1.48 1.42 1.72 1.82 1.96 2.05 1.91 1.98 2.04 2.14 2.35 2.18
2.03 2.26 2.22 2.21 2.21 2.24 2.29 2.58 2.79 2.91 2.61 2.39 2.24 2.09 2.15 2.03 1.77 1.53 1.61 1.73 1.64 1.70 1.91 2.21 2.18 2.06 2.07 2.12 2.05 1.90 1.88 1.72 1.74 1.68 1.79 1.72 1.72 1.68 1.90 2.12 2.16 1.99 1.92
1.45 1.44 1.42 1.63 1.74 1.89 2.19 2.14 2.31 2.60 2.59 2.54 2.37 2.25 2.20 2.46 2.40 2.09 1.91 1.91 1.89 2.11 2.14 2.28 2.43 2.21 2.09 2.20 2.19 2.01 1.83 2.05 2.18 1.80 1.79 1.90 1.80 1.90 1.90 1.94 2.06 2.07 2.17
1.45 1.58 1.41 1.54 1.86 1.90 2.36 2.28 2.24 2.47 2.61 2.61 2.66 2.47 2.60 2.92 2.69 2.75 2.46 2.17 2.06 2.23 2.21 2.01 2.06 2.16 1.93 1.59 1.61 1.78 2.17 2.43 2.68 2.33 2.15 2.54 2.22 2.27 2.19 2.16 2.59 2.24 2.04
2.02 1.84 2.00 1.93 1.88 1.83 2.42 2.41 2.42 2.21 2.62 2.67 2.66 2.57 2.64 2.73 2.86 2.54 2.91 2.72 2.49 2.58 2.35 2.12 2.05 1.83 1.84 1.82 1.99 2.14 2.05 2.05 2.10 2.02 2.16 2.97 2.66 2.62 2.42 2.46 2.75 2.27 2.21
2.52 2.14 2.01 1.95 1.82 2.39 2.52 2.87 3.23 2.74 2.41 2.57 2.73 2.52 2.43 2.48 2.70 2.71 2.63 2.82 2.72 2.68 2.88 2.89 2.85 2.97 2.95 2.84 2.82 2.83 2.93 3.30 3.41 3.20 2.68 3.12 2.92 2.74 2.59 2.58 2.95 2.31 2.15
2.91 2.71 2.25 2.04 2.09 2.08 1.99 1.70 1.90 2.21 2.63 2.96 2.88 2.84 3.00 2.93 3.62 3.52 3.12 3.47 3.71 3.91 4.42 4.28 4.11 4.16 3.97 3.58 3.33 3.48 4.21 3.90 3.98 3.73 3.09 2.92 3.02 3.09 3.13 3.22 3.08 2.81 2.33
2.47 2.36 2.36 2.08 2.15 2.01 2.32 1.90 1.64 1.20 1.53 1.85 2.25 2.56 3.27 2.84 3.18 2.93 2.68 2.66 3.30 3.96 3.82 4.02 4.07 3.92 3.70 3.58 3.69 3.12 2.87 2.89 3.05 3.57 3.06 2.90 2.88 2.79 3.54 3.31 2.92 2.72 2.60

GFSMA_prec_precacc_234.txt.gz
Total_Precipitation_Accumulation
0.83 0.64 0.48 0.54 0.48 0.48 0.69 0.93 1.21 1.21 1.24 1.18 1.26 1.16 0.94 0.74 0.85 1.00 1.09 1.43 1.31 1.13 1.14 1.06 0.82 0.91 0.75 0.69 0.70 0.72 0.61 0.50 0.51 0.53 0.46 0.37 0.46 0.55 0.56 0.54 0.56 0.49 0.54
0.79 0.68 0.55 0.54 0.52 0.53 0.64 0.85 1.19 1.29 1.35 1.53 1.30 0.96 0.94 0.67 0.67 1.06 1.75 1.84 1.42 1.38 1.16 1.28 1.48 1.32 1.09 0.98 0.92 0.83 0.65 0.54 0.53 0.47 0.50 0.51 0.50 0.55 0.50 0.47 0.52 0.55 0.53
0.72 0.77 0.75 0.72 0.61 0.60 0.67 0.91 1.16 1.29 1.07 1.02 1.11 1.34 1.56 1.46 0.90 0.59 0.74 0.86 0.91 0.96 1.06 1.40 1.58 1.80 1.95 1.72 1.32 1.01 0.88 0.62 0.54 0.53 0.49 0.48 0.48 0.45 0.47 0.47 0.48 0.55 0.61
1.15 0.98 0.76 0.84 1.01 0.88 0.77 0.89 1.10 1.63 1.50 1.09 0.74 0.76 1.04 1.18 1.06 1.10 0.83 0.67 0.65 0.79 1.18 1.03 1.80 2.48 2.33 1.72 1.23 1.09 0.79 0.73 0.72 0.77 0.85 0.78 0.63 0.55 0.51 0.49 0.59 0.73 0.72
1.82 1.43 1.33 1.43 1.39 1.40 1.43 1.62 1.83 1.95 1.56 1.25 0.90 0.69 0.65 0.60 0.48 0.43 0.46 0.47 0.46 0.44 0.44 0.55 0.80 1.08 0.98 0.94 0.86 0.83 0.80 0.71 0.71 0.83 1.00 1.05 0.91 0.81 0.76 0.68 0.73 0.79 0.82
1.27 1.36 1.54 1.77 1.79 1.61 1.29 1.08 1.17 1.32 1.29 1.14 1.03 0.71 0.65 0.44 0.33 0.23 0.24 0.34 0.37 0.52 0.51 0.42 0.57 0.64 0.60 0.61 0.71 0.80 0.79 0.87 0.87 0.86 0.96 1.07 1.19 1.16 1.12 1.03 1.03 1.11 1.07
1.22 1.12 1.40 2.15 2.28 1.46 1.01 1.07 1.34 1.34 1.19 1.04 1.42 1.09 0.78 0.50 0.34 0.23 0.19 0.25 0.26 0.32 0.63 0.66 0.48 0.56 0.70 0.52 0.47 0.64 0.84 1.04 1.13 1.10 1.21 1.22 1.20 1.29 1.34 1.30 1.17 1.42 1.46
1.02 1.12 0.94 1.05 1.60 1.87 1.70 1.24 1.24 1.50 1.37 1.27 1.44 1.42 1.27 1.20 0.73 0.40 0.35 0.24 0.22 0.31 0.30 0.45 0.56 0.46 0.56 0.80 0.45 0.45 0.80 1.11 1.26 1.35 1.67 1.78 1.52 1.49 1.65 1.79 1.89 1.82 2.01
0.98 1.08 1.05 0.96 1.13 1.77 1.77 1.34 0.99 1.15 1.59 1.50 1.37 1.48 1.49 1.04 0.70 0.46 0.44 0.37 0.32 0.33 0.35 0.36 0.40 0.45 0.43 0.69 1.04 0.62 0.48 0.86 1.28 1.52 1.66 2.13 2.24 1.86 1.77 1.80 1.96 1.97 1.87
1.09 0.96 1.14 1.17 1.07 1.07 1.37 1.36 1.10 0.98 1.51 1.49 1.99 1.41 1.03 1.06 1.29 1.00 0.72 0.62 0.57 0.42 0.36 0.46 0.47 0.41 0.44 0.48 0.68 0.99 0.71 0.55 0.84 1.25 1.78 2.15 2.24 2.22 2.17 2.00 1.83 1.92 2.01
1.29 1.33 1.30 1.45 1.51 1.61 1.23 1.74 1.64 1.52 1.64 1.38 0.94 1.18 1.43 1.39 1.66 1.70 1.20 0.82 0.94 0.73 0.63 0.60 0.77 0.65 0.61 0.70 0.69 0.67 0.80 0.77 0.80 1.04 1.31 1.66 2.11 2.10 1.93 2.30 2.81 2.39 2.04
1.34 1.33 1.34 1.35 1.29 1.36 1.51 1.79 2.17 2.18 2.20 1.96 1.52 1.36 1.39 1.39 1.16 1.54 1.72 1.27 1.19 1.13 1.14 1.49 1.28 1.09 0.98 0.96 1.04 1.12 1.01 0.98 1.04 1.03 1.10 1.54 2.04 2.41 2.60 2.42 2.49 3.27 3.41
1.56 1.08 1.21 1.23 1.19 1.00 1.09 1.42 1.90 2.13 2.51 2.67 2.50 2.00 1.61 1.44 1.38 1.59 1.78 1.71 1.61 1.33 1.38 1.50 1.38 1.30 1.38 1.56 1.48 1.56 1.42 1.29 1.37 1.57 1.55 1.63 1.78 2.04 2.54 2.58 2.56 2.66 3.09
1.14 0.92 1.12 1.27 1.25 1.29 1.34 1.33 1.50 1.52 1.62 1.96 2.69 3.22 3.23 2.53 2.19 2.36 2.49 2.76 2.81 2.37 1.98 1.31 1.01 1.02 1.01 1.25 1.45 1.91 1.79 1.77 1.69 1.78 1.81 1.72 1.67 1.86 2.16 2.69 2.96 2.87 2.94
1.20 1.14 1.29 1.36 1.39 1.36 1.41 1.46 1.40 1.38 1.42 1.45 1.49 1.71 1.99 2.08 2.12 2.09 2.26 2.63 3.32 3.15 2.36 1.73 1.13 0.90 0.88 1.18 1.44 1.59 1.50 1.58 1.72 1.69 1.87 1.99 1.97 1.93 1.91 1.94 2.20 2.47 2.69
1.52 1.66 1.70 1.53 1.52 1.59 1.65 1.63 1.55 1.43 1.58 1.50 1.34 1.32 1.37 1.39 1.40 1.47 1.68 2.05 2.62 2.87 2.46 1.59 1.28 0.98 1.14 1.35 1.58 1.56 1.90 2.23 1.72 1.69 1.72 2.03 2.17 2.06 1.96 1.92 1.88 2.10 2.32
2.01 1.91 2.00 2.18 2.00 2.04 2.05 2.03 1.90 1.77 1.71 1.63 1.54 1.47 1.25 1.17 1.37 1.59 1.75 1.88 2.11 2.49 2.68 1.85 1.49 1.36 1.53 1.69 1.61 1.37 1.45 1.74 2.17 2.17 1.71 1.49 1.72 2.10 2.27 2.38 2.33 2.18 2.22
1.85 1.79 1.99 2.10 2.04 2.20 2.33 2.22 2.13 1.98 1.88 2.01 2.06 2.04 1.86 1.73 1.74 1.73 2.03 1.94 1.91 2.06 2.20 1.95 1.50 1.26 1.34 1.51 1.60 1.46 1.45 1.32 1.37 1.80 2.16 2.00 1.79 1.87 2.09 2.36 2.91 2.74 2.50
2.78 2.60 2.63 2.71 2.43 2.41 2.72 2.76 2.65 2.41 2.27 2.24 2.10 2.07 1.89 1.82 1.97 1.97 2.03 2.20 2.04 1.94 2.19 2.41 1.92 1.63 1.62 1.56 1.70 1.70 1.54 1.49 1.42 1.72 1.82 1.96 2.05 1.91 1.98 2.04 2.14 2.35 2.19
2.03 2.26 2.25 2.25 2.23 2.25 2.30 2.59 2.79 2.92 2.62 2.41 2.25 2.09 2.15 2.03 1.77 1.53 1.61 1.73 1.64 1.70 1.91 2.21 2.18 2.06 2.07 2.12 2.06 1.90 1.88 1.72 1.74 1.68 1.79 1.72 1.72 1.68 1.90 2.12 2.16 2.00 1.93
1.47 1.46 1.45 1.65 1.75 1.89 2.19 2.14 2.31 2.60 2.60 2.54 2.37 2.25 2.20 2.46 2.40 2.09 1.91 1.91 1.89 2.11 2.14 2.28 2.43 2.21 2.09 2.20 2.19 2.02 1.83 2.05 2.18 1.80 1.79 1.90 1.80 1.90 1.90 1.94 2.06 2.07 2.18
1.48 1.59 1.41 1.54 1.87 1.91 2.36 2.28 2.24 2.47 2.61 2.61 2.66 2.47 2.60 2.92 2.69 2.75 2.46 2.17 2.06 2.23 2.21 2.01 2.06 2.16 1.93 1.59 1.61 1.78 2.17 2.43 2.68 2.33 2.15 2.54 2.22 2.27 2.19 2.16 2.59 2.24 2.05
2.03 1.85 2.01 1.94 1.91 1.85 2.43 2.41 2.42 2.21 2.62 2.67 2.66 2.57 2.64 2.73 2.86 2.54 2.91 2.72 2.49 2.58 2.35 2.13 2.05 1.84 1.85 1.82 1.99 2.14 2.05 2.05 2.10 2.02 2.16 2.97 2.67 2.63 2.42 2.46 2.75 2.27 2.21
2.55 2.18 2.06 2.01 1.87 2.44 2.53 2.87 3.23 2.74 2.41 2.57 2.73 2.52 2.43 2.48 2.70 2.71 2.63 2.82 2.72 2.68 2.88 2.89 2.86 2.97 2.95 2.84 2.82 2.83 2.93 3.30 3.41 3.20 2.69 3.12 2.92 2.74 2.59 2.58 2.96 2.31 2.16
2.98 2.76 2.30 2.08 2.12 2.10 1.99 1.70 1.90 2.21 2.63 2.96 2.88 2.84 3.00 2.93 3.62 3.52 3.12 3.47 3.71 3.91 4.42 4.28 4.11 4.16 3.97 3.58 3.33 3.48 4.21 3.90 3.98 3.74 3.09 2.92 3.03 3.09 3.13 3.22 3.08 2.81 2.34
2.56 2.46 2.43 2.13 2.18 2.02 2.32 1.90 1.64 1.20 1.53 1.85 2.25 2.56 3.27 2.84 3.18 2.93 2.68 2.66 3.31 3.97 3.82 4.03 4.07 3.92 3.70 3.58 3.69 3.12 2.87 2.89 3.05 3.57 3.07 2.90 2.88 2.79 3.54 3.31 2.92 2.72 2.60

GFSMA_prec_precacc_237.txt.gz
Total_Precipitation_Accumulation
0.83 0.64 0.48 0.54 0.48 0.48 0.69 0.93 1.21 1.21 1.24 1.18 1.26 1.16 0.94 0.74 0.85 1.00 1.09 1.43 1.31 1.13 1.14 1.06 0.82 0.91 0.75 0.69 0.70 0.72 0.61 0.50 0.51 0.53 0.46 0.38 0.46 0.56 0.57 0.54 0.56 0.49 0.54
0.79 0.68 0.55 0.54 0.52 0.53 0.64 0.85 1.19 1.29 1.35 1.53 1.30 0.96 0.94 0.67 0.67 1.06 1.75 1.84 1.42 1.38 1.16 1.28 1.48 1.32 1.09 0.98 0.92 0.83 0.65 0.54 0.53 0.47 0.50 0.51 0.50 0.55 0.50 0.47 0.52 0.55 0.54
0.72 0.77 0.75 0.72 0.61 0.60 0.67 0.91 1.16 1.29 1.07 1.02 1.11 1.34 1.56 1.46 0.91 0.60 0.75 0.88 0.91 0.96 1.06 1.40 1.58 1.80 1.95 1.72 1.32 1.01 0.88 0.62 0.54 0.53 0.49 0.48 0.48 0.45 0.47 0.47 0.48 0.56 0.61
1.15 0.98 0.76 0.84 1.01 0.88 0.77 0.89 1.10 1.63 1.50 1.09 0.74 0.77 1.05 1.20 1.09 1.13 0.85 0.68 0.66 0.80 1.18 1.03 1.80 2.48 2.33 1.72 1.23 1.09 0.79 0.73 0.72 0.77 0.85 0.78 0.63 0.55 0.51 0.49 0.59 0.73 0.72
1.82 1.43 1.33 1.43 1.39 1.40 1.43 1.62 1.83 1.95 1.56 1.26 0.93 0.73 0.69 0.65 0.51 0.45 0.47 0.47 0.46 0.45 0.44 0.55 0.80 1.08 0.98 0.94 0.86 0.83 0.80 0.71 0.71 0.83 1.00 1.05 0.91 0.81 0.76 0.68 0.73 0.79 0.82
1.27 1.36 1.54 1.77 1.79 1.61 1.29 1.08 1.17 1.32 1.30 1.16 1.04 0.74 0.69 0.47 0.35 0.24 0.24 0.34 0.37 0.52 0.51 0.42 0.57 0.64 0.60 0.61 0.71 0.80 0.79 0.87 0.87 0.86 0.96 1.07 1.19 1.16 1.12 1.03 1.03 1.11 1.07
1.22 1.12 1.40 2.15 2.28 1.46 1.01 1.07 1.34 1.35 1.20 1.06 1.43 1.11 0.80 0.52 0.35 0.24 0.19 0.25 0.26 0.32 0.63 0.66 0.48 0.56 0.70 0.52 0.47 0.64 0.84 1.04 1.13 1.10 1.21 1.22 1.20 1.29 1.34 1.30 1.17 1.42 1.46
1.02 1.12 0.94 1.05 1.60 1.87 1.70 1.24 1.24 1.51 1.38 1.28 1.45 1.43 1.28 1.21 0.73 0.40 0.35 0.24 0.22 0.31 0.30 0.45 0.56 0.46 0.56 0.80 0.45 0.45 0.80 1.11 1.26 1.35 1.67 1.78 1.52 1.49 1.65 1.79 1.89 1.82 2.01
0.98 1.08 1.05 0.96 1.13 1.77 1.77 1.34 0.99 1.16 1.59 1.50 1.37 1.48 1.49 1.04 0.70 0.46 0.44 0.37 0.32 0.33 0.35 0.36 0.40 0.45 0.43 0.69 1.04 0.62 0.48 0.86 1.28 1.52 1.66 2.13 2.24 1.86 1.77 1.80 1.96 1.97 1.87
1.09 0.96 1.14 1.17 1.07 1.07 1.37 1.36 1.10 0.99 1.51 1.50 2.00 1.41 1.03 1.06 1.29 1.00 0.72 0.63 0.57 0.42 0.36 0.46 0.47 0.41 0.44 0.48 0.68 0.99 0.71 0.55 0.84 1.25 1.78 2.15 2.24 2.22 2.17 2.00 1.83 1.92 2.01
1.29 1.33 1.30 1.45 1.51 1.61 1.23 1.74 1.64 1.52 1.65 1.38 0.94 1.18 1.43 1.40 1.67 1.70 1.20 0.82 0.94 0.73 0.63 0.60 0.77 0.65 0.61 0.70 0.69 0.67 0.80 0.77 0.80 1.04 1.31 1.66 2.11 2.10 1.93 2.30 2.81 2.40 2.05
1.34 1.33 1.34 1.35 1.29 1.36 1.51 1.79 2.17 2.18 2.20 1.96 1.52 1.36 1.39 1.40 1.16 1.54 1.73 1.27 1.19 1.13 1.14 1.49 1.28 1.09 0.98 0.96 1.04 1.12 1.01 0.98 1.04 1.03 1.10 1.54 2.04 2.41 2.61 2.43 2.49 3.27 3.42
1.56 1.08 1.21 1.23 1.19 1.00 1.09 1.42 1.91 2.13 2.52 2.68 2.51 2.00 1.61 1.44 1.38 1.60 1.78 1.71 1.61 1.33 1.38 1.50 1.38 1.30 1.38 1.56 1.48 1.56 1.42 1.29 1.37 1.57 1.55 1.63 1.78 2.04 2.54 2.59 2.57 2.67 3.10
1.14 0.92 1.12 1.27 1.25 1.29 1.34 1.33 1.50 1.53 1.62 1.97 2.70 3.22 3.23 2.53 2.19 2.36 2.49 2.76 2.81 2.37 1.98 1.31 1.01 1.02 1.01 1.25 1.45 1.91 1.79 1.77 1.69 1.78 1.81 1.72 1.67 1.87 2.16 2.69 2.97 2.87 2.95
1.20 1.14 1.29 1.36 1.40 1.36 1.41 1.46 1.41 1.38 1.42 1.46 1.50 1.72 1.99 2.08 2.13 2.10 2.26 2.63 3.32 3.15 2.36 1.73 1.13 0.90 0.88 1.18 1.44 1.59 1.50 1.58 1.72 1.69 1.87 1.99 1.97 1.93 1.91 1.94 2.20 2.47 2.69
1.52 1.66 1.70 1.53 1.53 1.60 1.65 1.64 1.55 1.43 1.58 1.51 1.35 1.33 1.38 1.39 1.40 1.47 1.68 2.05 2.62 2.87 2.46 1.59 1.28 0.98 1.14 1.35 1.58 1.56 1.90 2.23 1.72 1.69 1.72 2.03 2.17 2.06 1.96 1.92 1.88 2.10 2.32
2.01 1.92 2.00 2.18 2.01 2.05 2.06 2.03 1.93 1.80 1.72 1.63 1.55 1.48 1.25 1.17 1.37 1.59 1.75 1.88 2.11 2.49 2.68 1.85 1.49 1.36 1.53 1.69 1.61 1.37 1.45 1.74 2.17 2.17 1.71 1.49 1.72 2.10 2.27 2.38 2.33 2.18 2.22
1.85 1.79 1.99 2.11 2.06 2.22 2.35 2.26 2.17 2.01 1.89 2.01 2.07 2.05 1.87 1.73 1.74 1.73 2.03 1.94 1.91 2.06 2.20 1.95 1.50 1.26 1.34 1.51 1.60 1.46 1.45 1.32 1.37 1.80 2.16 2.00 1.79 1.87 2.09 2.36 2.91 2.74 2.50
2.78 2.60 2.63 2.72 2.48 2.46 2.77 2.82 2.73 2.44 2.28 2.24 2.11 2.07 1.89 1.82 1.97 1.97 2.03 2.20 2.04 1.94 2.19 2.41 1.92 1.63 1.62 1.56 1.70 1.70 1.54 1.49 1.42 1.72 1.82 1.96 2.05 1.91 1.98 2.04 2.14 2.35 2.19
2.04 2.27 2.25 2.28 2.28 2.30 2.35 2.66 2.85 2.95 2.66 2.43 2.26 2.10 2.16 2.03 1.77 1.53 1.61 1.73 1.64 1.70 1.91 2.21 2.18 2.06 2.07 2.12 2.06 1.90 1.88 1.72 1.74 1.68 1.79 1.72 1.72 1.68 1.90 2.12 2.16 2.00 1.93
1.48 1.47 1.46 1.67 1.77 1.92 2.22 2.19 2.36 2.63 2.61 2.55 2.38 2.26 2.21 2.46 2.40 2.09 1.91 1.91 1.89 2.11 2.14 2.28 2.43 2.21 2.09 2.20 2.19 2.02 1.83 2.05 2.18 1.80 1.79 1.90 1.80 1.90 1.90 1.94 2.06 2.07 2.18
1.48 1.60 1.42 1.56 1.89 1.93 2.41 2.34 2.29 2.50 2.63 2.61 2.66 2.47 2.61 2.92 2.69 2.75 2.46 2.17 2.06 2.23 2.21 2.01 2.06 2.16 1.93 1.59 1.61 1.79 2.17 2.43 2.68 2.33 2.15 2.54 2.22 2.27 2.19 2.16 2.59 2.24 2.05
2.05 1.87 2.03 1.97 1.93 1.89 2.50 2.48 2.47 2.23 2.63 2.67 2.66 2.57 2.64 2.73 2.86 2.54 2.91 2.72 2.49 2.58 2.35 2.13 2.05 1.84 1.85 1.82 1.99 2.14 2.06 2.06 2.11 2.02 2.17 2.97 2.67 2.63 2.43 2.46 2.75 2.27 2.21
2.60 2.24 2.11 2.06 1.91 2.53 2.65 2.93 3.25 2.74 2.42 2.57 2.73 2.52 2.43 2.48 2.70 2.71 2.63 2.82 2.72 2.68 2.88 2.89 2.86 2.97 2.95 2.85 2.83 2.83 2.94 3.31 3.41 3.20 2.69 3.12 2.92 2.74 2.59 2.58 2.96 2.31 2.16
3.06 2.82 2.37 2.16 2.20 2.20 2.11 1.78 1.94 2.22 2.63 2.97 2.88 2.84 3.00 2.93 3.62 3.52 3.12 3.47 3.71 3.91 4.42 4.28 4.11 4.16 3.97 3.58 3.33 3.48 4.21 3.90 3.98 3.74 3.09 2.93 3.03 3.09 3.14 3.22 3.08 2.81 2.34
2.64 2.55 2.53 2.23 2.29 2.11 2.40 1.96 1.68 1.21 1.54 1.85 2.25 2.56 3.27 2.84 3.18 2.93 2.68 2.66 3.31 3.97 3.83 4.03 4.08 3.92 3.71 3.58 3.70 3.12 2.87 2.89 3.06 3.57 3.07 2.90 2.88 2.80 3.54 3.32 2.92 2.72 2.60

GFSMA_prec_precacc_240.txt.gz
Total_Precipitation_Accumulation
0.83 0.64 0.48 0.54 0.48 0.48 0.69 0.93 1.21 1.21 1.24 1.18 1.26 1.16 0.94 0.74 0.85 1.00 1.09 1.43 1.31 1.13 1.14 1.06 0.82 0.91 0.75 0.69 0.70 0.72 0.61 0.50 0.51 0.53 0.46 0.38 0.46 0.56 0.57 0.54 0.56 0.49 0.54
0.79 0.68 0.55 0.54 0.52 0.53 0.64 0.85 1.19 1.29 1.35 1.53 1.30 0.96 0.94 0.67 0.67 1.06 1.75 1.84 1.42 1.38 1.16 1.28 1.48 1.32 1.09 0.98 0.92 0.83 0.65 0.54 0.53 0.47 0.50 0.51 0.50 0.55 0.50 0.47 0.52 0.55 0.54
0.72 0.77 0.75 0.72 0.61 0.60 0.67 0.91 1.16 1.29 1.07 1.02 1.11 1.34 1.56 1.46 0.91 0.60 0.75 0.89 0.91 0.96 1.06 1.40 1.58 1.80 1.95 1.72 1.32 1.01 0.88 0.62 0.54 0.53 0.49 0.48 0.48 0.45 0.47 0.47 0.48 0.56 0.61
1.15 0.98 0.76 0.84 1.01 0.88 0.77 0.89 1.10 1.63 1.50 1.09 0.74 0.77 1.05 1.20 1.09 1.13 0.85 0.71 0.67 0.80 1.18 1.03 1.80 2.48 2.33 1.72 1.23 1.09 0.79 0.73 0.72 0.77 0.85 0.78 0.63 0.55 0.51 0.49 0.59 0.73 0.72
1.82 1.43 1.33 1.43 1.39 1.40 1.43 1.62 1.83 1.95 1.56 1.26 0.93 0.73 0.69 0.66 0.53 0.46 0.48 0.47 0.47 0.46 0.45 0.55 0.80 1.08 0.98 0.94 0.86 0.83 0.80 0.71 0.71 0.83 1.00 1.05 0.91 0.81 0.76 0.68 0.73 0.79 0.82
1.27 1.36 1.54 1.77 1.79 1.61 1.29 1.08 1.17 1.32 1.30 1.16 1.04 0.75 0.70 0.48 0.38 0.25 0.24 0.34 0.37 0.52 0.51 0.42 0.57 0.64 0.60 0.61 0.71 0.80 0.79 0.87 0.87 0.86 0.96 1.07 1.19 1.16 1.12 1.03 1.03 1.11 1.07
1.22 1.12 1.40 2.15 2.28 1.46 1.01 1.07 1.34 1.35 1.20 1.06 1.45 1.13 0.81 0.54 0.37 0.24 0.19 0.25 0.26 0.32 0.63 0.66 0.48 0.56 0.70 0.52 0.47 0.64 0.84 1.04 1.13 1.10 1.21 1.22 1.20 1.29 1.34 1.30 1.17 1.42 1.46
1.02 1.12 0.94 1.05 1.60 1.87 1.70 1.24 1.24 1.51 1.38 1.28 1.46 1.44 1.29 1.22 0.73 0.40 0.35 0.24 0.22 0.31 0.30 0.45 0.56 0.46 0.56 0.80 0.45 0.45 0.80 1.11 1.26 1.35 1.67 1.78 1.52 1.49 1.65 1.79 1.89 1.82 2.01
0.98 1.08 1.05 0.96 1.13 1.77 1.77 1.34 0.99 1.16 1.59 1.50 1.38 1.48 1.50 1.04 0.71 0.46 0.44 0.37 0.32 0.33 0.35 0.36 0.40 0.45 0.43 0.69 1.04 0.62 0.48 0.86 1.28 1.52 1.66 2.13 2.24 1.86 1.77 1.80 1.96 1.98 1.87
1.09 0.96 1.14 1.17 1.07 1.07 1.37 1.36 1.10 0.99 1.51 1.50 2.00 1.41 1.03 1.06 1.29 1.00 0.72 0.63 0.57 0.42 0.36 0.46 0.47 0.41 0.44 0.48 0.68 0.99 0.71 0.55 0.84 1.25 1.78 2.15 2.24 2.22 2.17 2.00 1.84 1.93 2.03
1.29 1.33 1.30 1.45 1.51 1.61 1.23 1.74 1.64 1.52 1.65 1.38 0.94 1.18 1.43 1.40 1.67 1.70 1.20 0.82 0.94 0.73 0.63 0.60 0.77 0.65 0.61 0.70 0.69 0.67 0.80 0.77 0.80 1.04 1.31 1.66 2.11 2.10 1.94 2.31 2.83 2.41 2.06
1.34 1.33 1.34 1.35 1.29 1.36 1.51 1.79 2.17 2.18 2.20 1.97 1.52 1.36 1.39 1.40 1.16 1.54 1.73 1.27 1.19 1.13 1.14 1.49 1.28 1.09 0.98 0.96 1.04 1.12 1.01 0.98 1.04 1.03 1.10 1.54 2.04 2.41 2.61 2.44 2.50 3.28 3.43
1.56 1.08 1.21 1.23 1.19 1.00 1.09 1.42 1.91 2.13 2.52 2.68 2.51 2.00 1.61 1.44 1.38 1.60 1.78 1.71 1.61 1.33 1.38 1.50 1.38 1.30 1.38 1.56 1.48 1.56 1.42 1.29 1.37 1.57 1.55 1.63 1.78 2.05 2.55 2.59 2.57 2.68 3.11
1.14 0.92 1.12 1.27 1.25 1.29 1.34 1.33 1.51 1.53 1.62 1.97 2.70 3.22 3.23 2.53 2.19 2.36 2.49 2.77 2.81 2.37 1.98 1.31 1.01 1.02 1.01 1.25 1.45 1.91 1.79 1.77 1.69 1.78 1.81 1.72 1.67 1.87 2.16 2.69 2.97 2.88 2.95
1.20 1.14 1.29 1.36 1.40 1.37 1.41 1.47 1.41 1.39 1.43 1.46 1.50 1.72 1.99 2.09 2.14 2.10 2.26 2.64 3.32 3.15 2.36 1.73 1.13 0.90 0.88 1.18 1.44 1.59 1.50 1.58 1.72 1.69 1.87 1.99 1.97 1.93 1.91 1.94 2.20 2.47 2.70
1.52 1.66 1.70 1.53 1.53 1.60 1.66 1.65 1.56 1.44 1.59 1.51 1.35 1.33 1.38 1.40 1.43 1.50 1.69 2.06 2.62 2.87 2.46 1.59 1.28 0.98 1.14 1.35 1.58 1.56 1.90 2.23 1.72 1.69 1.72 2.03 2.17 2.06 1.96 1.92 1.88 2.10 2.32
2.01 1.92 2.00 2.18 2.02 2.06 2.07 2.05 1.94 1.81 1.73 1.63 1.55 1.48 1.25 1.18 1.38 1.63 1.76 1.88 2.12 2.50 2.68 1.85 1.49 1.36 1.53 1.69 1.61 1.37 1.45 1.74 2.17 2.17 1.71 1.49 1.72 2.10 2.27 2.38 2.33 2.18 2.22
1.85 1.79 1.99 2.11 2.06 2.24 2.39 2.30 2.19 2.02 1.93 2.04 2.13 2.12 1.90 1.76 1.76 1.73 2.03 1.94 1.91 2.06 2.20 1.95 1.50 1.26 1.34 1.51 1.60 1.46 1.45 1.32 1.37 1.80 2.16 2.00 1.79 1.87 2.09 2.36 2.91 2.74 2.50
2.78 2.60 2.64 2.72 2.49 2.47 2.82 2.87 2.75 2.51 2.35 2.34 2.22 2.22 2.01 1.88 1.99 1.97 2.03 2.20 2.04 1.94 2.19 2.41 1.92 1.63 1.62 1.56 1.70 1.70 1.54 1.49 1.42 1.72 1.82 1.96 2.05 1.91 1.98 2.04 2.14 2.35 2.19
2.04 2.28 2.26 2.29 2.29 2.31 2.38 2.72 2.91 3.04 2.75 2.55 2.42 2.24 2.27 2.10 1.80 1.53 1.61 1.73 1.64 1.70 1.91 2.21 2.18 2.06 2.07 2.12 2.06 1.90 1.88 1.72 1.74 1.68 1.79 1.72 1.72 1.68 1.90 2.12 2.16 2.00 1.93
1.48 1.47 1.47 1.68 1.77 1.93 2.24 2.24 2.41 2.69 2.69 2.66 2.49 2.34 2.29 2.49 2.41 2.09 1.91 1.91 1.89 2.11 2.14 2.28 2.43 2.21 2.09 2.20 2.19 2.02 1.83 2.05 2.18 1.80 1.79 1.90 1.80 1.90 1.90 1.94 2.06 2.07 2.18
1.49 1.60 1.43 1.56 1.89 1.94 2.44 2.37 2.33 2.57 2.72 2.71 2.74 2.52 2.65 2.95 2.71 2.76 2.47 2.17 2.06 2.23 2.21 2.01 2.06 2.16 1.93 1.59 1.61 1.79 2.18 2.43 2.68 2.33 2.15 2.54 2.22 2.27 2.19 2.16 2.59 2.24 2.05
2.05 1.87 2.03 1.98 1.93 1.90 2.53 2.51 2.53 2.30 2.71 2.77 2.70 2.60 2.67 2.75 2.87 2.55 2.91 2.72 2.49 2.58 2.35 2.13 2.05 1.84 1.85 1.82 1.99 2.14 2.06 2.06 2.11 2.02 2.17 2.97 2.67 2.63 2.43 2.46 2.75 2.27 2.21
2.62 2.27 2.14 2.10 1.93 2.56 2.71 2.99 3.32 2.80 2.48 2.62 2.79 2.57 2.46 2.49 2.70 2.71 2.63 2.82 2.72 2.68 2.88 2.89 2.86 2.97 2.95 2.85 2.83 2.83 2.94 3.31 3.41 3.20 2.69 3.12 2.92 2.74 2.59 2.58 2.96 2.31 2.16
3.07 2.85 2.41 2.20 2.25 2.27 2.22 1.86 2.00 2.26 2.67 3.00 2.91 2.86 3.01 2.93 3.62 3.52 3.12 3.47 3.71 3.91 4.42 4.28 4.11 4.16 3.97 3.58 3.33 3.48 4.21 3.90 3.98 3.74 3.09 2.93 3.03 3.09 3.14 3.22 3.08 2.81 2.34
2.64 2.56 2.56 2.26 2.35 2.18 2.52 2.04 1.75 1.27 1.60 1.89 2.29 2.58 3.27 2.84 3.18 2.93 2.68 2.66 3.31 3.97 3.83 4.03 4.08 3.92 3.71 3.58 3.70 3.13 2.87 2.89 3.06 3.57 3.07 2.90 2.88 2.80 3.54 3.32 2.92 2.72 2.60

GFSMA_prec_precacc_243.txt.gz
Total_Precipitation_Accumulation
0.83 0.64 0.48 0.54 0.48 0.48 0.69 0.93 1.21 1.21 1.24 1.18 1.26 1.16 0.94 0.74 0.85 1.00 1.09 1.43 1.31 1.13 1.14 1.06 0.82 0.91 0.75 0.69 0.70 0.72 0.61 0.50 0.51 0.53 0.46 0.38 0.46 0.56 0.57 0.54 0.56 0.49 0.54
0.79 0.68 0.55 0.54 0.52 0.53 0.64 0.85 1.19 1.29 1.35 1.53 1.30 0.96 0.94 0.67 0.67 1.06 1.75 1.84 1.42 1.38 1.16 1.28 1.48 1.32 1.09 0.98 0.92 0.83 0.65 0.54 0.53 0.47 0.50 0.51 0.50 0.55 0.50 0.47 0.52 0.55 0.54
0.72 0.77 0.75 0.72 0.61 0.60 0.67 0.91 1.16 1.29 1.07 1.02 1.11 1.34 1.56 1.46 0.91 0.60 0.75 0.89 0.91 0.96 1.06 1.40 1.58 1.80 1.95 1.72 1.32 1.01 0.88 0.62 0.54 0.53 0.49 0.48 0.48 0.45 0.47 0.47 0.48 0.56 0.61
1.15 0.98 0.76 0.84 1.01 0.88 0.77 0.89 1.10 1.63 1.50 1.09 0.74 0.77 1.05 1.20 1.09 1.13 0.85 0.71 0.67 0.80 1.18 1.03 1.80 2.48 2.33 1.72 1.23 1.09 0.79 0.73 0.72 0.77 0.85 0.78 0.63 0.55 0.51 0.49 0.59 0.73 0.72
1.82 1.43 1.33 1.43 1.39 1.40 1.43 1.62 1.83 1.95 1.56 1.26 0.93 0.73 0.69 0.66 0.53 0.46 0.48 0.48 0.47 0.46 0.45 0.55 0.80 1.08 0.98 0.94 0.86 0.83 0.80 0.71 0.71 0.83 1.00 1.05 0.91 0.81 0.76 0.68 0.73 0.79 0.82
1.27 1.36 1.54 1.77 1.79 1.61 1.29 1.08 1.17 1.32 1.30 1.16 1.04 0.75 0.70 0.48 0.38 0.25 0.24 0.34 0.37 0.53 0.51 0.42 0.57 0.64 0.60 0.61 0.71 0.80 0.79 0.87 0.87 0.86 0.96 1.07 1.19 1.16 1.12 1.03 1.03 1.11 1.07
1.22 1.12 1.40 2.15 2.28 1.46 1.01 1.07 1.34 1.35 1.20 1.06 1.45 1.13 0.81 0.54 0.37 0.24 0.19 0.26 0.27 0.33 0.64 0.66 0.48 0.56 0.70 0.52 0.47 0.64 0.84 1.04 1.13 1.10 1.21 1.22 1.20 1.29 1.34 1.30 1.17 1.42 1.46
1.02 1.12 0.94 1.05 1.60 1.87 1.70 1.24 1.24 1.51 1.38 1.28 1.46 1.44 1.29 1.22 0.73 0.40 0.35 0.24 0.23 0.31 0.30 0.45 0.56 0.46 0.56 0.80 0.45 0.45 0.80 1.11 1.26 1.35 1.67 1.78 1.52 1.49 1.65 1.79 1.89 1.82 2.01
0.98 1.08 1.05 0.96 1.13 1.77 1.77 1.34 0.99 1.16 1.59 1.50 1.38 1.48 1.50 1.04 0.71 0.46 0.44 0.37 0.32 0.33 0.35 0.36 0.40 0.45 0.43 0.69 1.04 0.62 0.48 0.86 1.28 1.52 1.66 2.13 2.24 1.86 1.77 1.80 1.96 1.98 1.88
1.09 0.96 1.14 1.17 1.07 1.07 1.37 1.36 1.10 0.99 1.51 1.50 2.00 1.41 1.03 1.06 1.29 1.00 0.72 0.63 0.57 0.42 0.36 0.46 0.47 0.41 0.44 0.48 0.68 0.99 0.71 0.55 0.84 1.25 1.78 2.15 2.24 2.22 2.17 2.01 1.84 1.94 2.03
1.29 1.33 1.30 1.45 1.51 1.61 1.23 1.74 1.64 1.52 1.65 1.38 0.94 1.18 1.43 1.40 1.67 1.70 1.20 0.82 0.94 0.73 0.63 0.60 0.77 0.65 0.61 0.70 0.69 0.67 0.80 0.77 0.80 1.04 1.31 1.66 2.11 2.10 1.94 2.32 2.83 2.42 2.07
1.34 1.33 1.34 1.35 1.29 1.36 1.51 1.79 2.17 2.18 2.20 1.97 1.52 1.36 1.39 1.40 1.16 1.54 1.73 1.27 1.19 1.13 1.14 1.49 1.28 1.09 0.98 0.96 1.04 1.12 1.01 0.98 1.04 1.03 1.10 1.54 2.04 2.41 2.62 2.44 2.51 3.29 3.43
1.56 1.08 1.21 1.23 1.19 1.00 1.09 1.42 1.91 2.13 2.52 2.68 2.51 2.00 1.61 1.44 1.38 1.60 1.78 1.71 1.62 1.34 1.38 1.50 1.38 1.30 1.38 1.56 1.48 1.56 1.42 1.29 1.37 1.57 1.55 1.63 1.78 2.05 2.55 2.59 2.57 2.68 3.12
1.14 0.92 1.12 1.27 1.25 1.29 1.34 1.33 1.51 1.53 1.62 1.97 2.70 3.22 3.23 2.53 2.19 2.36 2.49 2.78 2.83 2.37 1.99 1.33 1.01 1.02 1.01 1.25 1.45 1.91 1.79 1.77 1.69 1.78 1.81 1.72 1.67 1.87 2.16 2.69 2.97 2.88 2.96
1.20 1.14 1.29 1.36 1.40 1.37 1.41 1.47 1.41 1.39 1.43 1.46 1.50 1.72 1.99 2.09 2.14 2.10 2.27 2.65 3.38 3.19 2.36 1.74 1.14 0.90 0.88 1.18 1.44 1.59 1.50 1.58 1.72 1.69 1.87 1.99 1.97 1.93 1.91 1.94 2.20 2.48 2.70
1.53 1.66 1.70 1.53 1.53 1.60 1.66 1.65 1.56 1.45 1.60 1.52 1.36 1.33 1.38 1.40 1.43 1.51 1.71 2.11 2.73 2.97 2.48 1.59 1.29 0.98 1.14 1.35 1.58 1.56 1.90 2.23 1.72 1.69 1.72 2.03 2.17 2.06 1.96 1.92 1.88 2.10 2.33
2.01 1.92 2.00 2.19 2.02 2.06 2.07 2.06 1.95 1.83 1.75 1.65 1.56 1.48 1.25 1.18 1.39 1.68 1.89 2.04 2.21 2.55 2.69 1.85 1.49 1.36 1.53 1.69 1.61 1.37 1.45 1.74 2.17 2.17 1.71 1.49 1.72 2.10 2.27 2.38 2.33 2.18 2.22
1.85 1.79 1.99 2.11 2.06 2.24 2.40 2.33 2.21 2.04 1.95 2.06 2.14 2.14 1.96 1.85 1.88 1.86 2.16 2.05 1.98 2.09 2.21 1.97 1.50 1.26 1.34 1.51 1.60 1.46 1.45 1.32 1.37 1.80 2.16 2.00 1.79 1.87 2.09 2.36 2.91 2.74 2.50
2.79 2.61 2.64 2.72 2.49 2.47 2.83 2.89 2.78 2.53 2.37 2.36 2.23 2.26 2.11 2.03 2.17 2.15 2.16 2.25 2.06 1.95 2.20 2.41 1.92 1.63 1.62 1.56 1.70 1.70 1.54 1.49 1.42 1.72 1.82 1.96 2.05 1.91 1.98 2.04 2.14 2.35 2.19
2.04 2.28 2.26 2.29 2.29 2.31 2.39 2.74 2.94 3.08 2.77 2.57 2.44 2.29 2.40 2.34 2.07 1.76 1.75 1.80 1.67 1.72 1.92 2.21 2.18 2.06 2.07 2.12 2.06 1.90 1.88 1.72 1.74 1.68 1.79 1.72 1.72 1.68 1.90 2.12 2.16 2.00 1.93
1.50 1.48 1.49 1.70 1.79 1.95 2.26 2.25 2.42 2.71 2.72 2.70 2.55 2.45 2.42 2.66 2.56 2.23 2.02 2.00 1.93 2.13 2.14 2.28 2.43 2.21 2.09 2.20 2.19 2.02 1.83 2.05 2.18 1.80 1.79 1.90 1.80 1.90 1.90 1.94 2.06 2.07 2.18
1.49 1.61 1.43 1.57 1.91 1.95 2.45 2.38 2.34 2.58 2.73 2.74 2.82 2.63 2.77 3.08 2.81 2.84 2.55 2.22 2.08 2.24 2.21 2.01 2.06 2.16 1.93 1.59 1.61 1.79 2.18 2.43 2.68 2.33 2.15 2.54 2.22 2.27 2.19 2.16 2.59 2.24 2.05
2.05 1.87 2.03 1.98 1.94 1.90 2.55 2.53 2.54 2.31 2.72 2.78 2.74 2.66 2.74 2.82 2.95 2.60 2.95 2.74 2.50 2.58 2.35 2.13 2.05 1.84 1.85 1.82 1.99 2.14 2.06 2.06 2.11 2.02 2.17 2.97 2.67 2.63 2.43 2.47 2.76 2.27 2.21
2.62 2.27 2.14 2.11 1.95 2.59 2.75 3.01 3.34 2.81 2.50 2.65 2.81 2.60 2.50 2.53 2.75 2.75 2.65 2.83 2.73 2.69 2.88 2.89 2.86 2.97 2.95 2.85 2.83 2.83 2.94 3.31 3.41 3.20 2.69 3.12 2.92 2.74 2.59 2.58 2.96 2.31 2.16
3.08 2.85 2.41 2.20 2.25 2.30 2.29 1.92 2.06 2.28 2.71 3.05 2.96 2.91 3.07 2.98 3.67 3.55 3.13 3.48 3.71 3.92 4.42 4.28 4.11 4.16 3.97 3.58 3.33 3.48 4.21 3.90 3.98 3.74 3.09 2.93 3.03 3.09 3.14 3.22 3.08 2.81 2.34
2.64 2.56 2.56 2.26 2.35 2.18 2.55 2.08 1.78 1.28 1.66 1.97 2.38 2.66 3.38 2.90 3.26 2.96 2.69 2.67 3.31 3.98 3.83 4.03 4.08 3.92 3.71 3.58 3.70 3.13 2.87 2.89 3.06 3.57 3.07 2.90 2.88 2.80 3.54 3.32 2.92 2.72 2.60

GFSMA_prec_precacc_246.txt.gz
Total_Precipitation_Accumulation
0.83 0.64 0.48 0.54 0.48 0.48 0.69 0.93 1.21 1.21 1.24 1.18 1.26 1.16 0.94 0.74 0.85 1.00 1.09 1.43 1.31 1.13 1.14 1.07 0.83 0.92 0.75 0.69 0.70 0.72 0.61 0.50 0.51 0.53 0.46 0.38 0.46 0.56 0.57 0.54 0.56 0.49 0.54
0.79 0.68 0.55 0.54 0.52 0.53 0.64 0.85 1.19 1.29 1.35 1.53 1.30 0.96 0.94 0.67 0.67 1.06 1.75 1.84 1.42 1.38 1.16 1.28 1.48 1.32 1.09 0.98 0.92 0.83 0.65 0.54 0.53 0.47 0.50 0.51 0.50 0.55 0.50 0.47 0.52 0.55 0.54
0.72 0.77 0.75 0.72 0.61 0.60 0.67 0.91 1.16 1.29 1.07 1.02 1.11 1.34 1.56 1.46 0.91 0.60 0.75 0.89 0.91 0.96 1.06 1.40 1.58 1.80 1.95 1.72 1.32 1.01 0.88 0.62 0.54 0.53 0.49 0.48 0.48 0.45 0.47 0.47 0.48 0.56 0.61
1.15 0.98 0.76 0.84 1.01 0.88 0.77 0.89 1.10 1.63 1.50 1.09 0.74 0.77 1.05 1.20 1.09 1.13 0.85 0.71 0.67 0.80 1.18 1.03 1.80 2.48 2.33 1.72 1.23 1.09 0.79 0.73 0.72 0.77 0.85 0.78 0.63 0.55 0.51 0.49 0.59 0.73 0.72
1.82 1.43 1.33 1.43 1.39 1.40 1.43 1.62 1.83 1.95 1.56 1.26 0.93 0.73 0.69 0.66 0.53 0.46 0.48 0.48 0.47 0.46 0.45 0.55 0.80 1.08 0.98 0.94 0.86 0.83 0.80 0.71 0.71 0.83 1.00 1.05 0.91 0.81 0.76 0.68 0.73 0.79 0.82
1.27 1.36 1.54 1.77 1.79 1.61 1.29 1.08 1.17 1.32 1.30 1.16 1.04 0.75 0.70 0.48 0.38 0.25 0.24 0.34 0.37 0.53 0.51 0.42 0.57 0.64 0.60 0.61 0.71 0.80 0.79 0.87 0.87 0.86 0.96 1.07 1.19 1.16 1.12 1.03 1.03 1.11 1.07
1.22 1.12 1.40 2.15 2.28 1.46 1.01 1.07 1.34 1.35 1.20 1.06 1.45 1.13 0.81 0.54 0.37 0.24 0.19 0.26 0.27 0.33 0.64 0.66 0.48 0.56 0.70 0.52 0.47 0.64 0.84 1.04 1.13 1.10 1.21 1.22 1.20 1.29 1.34 1.30 1.17 1.42 1.46
1.02 1.12 0.94 1.05 1.60 1.87 1.70 1.24 1.24 1.51 1.38 1.28 1.46 1.44 1.29 1.22 0.73 0.40 0.35 0.24 0.23 0.31 0.30 0.45 0.56 0.46 0.56 0.80 0.45 0.45 0.80 1.11 1.26 1.35 1.67 1.78 1.52 1.49 1.65 1.79 1.89 1.82 2.01
0.98 1.08 1.05 0.96 1.13 1.77 1.77 1.34 0.99 1.16 1.59 1.50 1.38 1.48 1.50 1.04 0.71 0.46 0.44 0.37 0.32 0.33 0.35 0.36 0.40 0.45 0.43 0.69 1.04 0.62 0.48 0.86 1.28 1.52 1.66 2.13 2.24 1.86 1.77 1.80 1.96 1.98 1.88
1.09 0.96 1.14 1.17 1.07 1.07 1.37 1.36 1.10 0.99 1.51 1.50 2.00 1.41 1.03 1.06 1.29 1.00 0.72 0.63 0.57 0.42 0.36 0.46 0.47 0.41 0.44 0.48 0.68 0.99 0.71 0.55 0.84 1.25 1.78 2.15 2.24 2.22 2.17 2.01 1.84 1.94 2.04
1.29 1.33 1.30 1.45 1.51 1.61 1.23 1.74 1.64 1.52 1.65 1.38 0.94 1.18 1.43 1.40 1.67 1.70 1.20 0.82 0.94 0.73 0.63 0.60 0.77 0.65 0.61 0.70 0.69 0.67 0.80 0.77 0.80 1.04 1.31 1.66 2.11 2.10 1.94 2.32 2.83 2.43 2.08
1.34 1.33 1.34 1.35 1.29 1.36 1.51 1.79 2.17 2.18 2.20 1.97 1.52 1.36 1.39 1.40 1.16 1.54 1.73 1.27 1.19 1.13 1.14 1.49 1.28 1.09 0.98 0.96 1.04 1.12 1.01 0.98 1.04 1.03 1.10 1.54 2.04 2.41 2.62 2.44 2.51 3.29 3.44
1.56 1.08 1.21 1.23 1.19 1.00 1.09 1.42 1.91 2.13 2.52 2.68 2.51 2.00 1.61 1.44 1.38 1.60 1.78 1.71 1.62 1.34 1.38 1.50 1.38 1.30 1.38 1.57 1.48 1.56 1.42 1.29 1.37 1.57 1.55 1.63 1.78 2.05 2.55 2.59 2.57 2.68 3.12
1.15 0.92 1.12 1.28 1.25 1.29 1.34 1.33 1.51 1.53 1.62 1.97 2.70 3.22 3.23 2.53 2.19 2.36 2.49 2.78 2.83 2.37 2.00 1.35 1.03 1.02 1.03 1.27 1.45 1.91 1.79 1.77 1.69 1.78 1.81 1.72 1.67 1.87 2.16 2.69 2.97 2.88 2.96
1.24 1.19 1.36 1.43 1.42 1.39 1.43 1.47 1.41 1.39 1.43 1.46 1.50 1.72 1.99 2.09 2.14 2.10 2.27 2.66 3.40 3.23 2.47 1.82 1.18 0.95 0.93 1.20 1.44 1.59 1.50 1.58 1.72 1.69 1.87 1.99 1.97 1.93 1.91 1.94 2.20 2.48 2.70
1.60 1.79 1.82 1.60 1.57 1.62 1.70 1.67 1.58 1.46 1.61 1.52 1.36 1.33 1.39 1.41 1.43 1.51 1.72 2.17 2.90 3.16 2.63 1.65 1.32 1.00 1.15 1.35 1.58 1.56 1.90 2.23 1.72 1.69 1.72 2.03 2.17 2.06 1.96 1.92 1.88 2.10 2.33
2.05 1.94 2.04 2.23 2.05 2.08 2.09 2.07 1.98 1.85 1.76 1.67 1.58 1.50 1.26 1.19 1.41 1.70 1.91 2.14 2.36 2.71 2.86 2.01 1.60 1.39 1.54 1.69 1.61 1.37 1.45 1.74 2.17 2.17 1.71 1.49 1.72 2.10 2.27 2.38 2.33 2.18 2.22
1.85 1.79 2.00 2.16 2.11 2.27 2.43 2.36 2.25 2.10 2.02 2.14 2.22 2.18 1.98 1.86 1.90 1.89 2.24 2.18 2.11 2.23 2.41 2.14 1.55 1.26 1.35 1.52 1.60 1.46 1.45 1.32 1.37 1.80 2.16 2.00 1.79 1.87 2.09 2.36 2.91 2.74 2.50
2.81 2.63 2.66 2.76 2.52 2.52 2.89 2.97 2.86 2.64 2.46 2.47 2.31 2.28 2.13 2.04 2.21 2.28 2.31 2.44 2.26 2.09 2.33 2.55 1.95 1.64 1.63 1.58 1.71 1.70 1.54 1.49 1.42 1.72 1.82 1.96 2.05 1.91 1.98 2.04 2.14 2.35 2.19
2.06 2.30 2.30 2.32 2.37 2.45 2.50 2.80 3.01 3.18 2.86 2.62 2.46 2.30 2.43 2.38 2.19 1.96 2.01 2.07 1.92 1.92 2.08 2.28 2.21 2.07 2.08 2.12 2.06 1.90 1.88 1.72 1.74 1.68 1.79 1.72 1.72 1.68 1.90 2.12 2.16 2.00 1.93
1.51 1.49 1.51 1.74 1.89 2.06 2.34 2.33 2.50 2.80 2.79 2.73 2.56 2.46 2.45 2.78 2.67 2.40 2.24 2.18 2.09 2.27 2.27 2.35 2.47 2.22 2.10 2.20 2.19 2.02 1.83 2.05 2.18 1.80 1.79 1.90 1.80 1.90 1.90 1.94 2.06 2.07 2.18
1.49 1.62 1.46 1.59 1.94 1.98 2.51 2.44 2.39 2.60 2.75 2.75 2.82 2.64 2.82 3.15 2.88 2.95 2.67 2.33 2.18 2.32 2.28 2.05 2.09 2.18 1.94 1.59 1.61 1.79 2.18 2.43 2.68 2.33 2.15 2.54 2.22 2.27 2.19 2.16 2.59 2.24 2.05
2.05 1.87 2.03 1.98 1.95 1.91 2.56 2.54 2.56 2.34 2.75 2.79 2.74 2.66 2.76 2.84 3.01 2.65 3.03 2.83 2.57 2.63 2.37 2.15 2.07 1.85 1.85 1.82 1.99 2.14 2.06 2.06 2.11 2.02 2.17 2.97 2.67 2.63 2.43 2.47 2.76 2.27 2.21
2.62 2.27 2.14 2.11 1.95 2.59 2.76 3.01 3.35 2.82 2.50 2.66 2.82 2.61 2.52 2.54 2.77 2.78 2.69 2.89 2.78 2.72 2.90 2.90 2.86 2.97 2.95 2.85 2.83 2.83 2.94 3.31 3.41 3.20 2.69 3.12 2.92 2.74 2.59 2.58 2.96 2.31 2.16
3.08 2.85 2.41 2.20 2.25 2.30 2.29 1.92 2.07 2.28 2.72 3.06 2.97 2.93 3.09 2.99 3.72 3.60 3.17 3.51 3.76 3.95 4.45 4.31 4.12 4.17 3.98 3.59 3.33 3.48 4.21 3.90 3.98 3.74 3.09 2.93 3.03 3.09 3.14 3.22 3.08 2.81 2.34
2.65 2.56 2.56 2.26 2.35 2.18 2.55 2.09 1.79 1.28 1.66 1.98 2.40 2.70 3.47 2.95 3.37 3.05 2.73 2.72 3.38 4.04 3.85 4.06 4.11 3.96 3.74 3.61 3.71 3.13 2.87 2.89 3.06 3.57 3.07 2.90 2.88 2.80 3.54 3.32 2.92 2.72 2.60

GFSMA_prec_precacc_249.txt.gz
Total_Precipitation_Accumulation
0.83 0.64 0.48 0.54 0.48 0.48 0.69 0.93 1.21 1.21 1.24 1.18 1.26 1.16 0.94 0.74 0.85 1.00 1.09 1.43 1.31 1.13 1.14 1.07 0.84 0.93 0.76 0.69 0.70 0.72 0.61 0.50 0.51 0.53 0.46 0.38 0.46 0.56 0.57 0.54 0.56 0.49 0.54
0.79 0.68 0.55 0.54 0.52 0.53 0.64 0.85 1.19 1.29 1.35 1.53 1.30 0.96 0.94 0.67 0.67 1.06 1.75 1.84 1.42 1.38 1.16 1.29 1.50 1.34 1.09 0.98 0.92 0.83 0.65 0.54 0.53 0.47 0.50 0.51 0.50 0.55 0.50 0.47 0.52 0.55 0.54
0.72 0.77 0.75 0.72 0.61 0.60 0.67 0.91 1.16 1.29 1.07 1.02 1.11 1.34 1.56 1.46 0.91 0.60 0.75 0.89 0.91 0.96 1.06 1.40 1.58 1.80 1.95 1.72 1.32 1.01 0.88 0.62 0.54 0.53 0.49 0.48 0.48 0.45 0.47 0.47 0.48 0.56 0.61
1.15 0.98 0.76 0.84 1.01 0.88 0.77 0.89 1.10 1.63 1.50 1.09 0.74 0.77 1.05 1.20 1.09 1.13 0.85 0.71 0.67 0.80 1.18 1.03 1.80 2.48 2.33 1.72 1.23 1.09 0.79 0.73 0.72 0.77 0.85 0.78 0.63 0.55 0.51 0.49 0.59 0.73 0.72
1.82 1.43 1.33 1.43 1.39 1.40 1.43 1.62 1.83 1.95 1.56 1.26 0.93 0.73 0.69 0.66 0.53 0.46 0.48 0.48 0.47 0.46 0.45 0.55 0.80 1.08 0.98 0.94 0.86 0.83 0.80 0.71 0.71 0.83 1.00 1.05 0.91 0.81 0.76 0.68 0.73 0.79 0.82
1.27 1.36 1.54 1.77 1.79 1.61 1.29 1.08 1.17 1.32 1.30 1.16 1.04 0.75 0.70 0.48 0.38 0.25 0.24 0.34 0.37 0.53 0.51 0.42 0.57 0.64 0.60 0.61 0.71 0.80 0.79 0.87 0.87 0.86 0.96 1.07 1.19 1.16 1.12 1.03 1.03 1.11 1.07
1.22 1.12 1.40 2.15 2.28 1.46 1.01 1.07 1.34 1.35 1.20 1.06 1.45 1.13 0.81 0.54 0.37 0.24 0.19 0.26 0.27 0.33 0.64 0.66 0.48 0.56 0.70 0.52 0.47 0.64 0.84 1.04 1.13 1.10 1.21 1.22 1.20 1.29 1.34 1.30 1.17 1.42 1.46
1.02 1.12 0.94 1.05 1.60 1.87 1.70 1.24 1.24 1.51 1.38 1.28 1.46 1.44 1.29 1.22 0.73 0.40 0.35 0.24 0.23 0.31 0.30 0.45 0.56 0.46 0.56 0.80 0.45 0.45 0.80 1.11 1.26 1.35 1.67 1.78 1.52 1.49 1.65 1.79 1.89 1.82 2.01
0.98 1.08 1.05 0.96 1.13 1.77 1.77 1.34 0.99 1.16 1.59 1.50 1.38 1.48 1.50 1.04 0.71 0.46 0.44 0.37 0.32 0.33 0.35 0.36 0.40 0.45 0.43 0.69 1.04 0.62 0.48 0.86 1.28 1.52 1.66 2.13 2.24 1.86 1.77 1.80 1.96 1.98 1.88
1.09 0.96 1.14 1.17 1.07 1.07 1.37 1.36 1.10 0.99 1.51 1.50 2.00 1.41 1.03 1.06 1.29 1.00 0.72 0.63 0.57 0.42 0.36 0.46 0.47 0.41 0.44 0.48 0.68 0.99 0.71 0.55 0.84 1.25 1.78 2.15 2.24 2.22 2.17 2.01 1.84 1.94 2.04
1.29 1.33 1.30 1.45 1.51 1.61 1.23 1.74 1.64 1.52 1.65 1.38 0.94 1.18 1.43 1.40 1.67 1.70 1.20 0.82 0.94 0.73 0.63 0.60 0.77 0.65 0.61 0.70 0.69 0.67 0.80 0.77 0.80 1.04 1.31 1.66 2.11 2.10 1.94 2.32 2.83 2.43 2.08
1.34 1.33 1.34 1.35 1.29 1.36 1.51 1.79 2.17 2.18 2.20 1.97 1.52 1.36 1.39 1.40 1.16 1.54 1.73 1.27 1.19 1.13 1.14 1.49 1.28 1.09 0.98 0.96 1.04 1.12 1.01 0.98 1.04 1.03 1.10 1.54 2.04 2.41 2.62 2.44 2.51 3.29 3.44
1.56 1.08 1.21 1.23 1.19 1.00 1.09 1.42 1.91 2.13 2.52 2.68 2.51 2.00 1.61 1.44 1.38 1.60 1.78 1.71 1.62 1.34 1.38 1.50 1.38 1.30 1.39 1.57 1.49 1.56 1.42 1.29 1.37 1.57 1.55 1.63 1.78 2.05 2.55 2.59 2.57 2.68 3.12
1.17 0.93 1.12 1.28 1.25 1.29 1.34 1.33 1.51 1.53 1.62 1.97 2.70 3.22 3.23 2.53 2.19 2.36 2.49 2.78 2.83 2.37 2.00 1.35 1.04 1.04 1.05 1.28 1.46 1.91 1.79 1.77 1.69 1.78 1.81 1.72 1.67 1.87 2.16 2.69 2.97 2.88 2.96
1.40 1.32 1.43 1.45 1.43 1.39 1.43 1.49 1.43 1.39 1.44 1.46 1.50 1.72 2.00 2.10 2.14 2.11 2.28 2.66 3.46 3.28 2.47 1.83 1.21 0.99 0.97 1.23 1.46 1.60 1.50 1.58 1.72 1.69 1.87 1.99 1.97 1.93 1.91 1.94 2.20 2.48 2.70
1.90 2.05 2.09 1.87 1.78 1.72 1.76 1.76 1.63 1.54 1.69 1.64 1.46 1.38 1.40 1.43 1.46 1.52 1.73 2.18 2.98 3.28 2.70 1.67 1.35 1.07 1.22 1.40 1.60 1.57 1.90 2.23 1.72 1.69 1.72 2.03 2.17 2.06 1.96 1.92 1.88 2.10 2.33
2.19 2.07 2.22 2.39 2.13 2.16 2.15 2.10 2.03 1.94 1.87 1.80 1.71 1.57 1.29 1.22 1.44 1.73 1.96 2.19 2.43 2.81 2.96 2.09 1.71 1.53 1.67 1.82 1.74 1.41 1.46 1.74 2.18 2.18 1.71 1.49 1.72 2.10 2.27 2.38 2.33 2.18 2.22
1.88 1.83 2.03 2.20 2.16 2.31 2.45 2.40 2.30 2.17 2.12 2.23 2.35 2.28 2.01 1.92 1.95 2.01 2.30 2.25 2.21 2.35 2.57 2.27 1.83 1.63 1.68 1.90 1.85 1.49 1.45 1.32 1.37 1.80 2.16 2.00 1.79 1.87 2.09 2.36 2.91 2.74 2.50
2.82 2.63 2.66 2.78 2.55 2.58 2.95 3.02 2.92 2.70 2.49 2.52 2.42 2.39 2.21 2.17 2.27 2.37 2.44 2.58 2.39 2.21 2.48 2.76 2.32 2.03 1.96 1.86 1.89 1.73 1.54 1.49 1.42 1.72 1.82 1.96 2.05 1.91 1.98 2.04 2.14 2.35 2.19
2.07 2.30 2.31 2.34 2.41 2.49 2.55 2.84 3.07 3.23 2.88 2.64 2.49 2.34 2.51 2.44 2.29 2.06 2.20 2.28 2.12 2.10 2.29 2.54 2.56 2.49 2.41 2.28 2.12 1.91 1.88 1.72 1.74 1.68 1.79 1.72 1.72 1.68 1.90 2.12 2.16 2.00 1.93
1.51 1.49 1.52 1.75 1.91 2.10 2.41 2.40 2.58 2.84 2.82 2.75 2.59 2.48 2.47 2.79 2.69 2.44 2.30 2.24 2.19 2.41 2.39 2.48 2.60 2.35 2.19 2.30 2.27 2.03 1.83 2.05 2.18 1.80 1.79 1.90 1.80 1.90 1.90 1.94 2.06 2.07 2.18
1.49 1.62 1.46 1.59 1.94 1.99 2.54 2.50 2.44 2.65 2.79 2.79 2.88 2.77 2.87 3.17 2.89 2.97 2.70 2.38 2.23 2.37 2.34 2.11 2.13 2.21 1.97 1.62 1.64 1.80 2.18 2.44 2.68 2.33 2.15 2.54 2.22 2.27 2.19 2.16 2.59 2.24 2.05
2.05 1.87 2.03 1.98 1.95 1.91 2.56 2.55 2.58 2.36 2.77 2.82 2.77 2.69 2.79 2.87 3.03 2.66 3.05 2.86 2.60 2.69 2.44 2.19 2.11 1.88 1.88 1.85 2.01 2.16 2.07 2.07 2.11 2.03 2.19 2.98 2.67 2.63 2.43 2.47 2.76 2.27 2.21
2.62 2.27 2.14 2.11 1.95 2.59 2.76 3.01 3.35 2.82 2.50 2.66 2.82 2.62 2.53 2.55 2.78 2.80 2.71 2.91 2.81 2.77 2.96 2.95 2.89 3.00 3.00 2.89 2.85 2.85 2.95 3.32 3.44 3.25 2.72 3.12 2.92 2.74 2.59 2.58 2.96 2.31 2.16
3.08 2.85 2.41 2.20 2.25 2.30 2.30 1.92 2.07 2.28 2.72 3.06 2.97 2.93 3.10 3.00 3.75 3.64 3.18 3.53 3.77 3.98 4.51 4.36 4.17 4.22 4.02 3.62 3.36 3.51 4.25 3.97 4.07 3.82 3.11 2.93 3.03 3.09 3.14 3.22 3.08 2.81 2.34
2.65 2.56 2.56 2.26 2.35 2.18 2.55 2.09 1.79 1.28 1.66 1.98 2.40 2.70 3.51 2.96 3.42 3.13 2.76 2.73 3.41 4.09 3.93 4.13 4.17 4.00 3.77 3.65 3.78 3.23 2.99 3.03 3.19 3.63 3.09 2.91 2.88 2.80 3.54 3.32 2.92 2.72 2.60

GFSMA_prec_precacc_252.txt.gz
Total_Precipitation_Accumulation
0.83 0.64 0.48 0.54 0.48 0.48 0.69 0.93 1.21 1.21 1.24 1.18 1.26 1.16 0.94 0.74 0.85 1.00 1.09 1.43 1.31 1.13 1.14 1.07 0.84 0.93 0.77 0.70 0.71 0.72 0.61 0.50 0.51 0.53 0.46 0.38 0.46 0.56 0.57 0.54 0.56 0.49 0.54
0.79 0.68 0.55 0.54 0.52 0.53 0.64 0.85 1.19 1.29 1.35 1.53 1.30 0.96 0.94 0.67 0.67 1.06 1.75 1.84 1.42 1.38 1.16 1.29 1.50 1.34 1.10 0.99 0.92 0.83 0.65 0.54 0.53 0.47 0.50 0.51 0.50 0.55 0.50 0.47 0.52 0.55 0.54
0.72 0.77 0.75 0.72 0.61 0.60 0.67 0.91 1.16 1.29 1.07 1.02 1.11 1.34 1.56 1.46 0.91 0.60 0.75 0.89 0.91 0.96 1.06 1.40 1.58 1.80 1.95 1.72 1.32 1.01 0.88 0.62 0.54 0.53 0.49 0.48 0.48 0.45 0.47 0.47 0.48 0.56 0.61
1.15 0.98 0.76 0.84 1.01 0.88 0.77 0.89 1.10 1.63 1.50 1.09 0.74 0.77 1.05 1.20 1.09 1.13 0.85 0.71 0.67 0.80 1.18 1.03 1.80 2.48 2.33 1.72 1.23 1.09 0.79 0.73 0.72 0.77 0.85 0.78 0.63 0.55 0.51 0.49 0.59 0.73 0.72
1.82 1.43 1.33 1.43 1.39 1.40 1.43 1.62 1.83 1.95 1.56 1.26 0.93 0.73 0.69 0.66 0.53 0.46 0.48 0.48 0.47 0.46 0.45 0.55 0.80 1.08 0.98 0.94 0.86 0.83 0.80 0.71 0.71 0.83 1.00 1.05 0.91 0.81 0.76 0.68 0.73 0.79 0.82
1.27 1.36 1.54 1.77 1.79 1.61 1.29 1.08 1.17 1.32 1.30 1.16 1.04 0.75 0.70 0.48 0.38 0.25 0.24 0.34 0.37 0.53 0.51 0.42 0.57 0.64 0.60 0.61 0.71 0.80 0.79 0.87 0.87 0.86 0.96 1.07 1.19 1.16 1.12 1.03 1.03 1.11 1.07
1.22 1.12 1.40 2.15 2.28 1.46 1.01 1.07 1.34 1.35 1.20 1.06 1.45 1.13 0.81 0.54 0.37 0.24 0.19 0.26 0.27 0.33 0.64 0.66 0.48 0.56 0.70 0.52 0.47 0.64 0.84 1.04 1.13 1.10 1.21 1.22 1.20 1.29 1.34 1.30 1.17 1.42 1.46
1.02 1.12 0.94 1.05 1.60 1.87 1.70 1.24 1.24 1.51 1.38 1.28 1.46 1.44 1.29 1.22 0.73 0.40 0.35 0.24 0.23 0.31 0.30 0.45 0.56 0.46 0.56 0.80 0.45 0.45 0.80 1.11 1.26 1.35 1.67 1.78 1.52 1.49 1.65 1.79 1.89 1.82 2.01
0.98 1.08 1.05 0.96 1.13 1.77 1.77 1.34 0.99 1.16 1.59 1.50 1.38 1.48 1.50 1.04 0.71 0.46 0.44 0.37 0.32 0.33 0.35 0.36 0.40 0.45 0.43 0.69 1.04 0.62 0.48 0.86 1.28 1.52 1.66 2.13 2.24 1.86 1.77 1.80 1.96 1.98 1.88
1.09 0.96 1.14 1.17 1.07 1.07 1.37 1.36 1.10 0.99 1.51 1.50 2.00 1.41 1.03 1.06 1.29 1.00 0.72 0.63 0.57 0.42 0.36 0.46 0.47 0.41 0.44 0.48 0.68 0.99 0.71 0.56 0.84 1.25 1.78 2.15 2.24 2.22 2.17 2.01 1.84 1.94 2.04
1.29 1.33 1.30 1.45 1.51 1.61 1.23 1.74 1.64 1.52 1.65 1.38 0.94 1.18 1.43 1.40 1.67 1.70 1.20 0.82 0.94 0.73 0.63 0.60 0.77 0.65 0.61 0.70 0.69 0.68 0.81 0.80 0.81 1.04 1.31 1.66 2.11 2.10 1.94 2.32 2.83 2.43 2.08
1.35 1.33 1.34 1.35 1.29 1.36 1.51 1.79 2.17 2.18 2.20 1.97 1.52 1.36 1.39 1.40 1.16 1.54 1.73 1.27 1.19 1.13 1.14 1.49 1.28 1.09 0.98 0.96 1.04 1.13 1.03 1.00 1.04 1.03 1.10 1.54 2.04 2.41 2.62 2.44 2.51 3.29 3.44
1.59 1.09 1.21 1.23 1.19 1.00 1.09 1.42 1.91 2.13 2.52 2.69 2.52 2.02 1.66 1.50 1.47 1.64 1.79 1.72 1.62 1.34 1.38 1.50 1.38 1.31 1.40 1.57 1.50 1.62 1.45 1.29 1.37 1.57 1.55 1.63 1.78 2.05 2.55 2.59 2.57 2.68 3.12
1.19 0.95 1.13 1.29 1.25 1.29 1.34 1.33 1.51 1.53 1.65 2.02 2.80 3.32 3.41 2.63 2.33 2.47 2.55 2.80 2.84 2.37 2.00 1.35 1.04 1.05 1.08 1.32 1.52 2.03 1.86 1.78 1.70 1.78 1.81 1.72 1.67 1.87 2.16 2.69 2.97 2.88 2.96
1.43 1.36 1.61 1.62 1.58 1.48 1.46 1.52 1.45 1.41 1.51 1.57 1.64 1.94 2.19 2.24 2.20 2.16 2.33 2.71 3.54 3.31 2.49 1.83 1.21 1.03 1.06 1.33 1.56 1.67 1.54 1.60 1.72 1.69 1.87 1.99 1.97 1.93 1.91 1.94 2.20 2.48 2.70
2.19 2.39 2.38 2.17 2.28 2.22 2.11 2.06 1.84 1.70 1.84 1.81 1.66 1.56 1.52 1.50 1.50 1.55 1.76 2.24 3.05 3.37 2.76 1.72 1.36 1.08 1.24 1.42 1.65 1.63 2.04 2.46 1.85 1.71 1.72 2.03 2.17 2.06 1.96 1.92 1.88 2.10 2.33
2.60 2.51 2.70 2.68 2.25 2.35 2.62 2.81 2.85 2.61 2.10 1.88 1.82 1.71 1.40 1.30 1.48 1.77 2.01 2.27 2.53 2.99 3.09 2.18 1.74 1.56 1.71 1.88 1.93 1.93 1.97 1.96 2.21 2.18 1.71 1.49 1.72 2.10 2.27 2.38 2.33 2.18 2.22
1.99 1.95 2.15 2.34 2.29 2.44 2.60 2.65 2.72 2.59 2.35 2.36 2.48 2.36 2.08 2.03 1.99 2.08 2.34 2.31 2.35 2.57 2.79 2.39 1.88 1.67 1.74 2.02 2.09 1.74 1.58 1.41 1.40 1.81 2.16 2.00 1.79 1.87 2.09 2.36 2.91 2.74 2.50
2.85 2.70 2.75 2.87 2.63 2.66 3.00 3.07 3.00 2.78 2.56 2.57 2.48 2.42 2.24 2.28 2.30 2.42 2.52 2.66 2.54 2.41 2.66 2.90 2.40 2.11 2.05 1.99 2.05 1.95 1.72 1.59 1.51 1.74 1.83 1.97 2.05 1.91 1.98 2.04 2.14 2.35 2.19
2.07 2.31 2.32 2.36 2.43 2.51 2.58 2.89 3.10 3.26 2.90 2.65 2.50 2.35 2.53 2.50 2.31 2.16 2.28 2.42 2.32 2.28 2.41 2.64 2.65 2.57 2.50 2.40 2.28 2.09 2.02 1.81 1.76 1.69 1.80 1.74 1.73 1.69 1.90 2.12 2.16 2.00 1.93
1.51 1.49 1.52 1.75 1.91 2.10 2.41 2.41 2.59 2.85 2.83 2.76 2.59 2.48 2.48 2.82 2.73 2.55 2.39 2.33 2.27 2.44 2.41 2.50 2.64 2.40 2.23 2.35 2.36 2.13 1.89 2.08 2.20 1.83 1.83 1.92 1.80 1.91 1.90 1.95 2.06 2.07 2.18
1.49 1.62 1.46 1.59 1.94 1.99 2.54 2.50 2.44 2.65 2.80 2.80 2.89 2.79 2.90 3.22 2.93 3.03 2.77 2.44 2.28 2.40 2.34 2.12 2.14 2.23 1.99 1.66 1.71 1.89 2.28 2.55 2.81 2.42 2.20 2.56 2.23 2.28 2.20 2.17 2.60 2.24 2.05
2.05 1.87 2.03 1.98 1.95 1.91 2.56 2.55 2.59 2.36 2.77 2.82 2.78 2.70 2.80 2.92 3.11 2.72 3.12 2.91 2.65 2.74 2.47 2.20 2.12 1.90 1.92 1.91 2.12 2.30 2.22 2.23 2.23 2.09 2.22 3.02 2.71 2.68 2.49 2.50 2.76 2.27 2.21
2.62 2.27 2.14 2.11 1.95 2.59 2.76 3.02 3.36 2.82 2.50 2.66 2.82 2.62 2.53 2.56 2.80 2.81 2.73 2.93 2.82 2.79 2.99 2.97 2.90 3.01 3.02 2.93 2.90 2.91 3.01 3.38 3.48 3.29 2.79 3.25 3.11 2.91 2.64 2.59 2.96 2.31 2.16
3.08 2.85 2.41 2.20 2.25 2.30 2.30 1.93 2.07 2.28 2.72 3.06 2.97 2.93 3.10 3.00 3.76 3.65 3.19 3.53 3.77 3.99 4.55 4.39 4.19 4.24 4.03 3.63 3.37 3.52 4.27 4.00 4.12 3.93 3.27 3.08 3.12 3.11 3.14 3.22 3.08 2.81 2.34
2.65 2.56 2.56 2.26 2.36 2.18 2.55 2.09 1.79 1.28 1.66 1.98 2.40 2.70 3.52 2.97 3.42 3.14 2.77 2.74 3.43 4.12 3.96 4.19 4.23 4.05 3.81 3.68 3.81 3.24 3.00 3.07 3.29 3.83 3.27 3.01 2.93 2.81 3.54 3.32 2.92 2.72 2.60

GFSMA_prec_precacc_255.txt.gz
Total_Precipitation_Accumulation
0.83 0.64 0.48 0.54 0.48 0.48 0.69 0.93 1.21 1.21 1.24 1.18 1.26 1.16 0.94 0.74 0.85 1.00 1.09 1.43 1.31 1.13 1.14 1.07 0.84 0.93 0.77 0.70 0.71 0.72 0.62 0.50 0.51 0.53 0.46 0.38 0.46 0.56 0.57 0.54 0.56 0.49 0.54
0.79 0.68 0.55 0.54 0.52 0.53 0.64 0.85 1.19 1.29 1.35 1.53 1.30 0.96 0.94 0.67 0.67 1.06 1.75 1.84 1.42 1.38 1.16 1.29 1.50 1.34 1.10 0.99 0.92 0.83 0.65 0.54 0.53 0.47 0.50 0.51 0.50 0.55 0.50 0.47 0.52 0.55 0.54
0.72 0.77 0.75 0.72 0.61 0.60 0.67 0.91 1.16 1.29 1.07 1.02 1.11 1.34 1.56 1.46 0.91 0.60 0.75 0.89 0.91 0.96 1.06 1.40 1.58 1.80 1.95 1.72 1.32 1.01 0.88 0.62 0.54 0.53 0.49 0.48 0.48 0.45 0.47 0.47 0.48 0.56 0.61
1.15 0.98 0.76 0.84 1.01 0.88 0.77 0.89 1.10 1.63 1.50 1.09 0.74 0.77 1.05 1.20 1.09 1.13 0.85 0.71 0.67 0.80 1.18 1.03 1.80 2.48 2.33 1.73 1.24 1.09 0.79 0.73 0.72 0.77 0.85 0.78 0.63 0.55 0.51 0.49 0.59 0.73 0.72
1.82 1.43 1.33 1.43 1.39 1.40 1.43 1.62 1.83 1.95 1.56 1.26 0.93 0.73 0.69 0.66 0.53 0.46 0.48 0.48 0.47 0.46 0.45 0.55 0.80 1.08 0.98 0.94 0.86 0.83 0.80 0.71 0.71 0.83 1.00 1.05 0.91 0.81 0.76 0.68 0.73 0.79 0.82
1.27 1.36 1.54 1.77 1.79 1.61 1.29 1.08 1.17 1.32 1.30 1.16 1.04 0.75 0.70 0.48 0.38 0.25 0.24 0.34 0.37 0.53 0.51 0.42 0.57 0.64 0.60 0.61 0.71 0.80 0.79 0.87 0.87 0.86 0.96 1.07 1.19 1.16 1.12 1.03 1.03 1.11 1.07
1.22 1.12 1.40 2.15 2.28 1.46 1.01 1.07 1.34 1.35 1.20 1.06 1.45 1.13 0.81 0.54 0.37 0.24 0.19 0.26 0.27 0.33 0.64 0.66 0.48 0.56 0.70 0.52 0.47 0.64 0.84 1.04 1.13 1.10 1.21 1.22 1.20 1.29 1.34 1.30 1.17 1.42 1.46
1.02 1.12 0.94 1.05 1.60 1.87 1.70 1.24 1.24 1.51 1.38 1.28 1.46 1.44 1.29 1.22 0.73 0.40 0.35 0.24 0.23 0.31 0.30 0.45 0.56 0.46 0.56 0.80 0.45 0.45 0.80 1.11 1.26 1.35 1.67 1.78 1.52 1.49 1.65 1.79 1.89 1.82 2.01
0.98 1.08 1.05 0.96 1.13 1.77 1.77 1.34 0.99 1.16 1.59 1.50 1.38 1.48 1.50 1.04 0.71 0.46 0.44 0.37 0.32 0.33 0.35 0.36 0.40 0.45 0.43 0.69 1.04 0.62 0.48 0.86 1.28 1.52 1.66 2.13 2.24 1.86 1.77 1.80 1.96 1.98 1.88
1.09 0.96 1.14 1.17 1.07 1.07 1.37 1.36 1.10 0.99 1.51 1.50 2.00 1.41 1.03 1.06 1.29 1.00 0.72 0.63 0.57 0.42 0.36 0.46 0.47 0.41 0.44 0.48 0.68 0.99 0.71 0.56 0.84 1.25 1.78 2.15 2.24 2.22 2.17 2.01 1.84 1.94 2.04
1.29 1.33 1.30 1.45 1.51 1.61 1.23 1.74 1.64 1.52 1.65 1.38 0.94 1.18 1.43 1.40 1.67 1.70 1.20 0.82 0.94 0.73 0.63 0.60 0.77 0.65 0.61 0.70 0.69 0.68 0.81 0.81 0.83 1.05 1.31 1.66 2.11 2.10 1.94 2.32 2.83 2.43 2.08
1.38 1.34 1.34 1.35 1.29 1.36 1.51 1.79 2.17 2.18 2.20 1.97 1.52 1.36 1.39 1.40 1.16 1.54 1.73 1.27 1.19 1.14 1.16 1.50 1.29 1.10 0.99 0.96 1.04 1.13 1.04 1.02 1.10 1.08 1.12 1.55 2.05 2.41 2.62 2.44 2.51 3.29 3.44
1.60 1.15 1.29 1.25 1.20 1.00 1.09 1.42 1.91 2.13 2.52 2.69 2.52 2.04 1.70 1.56 1.54 1.76 1.91 1.77 1.66 1.36 1.39 1.50 1.38 1.31 1.40 1.57 1.50 1.67 1.52 1.37 1.45 1.63 1.59 1.64 1.78 2.05 2.55 2.59 2.57 2.68 3.12
1.20 1.00 1.22 1.38 1.28 1.29 1.34 1.33 1.51 1.53 1.66 2.07 2.89 3.44 3.51 2.70 2.51 2.72 2.79 3.01 2.98 2.42 2.00 1.35 1.04 1.05 1.08 1.32 1.53 2.09 1.93 1.86 1.74 1.81 1.83 1.76 1.74 1.93 2.16 2.69 2.97 2.88 2.96
1.44 1.39 1.64 1.63 1.60 1.50 1.47 1.53 1.45 1.41 1.53 1.61 1.71 2.08 2.32 2.38 2.41 2.40 2.52 2.83 3.63 3.35 2.49 1.84 1.22 1.04 1.07 1.33 1.56 1.67 1.56 1.63 1.79 1.82 2.07 2.20 2.09 1.97 1.91 1.94 2.20 2.48 2.70
2.19 2.41 2.48 2.28 2.34 2.29 2.22 2.18 1.93 1.76 1.92 1.91 1.78 1.73 1.73 1.67 1.65 1.66 1.84 2.31 3.13 3.45 2.79 1.74 1.37 1.09 1.24 1.42 1.67 1.66 2.06 2.54 2.05 1.86 1.76 2.04 2.17 2.06 1.96 1.92 1.88 2.10 2.33
2.65 2.58 2.78 2.94 2.53 2.47 2.67 2.87 2.95 2.86 2.61 2.36 2.20 1.93 1.50 1.41 1.59 1.85 2.08 2.35 2.61 3.07 3.13 2.21 1.77 1.59 1.72 1.89 1.96 1.96 2.00 2.02 2.27 2.22 1.73 1.50 1.72 2.10 2.27 2.38 2.33 2.18 2.22
2.10 2.06 2.26 2.43 2.39 2.51 2.66 2.72 2.83 2.78 2.60 2.66 2.87 2.62 2.19 2.13 2.09 2.17 2.42 2.37 2.41 2.64 2.83 2.43 1.91 1.68 1.75 2.04 2.13 1.79 1.63 1.46 1.47 1.95 2.33 2.03 1.80 1.87 2.09 2.36 2.91 2.74 2.50
2.87 2.72 2.77 2.90 2.68 2.74 3.05 3.10 3.05 2.86 2.68 2.72 2.62 2.52 2.31 2.38 2.39 2.53 2.62 2.72 2.56 2.43 2.69 2.92 2.42 2.12 2.06 2.01 2.10 2.01 1.79 1.67 1.61 1.86 1.86 1.98 2.06 1.92 1.98 2.05 2.14 2.35 2.19
2.07 2.31 2.32 2.37 2.45 2.54 2.63 2.93 3.15 3.32 3.00 2.71 2.56 2.39 2.57 2.53 2.32 2.19 2.31 2.44 2.34 2.33 2.46 2.69 2.68 2.59 2.52 2.42 2.31 2.13 2.06 1.86 1.81 1.72 1.84 1.78 1.79 1.77 1.98 2.16 2.18 2.01 1.94
1.51 1.49 1.52 1.75 1.91 2.10 2.42 2.42 2.61 2.89 2.91 2.87 2.69 2.55 2.52 2.85 2.76 2.58 2.42 2.35 2.31 2.50 2.48 2.57 2.68 2.43 2.26 2.38 2.37 2.15 1.95 2.16 2.27 1.88 1.92 2.10 1.98 2.00 1.94 1.97 2.10 2.13 2.22
1.49 1.62 1.46 1.59 1.94 1.99 2.54 2.50 2.44 2.65 2.80 2.80 2.91 2.82 2.94 3.26 2.95 3.05 2.81 2.51 2.35 2.46 2.39 2.18 2.17 2.25 2.00 1.68 1.72 1.91 2.32 2.62 2.92 2.58 2.39 2.69 2.28 2.32 2.25 2.23 2.69 2.33 2.08
2.05 1.87 2.03 1.98 1.95 1.91 2.56 2.55 2.59 2.36 2.77 2.82 2.78 2.70 2.80 2.92 3.12 2.72 3.13 2.94 2.67 2.77 2.50 2.23 2.14 1.91 1.93 1.92 2.12 2.31 2.24 2.26 2.27 2.13 2.27 3.08 2.76 2.72 2.58 2.66 2.84 2.28 2.21
2.62 2.27 2.14 2.11 1.95 2.59 2.76 3.02 3.36 2.82 2.50 2.66 2.82 2.62 2.53 2.56 2.80 2.82 2.73 2.93 2.82 2.80 3.01 2.99 2.91 3.01 3.02 2.93 2.90 2.91 3.01 3.40 3.51 3.31 2.80 3.25 3.12 2.95 2.69 2.61 2.96 2.31 2.16
3.08 2.85 2.41 2.20 2.25 2.30 2.30 1.93 2.08 2.28 2.72 3.06 2.97 2.93 3.10 3.00 3.76 3.65 3.19 3.53 3.78 3.99 4.57 4.41 4.20 4.25 4.05 3.64 3.37 3.53 4.27 4.00 4.12 3.93 3.28 3.11 3.17 3.18 3.18 3.23 3.08 2.81 2.34
2.65 2.56 2.56 2.26 2.36 2.18 2.55 2.09 1.79 1.28 1.66 1.98 2.40 2.70 3.52 2.97 3.42 3.15 2.77 2.74 3.43 4.12 3.96 4.19 4.24 4.06 3.82 3.68 3.82 3.24 3.00 3.07 3.30 3.86 3.30 3.05 2.97 2.83 3.55 3.32 2.92 2.72 2.60

GFSMA_prec_precacc_258.txt.gz
Total_Precipitation_Accumulation
0.83 0.64 0.48 0.54 0.48 0.48 0.69 0.93 1.21 1.21 1.24 1.18 1.26 1.16 0.94 0.74 0.85 1.00 1.09 1.43 1.31 1.13 1.14 1.07 0.84 0.93 0.77 0.70 0.71 0.72 0.62 0.50 0.51 0.53 0.46 0.38 0.46 0.56 0.57 0.54 0.56 0.49 0.54
0.79 0.68 0.55 0.54 0.52 0.53 0.64 0.85 1.19 1.29 1.35 1.53 1.30 0.96 0.94 0.67 0.67 1.06 1.75 1.84 1.42 1.38 1.16 1.29 1.50 1.35 1.12 1.01 0.92 0.83 0.65 0.55 0.53 0.47 0.50 0.51 0.50 0.55 0.50 0.47 0.52 0.55 0.54
0.72 0.77 0.75 0.72 0.61 0.60 0.67 0.91 1.16 1.29 1.07 1.02 1.11 1.34 1.56 1.46 0.91 0.60 0.75 0.89 0.91 0.96 1.06 1.40 1.58 1.80 1.95 1.73 1.33 1.01 0.88 0.62 0.54 0.53 0.49 0.48 0.48 0.45 0.47 0.47 0.48 0.56 0.61
1.15 0.98 0.76 0.84 1.01 0.88 0.77 0.89 1.10 1.63 1.50 1.09 0.74 0.77 1.05 1.20 1.09 1.13 0.85 0.71 0.67 0.80 1.18 1.03 1.80 2.48 2.33 1.73 1.24 1.09 0.79 0.73 0.72 0.77 0.85 0.78 0.63 0.55 0.51 0.49 0.59 0.73 0.72
1.82 1.43 1.33 1.43 1.39 1.40 1.43 1.62 1.83 1.95 1.56 1.26 0.93 0.73 0.69 0.66 0.53 0.46 0.48 0.48 0.47 0.46 0.45 0.55 0.80 1.08 0.98 0.95 0.87 0.83 0.80 0.71 0.71 0.83 1.00 1.05 0.91 0.81 0.76 0.68 0.73 0.79 0.82
1.27 1.36 1.54 1.77 1.79 1.61 1.29 1.08 1.17 1.32 1.30 1.16 1.04 0.75 0.70 0.48 0.38 0.25 0.24 0.34 0.37 0.53 0.51 0.42 0.57 0.64 0.60 0.61 0.71 0.80 0.79 0.87 0.87 0.86 0.96 1.07 1.19 1.16 1.12 1.03 1.03 1.11 1.07
1.22 1.12 1.40 2.15 2.28 1.46 1.01 1.07 1.34 1.35 1.20 1.06 1.45 1.13 0.81 0.54 0.37 0.24 0.19 0.26 0.27 0.33 0.64 0.66 0.48 0.56 0.70 0.52 0.47 0.64 0.84 1.04 1.13 1.10 1.21 1.22 1.20 1.29 1.34 1.30 1.17 1.42 1.46
1.02 1.12 0.94 1.05 1.60 1.87 1.70 1.24 1.24 1.51 1.38 1.28 1.46 1.44 1.29 1.22 0.73 0.40 0.35 0.24 0.23 0.31 0.30 0.45 0.56 0.46 0.56 0.80 0.45 0.45 0.80 1.11 1.26 1.35 1.67 1.78 1.52 1.49 1.65 1.79 1.89 1.82 2.01
0.98 1.08 1.05 0.96 1.13 1.77 1.77 1.34 0.99 1.16 1.59 1.50 1.38 1.48 1.50 1.04 0.71 0.46 0.44 0.37 0.32 0.33 0.35 0.36 0.40 0.45 0.43 0.69 1.04 0.62 0.48 0.86 1.28 1.52 1.66 2.13 2.24 1.86 1.77 1.80 1.96 1.98 1.88
1.09 0.96 1.14 1.17 1.07 1.07 1.37 1.36 1.10 0.99 1.51 1.50 2.00 1.41 1.03 1.06 1.29 1.00 0.72 0.63 0.57 0.42 0.36 0.46 0.47 0.41 0.44 0.48 0.68 0.99 0.71 0.56 0.84 1.25 1.78 2.15 2.24 2.22 2.17 2.01 1.84 1.94 2.04
1.29 1.33 1.30 1.45 1.51 1.61 1.23 1.74 1.64 1.52 1.65 1.38 0.94 1.18 1.43 1.40 1.67 1.70 1.20 0.82 0.94 0.73 0.63 0.60 0.77 0.65 0.61 0.70 0.69 0.68 0.82 0.81 0.83 1.07 1.35 1.68 2.11 2.10 1.94 2.32 2.83 2.43 2.08
1.41 1.35 1.35 1.35 1.29 1.36 1.51 1.79 2.17 2.18 2.20 1.97 1.52 1.36 1.39 1.40 1.16 1.54 1.73 1.27 1.19 1.14 1.17 1.51 1.29 1.11 0.99 0.97 1.06 1.15 1.06 1.07 1.16 1.12 1.18 1.58 2.06 2.42 2.62 2.45 2.51 3.29 3.44
1.63 1.21 1.38 1.31 1.22 1.00 1.09 1.42 1.91 2.13 2.52 2.69 2.52 2.04 1.70 1.56 1.54 1.76 1.92 1.77 1.67 1.38 1.43 1.54 1.40 1.32 1.41 1.58 1.52 1.71 1.58 1.42 1.52 1.66 1.60 1.65 1.82 2.10 2.59 2.61 2.58 2.68 3.12
1.20 1.00 1.23 1.41 1.31 1.32 1.36 1.33 1.51 1.53 1.66 2.07 2.90 3.45 3.52 2.71 2.53 2.73 2.81 3.06 3.04 2.48 2.04 1.36 1.06 1.08 1.12 1.36 1.57 2.16 1.99 1.92 1.80 1.84 1.86 1.79 1.82 2.03 2.26 2.74 2.98 2.88 2.96
1.44 1.39 1.65 1.64 1.60 1.50 1.48 1.53 1.45 1.41 1.53 1.62 1.71 2.08 2.34 2.39 2.43 2.42 2.57 2.89 3.73 3.43 2.51 1.85 1.24 1.07 1.11 1.37 1.57 1.70 1.59 1.66 1.85 1.89 2.16 2.29 2.18 2.06 1.94 1.95 2.20 2.48 2.70
2.20 2.41 2.48 2.28 2.35 2.29 2.23 2.19 1.94 1.76 1.93 1.92 1.80 1.75 1.75 1.70 1.68 1.67 1.86 2.34 3.18 3.53 2.90 1.77 1.40 1.14 1.33 1.50 1.73 1.72 2.10 2.59 2.11 1.92 1.84 2.14 2.27 2.19 2.05 1.97 1.88 2.10 2.33
2.66 2.59 2.80 2.96 2.55 2.49 2.71 2.91 2.98 2.90 2.62 2.37 2.21 1.94 1.51 1.41 1.59 1.86 2.09 2.36 2.64 3.13 3.25 2.24 1.79 1.66 1.83 2.02 2.07 2.05 2.05 2.04 2.29 2.24 1.77 1.58 1.87 2.25 2.35 2.40 2.33 2.18 2.22
2.18 2.13 2.33 2.50 2.45 2.59 2.71 2.78 2.89 2.80 2.61 2.67 2.88 2.63 2.19 2.14 2.10 2.17 2.42 2.39 2.43 2.67 2.86 2.44 1.93 1.73 1.83 2.14 2.20 1.84 1.65 1.50 1.50 1.99 2.38 2.17 1.88 1.89 2.09 2.37 2.94 2.75 2.50
2.88 2.75 2.81 2.97 2.76 2.82 3.12 3.15 3.08 2.88 2.68 2.73 2.65 2.54 2.32 2.38 2.39 2.53 2.63 2.74 2.58 2.47 2.74 2.98 2.46 2.17 2.12 2.07 2.18 2.06 1.83 1.71 1.64 1.90 1.89 2.00 2.07 1.94 2.02 2.09 2.16 2.35 2.19
2.07 2.31 2.33 2.38 2.46 2.56 2.65 2.96 3.16 3.33 3.02 2.73 2.58 2.43 2.62 2.54 2.33 2.20 2.33 2.46 2.38 2.37 2.50 2.74 2.74 2.65 2.56 2.46 2.34 2.16 2.08 1.87 1.82 1.73 1.86 1.81 1.83 1.84 2.05 2.22 2.21 2.02 1.95
1.51 1.49 1.52 1.75 1.91 2.10 2.43 2.44 2.63 2.91 2.94 2.92 2.75 2.61 2.59 2.95 2.84 2.63 2.44 2.38 2.35 2.53 2.51 2.60 2.71 2.47 2.31 2.43 2.40 2.18 1.96 2.17 2.28 1.89 1.93 2.13 2.02 2.04 1.97 2.00 2.13 2.14 2.24
1.49 1.62 1.46 1.59 1.94 1.99 2.54 2.50 2.45 2.65 2.80 2.81 2.93 2.85 2.98 3.32 3.04 3.16 2.88 2.55 2.40 2.50 2.41 2.20 2.20 2.28 2.02 1.70 1.73 1.94 2.34 2.64 2.94 2.59 2.39 2.70 2.29 2.33 2.26 2.24 2.73 2.35 2.08
2.05 1.87 2.03 1.98 1.95 1.91 2.56 2.55 2.59 2.36 2.77 2.82 2.78 2.70 2.80 2.93 3.13 2.74 3.16 2.96 2.69 2.78 2.52 2.24 2.14 1.92 1.95 1.97 2.17 2.34 2.26 2.28 2.27 2.13 2.28 3.09 2.77 2.74 2.60 2.68 2.89 2.29 2.21
2.62 2.27 2.14 2.11 1.95 2.59 2.76 3.02 3.36 2.82 2.50 2.66 2.82 2.62 2.53 2.56 2.80 2.82 2.73 2.93 2.82 2.80 3.01 2.99 2.91 3.01 3.03 2.94 2.91 2.93 3.03 3.41 3.51 3.31 2.81 3.26 3.13 2.97 2.71 2.63 3.00 2.32 2.16
3.09 2.86 2.41 2.20 2.25 2.30 2.30 1.93 2.08 2.28 2.72 3.06 2.97 2.93 3.10 3.00 3.76 3.66 3.19 3.53 3.78 3.99 4.57 4.41 4.20 4.25 4.05 3.65 3.38 3.53 4.27 4.00 4.13 3.93 3.28 3.11 3.17 3.19 3.21 3.26 3.10 2.81 2.34
2.65 2.56 2.56 2.26 2.36 2.18 2.55 2.09 1.79 1.28 1.66 1.98 2.40 2.70 3.52 2.97 3.42 3.15 2.77 2.74 3.43 4.12 3.96 4.20 4.24 4.06 3.82 3.69 3.83 3.25 3.00 3.07 3.30 3.86 3.30 3.05 2.98 2.86 3.59 3.35 2.93 2.72 2.61

GFSMA_prec_precacc_264.txt.gz
Total_Precipitation_Accumulation
0.83 0.64 0.48 0.54 0.48 0.48 0.69 0.93 1.21 1.21 1.24 1.18 1.26 1.16 0.94 0.74 0.85 1.00 1.09 1.43 1.31 1.13 1.14 1.07 0.84 0.93 0.77 0.70 0.71 0.72 0.62 0.50 0.51 0.53 0.47 0.38 0.46 0.56 0.57 0.54 0.56 0.49 0.54
0.79 0.68 0.55 0.54 0.52 0.53 0.64 0.85 1.19 1.29 1.35 1.53 1.30 0.96 0.94 0.67 0.67 1.06 1.75 1.84 1.42 1.38 1.16 1.29 1.50 1.35 1.12 1.02 0.92 0.83 0.65 0.55 0.53 0.47 0.50 0.51 0.50 0.55 0.50 0.47 0.52 0.55 0.54
0.72 0.77 0.75 0.72 0.61 0.60 0.67 0.91 1.16 1.29 1.07 1.02 1.11 1.34 1.56 1.46 0.91 0.60 0.75 0.89 0.91 0.96 1.06 1.40 1.58 1.80 1.95 1.74 1.33 1.01 0.88 0.62 0.54 0.53 0.49 0.48 0.48 0.45 0.47 0.47 0.48 0.56 0.61
1.15 0.98 0.76 0.84 1.01 0.88 0.77 0.89 1.10 1.63 1.50 1.09 0.74 0.77 1.05 1.20 1.09 1.13 0.85 0.71 0.67 0.80 1.18 1.03 1.80 2.48 2.33 1.73 1.24 1.09 0.79 0.73 0.72 0.77 0.85 0.78 0.63 0.55 0.51 0.49 0.59 0.73 0.72
1.82 1.43 1.33 1.43 1.39 1.40 1.43 1.62 1.83 1.95 1.56 1.26 0.93 0.73 0.69 0.66 0.53 0.46 0.48 0.48 0.47 0.46 0.45 0.55 0.80 1.08 0.98 0.95 0.87 0.83 0.80 0.71 0.71 0.83 1.00 1.05 0.91 0.81 0.76 0.68 0.73 0.79 0.82
1.27 1.36 1.54 1.77 1.79 1.61 1.29 1.08 1.17 1.32 1.30 1.16 1.04 0.75 0.70 0.48 0.38 0.25 0.24 0.34 0.37 0.53 0.51 0.42 0.57 0.64 0.60 0.61 0.71 0.80 0.79 0.87 0.87 0.86 0.96 1.07 1.19 1.16 1.12 1.03 1.03 1.11 1.07
1.22 1.12 1.40 2.15 2.28 1.46 1.01 1.07 1.34 1.35 1.20 1.06 1.45 1.13 0.81 0.54 0.37 0.24 0.19 0.26 0.27 0.33 0.64 0.66 0.48 0.56 0.70 0.52 0.47 0.64 0.84 1.04 1.13 1.10 1.21 1.22 1.20 1.29 1.34 1.30 1.17 1.42 1.46
1.02 1.12 0.94 1.05 1.60 1.87 1.70 1.24 1.24 1.51 1.38 1.28 1.46 1.44 1.29 1.22 0.73 0.40 0.35 0.24 0.23 0.31 0.30 0.45 0.56 0.46 0.56 0.80 0.45 0.45 0.80 1.11 1.26 1.35 1.67 1.78 1.52 1.49 1.65 1.79 1.89 1.82 2.01
0.98 1.08 1.05 0.96 1.13 1.77 1.77 1.34 0.99 1.16 1.59 1.50 1.38 1.48 1.50 1.04 0.71 0.46 0.44 0.37 0.32 0.33 0.35 0.36 0.40 0.45 0.43 0.69 1.04 0.62 0.48 0.86 1.28 1.52 1.66 2.14 2.26 1.88 1.78 1.82 1.97 1.98 1.88
1.09 0.96 1.14 1.17 1.07 1.07 1.37 1.36 1.10 0.99 1.51 1.50 2.00 1.41 1.03 1.06 1.29 1.00 0.72 0.63 0.57 0.42 0.36 0.46 0.47 0.41 0.44 0.48 0.68 1.00 0.71 0.56 0.87 1.27 1.79 2.17 2.27 2.26 2.23 2.06 1.88 1.97 2.07
1.29 1.33 1.30 1.45 1.51 1.61 1.23 1.74 1.64 1.52 1.65 1.38 0.94 1.18 1.43 1.40 1.67 1.70 1.20 0.82 0.94 0.73 0.63 0.60 0.77 0.65 0.61 0.70 0.69 0.68 0.82 0.84 0.88 1.11 1.37 1.69 2.12 2.17 2.03 2.38 2.90 2.50 2.16
1.41 1.35 1.35 1.35 1.29 1.36 1.51 1.79 2.17 2.18 2.20 1.97 1.52 1.36 1.39 1.40 1.16 1.54 1.73 1.27 1.19 1.14 1.17 1.51 1.29 1.11 1.00 0.97 1.06 1.17 1.10 1.12 1.21 1.19 1.24 1.63 2.13 2.55 2.74 2.56 2.62 3.40 3.52
1.66 1.22 1.39 1.32 1.22 1.00 1.09 1.42 1.91 2.13 2.52 2.69 2.52 2.04 1.70 1.56 1.54 1.76 1.92 1.77 1.67 1.38 1.44 1.54 1.40 1.32 1.42 1.58 1.52 1.71 1.60 1.45 1.56 1.72 1.66 1.72 1.91 2.22 2.71 2.75 2.73 2.83 3.42
1.22 1.00 1.24 1.42 1.32 1.32 1.36 1.33 1.51 1.53 1.66 2.07 2.90 3.45 3.52 2.71 2.53 2.73 2.82 3.08 3.05 2.48 2.04 1.36 1.06 1.08 1.12 1.36 1.57 2.16 2.00 1.93 1.84 1.89 1.92 1.87 1.91 2.14 2.43 2.95 3.29 3.24 3.24
1.51 1.42 1.66 1.64 1.60 1.50 1.48 1.53 1.46 1.41 1.53 1.62 1.72 2.08 2.34 2.40 2.43 2.42 2.58 2.89 3.74 3.43 2.52 1.85 1.24 1.07 1.11 1.37 1.58 1.70 1.60 1.67 1.87 1.92 2.21 2.37 2.27 2.18 2.18 2.25 2.46 2.62 2.77
2.23 2.48 2.56 2.34 2.36 2.29 2.23 2.19 1.95 1.76 1.94 1.93 1.82 1.76 1.76 1.71 1.68 1.67 1.86 2.34 3.19 3.54 2.91 1.77 1.41 1.14 1.33 1.50 1.74 1.75 2.13 2.60 2.13 1.95 1.89 2.19 2.31 2.25 2.17 2.09 1.98 2.16 2.35
2.66 2.60 2.82 3.02 2.63 2.55 2.78 2.97 3.01 2.92 2.64 2.40 2.24 1.96 1.53 1.45 1.64 1.91 2.14 2.40 2.66 3.15 3.28 2.27 1.82 1.67 1.83 2.03 2.10 2.09 2.10 2.06 2.31 2.29 1.82 1.62 1.90 2.29 2.39 2.44 2.36 2.21 2.26
2.19 2.14 2.34 2.53 2.49 2.66 2.81 2.88 3.01 2.93 2.71 2.75 2.95 2.71 2.24 2.25 2.24 2.28 2.54 2.47 2.50 2.69 2.89 2.45 1.94 1.73 1.84 2.19 2.25 1.89 1.72 1.55 1.54 2.05 2.44 2.21 1.91 1.93 2.14 2.42 2.97 2.79 2.54
2.89 2.76 2.83 3.01 2.81 2.87 3.20 3.26 3.21 3.07 2.87 2.86 2.75 2.64 2.41 2.52 2.51 2.65 2.76 2.87 2.70 2.59 2.81 3.01 2.47 2.17 2.14 2.13 2.23 2.13 1.91 1.78 1.70 1.96 1.93 2.05 2.11 1.98 2.05 2.12 2.19 2.39 2.22
2.07 2.31 2.33 2.38 2.48 2.58 2.68 3.00 3.23 3.40 3.11 2.87 2.71 2.54 2.72 2.66 2.45 2.31 2.43 2.53 2.47 2.46 2.56 2.77 2.75 2.66 2.57 2.48 2.37 2.20 2.14 1.92 1.85 1.75 1.90 1.85 1.87 1.87 2.08 2.25 2.23 2.04 1.97
1.51 1.49 1.52 1.75 1.91 2.11 2.44 2.45 2.65 2.95 2.99 2.99 2.83 2.71 2.72 3.15 3.03 2.79 2.55 2.44 2.41 2.62 2.61 2.71 2.80 2.50 2.33 2.49 2.54 2.33 2.07 2.24 2.32 1.93 1.96 2.14 2.03 2.05 2.00 2.03 2.15 2.18 2.26
1.49 1.62 1.46 1.59 1.94 1.99 2.55 2.51 2.46 2.66 2.82 2.84 2.98 2.93 3.07 3.46 3.23 3.39 3.11 2.74 2.59 2.73 2.63 2.48 2.37 2.37 2.07 1.77 1.84 2.03 2.42 2.70 2.98 2.61 2.41 2.71 2.31 2.35 2.29 2.26 2.81 2.38 2.10
2.05 1.87 2.03 1.98 1.95 1.91 2.57 2.56 2.60 2.37 2.77 2.82 2.78 2.71 2.82 2.95 3.17 2.80 3.25 3.05 2.80 2.92 2.65 2.38 2.25 2.00 2.03 2.05 2.24 2.38 2.31 2.32 2.30 2.15 2.30 3.12 2.80 2.77 2.63 2.74 2.98 2.32 2.23
2.62 2.27 2.14 2.11 1.96 2.59 2.76 3.02 3.36 2.82 2.50 2.66 2.83 2.62 2.53 2.56 2.80 2.82 2.74 2.94 2.83 2.81 3.03 3.02 2.93 3.03 3.06 2.97 2.95 2.96 3.07 3.47 3.57 3.37 2.85 3.31 3.17 3.01 2.76 2.68 3.11 2.35 2.17
3.09 2.86 2.41 2.20 2.25 2.30 2.30 1.93 2.08 2.28 2.72 3.06 2.97 2.93 3.10 3.00 3.76 3.66 3.19 3.53 3.78 4.00 4.57 4.41 4.20 4.26 4.06 3.67 3.40 3.55 4.29 4.03 4.16 3.96 3.31 3.15 3.21 3.25 3.27 3.31 3.17 2.93 2.37
2.65 2.56 2.56 2.26 2.36 2.18 2.56 2.10 1.80 1.28 1.66 1.98 2.40 2.70 3.52 2.97 3.42 3.15 2.77 2.74 3.43 4.13 3.97 4.20 4.24 4.07 3.83 3.70 3.85 3.26 3.01 3.08 3.33 3.90 3.33 3.10 3.03 2.92 3.68 3.42 2.99 2.79 2.64

GFSMA_prec_precacc_270.txt.gz
Total_Precipitation_Accumulation
0.83 0.64 0.48 0.54 0.48 0.48 0.69 0.93 1.21 1.21 1.24 1.18 1.26 1.16 0.94 0.74 0.85 1.00 1.09 1.43 1.31 1.13 1.14 1.07 0.84 0.93 0.77 0.70 0.71 0.72 0.62 0.50 0.51 0.53 0.47 0.38 0.46 0.56 0.57 0.54 0.56 0.49 0.54
0.79 0.68 0.55 0.54 0.52 0.53 0.64 0.85 1.19 1.29 1.35 1.53 1.30 0.96 0.94 0.67 0.67 1.06 1.75 1.84 1.42 1.38 1.16 1.29 1.50 1.35 1.12 1.02 0.92 0.83 0.65 0.55 0.53 0.47 0.50 0.51 0.50 0.55 0.50 0.47 0.52 0.55 0.54
0.72 0.77 0.75 0.72 0.61 0.60 0.67 0.91 1.16 1.29 1.07 1.02 1.11 1.34 1.56 1.46 0.91 0.60 0.75 0.89 0.91 0.96 1.06 1.40 1.58 1.80 1.95 1.74 1.33 1.01 0.88 0.62 0.54 0.53 0.49 0.48 0.48 0.45 0.47 0.47 0.48 0.56 0.61
1.15 0.98 0.76 0.84 1.01 0.88 0.77 0.89 1.10 1.63 1.50 1.09 0.74 0.77 1.05 1.20 1.09 1.13 0.85 0.71 0.67 0.80 1.18 1.03 1.80 2.48 2.33 1.73 1.24 1.09 0.79 0.73 0.72 0.77 0.85 0.78 0.63 0.55 0.51 0.49 0.59 0.73 0.72
1.82 1.43 1.33 1.43 1.39 1.40 1.43 1.62 1.83 1.95 1.56 1.26 0.93 0.73 0.69 0.66 0.53 0.46 0.48 0.48 0.47 0.46 0.45 0.55 0.80 1.08 0.98 0.95 0.87 0.83 0.80 0.71 0.71 0.83 1.00 1.05 0.91 0.81 0.76 0.68 0.73 0.79 0.82
1.27 1.36 1.54 1.77 1.79 1.61 1.29 1.08 1.17 1.32 1.30 1.16 1.04 0.75 0.70 0.48 0.38 0.25 0.24 0.34 0.37 0.53 0.51 0.42 0.57 0.64 0.60 0.61 0.71 0.80 0.79 0.87 0.87 0.86 0.96 1.07 1.19 1.16 1.12 1.03 1.03 1.11 1.07
1.22 1.12 1.40 2.15 2.28 1.46 1.01 1.07 1.34 1.35 1.20 1.06 1.45 1.13 0.81 0.54 0.37 0.24 0.19 0.26 0.27 0.33 0.64 0.66 0.48 0.56 0.70 0.52 0.47 0.64 0.84 1.04 1.13 1.10 1.21 1.22 1.20 1.29 1.34 1.30 1.17 1.42 1.46
1.02 1.12 0.94 1.05 1.60 1.87 1.70 1.24 1.24 1.51 1.38 1.28 1.46 1.44 1.29 1.22 0.73 0.40 0.35 0.24 0.23 0.31 0.30 0.45 0.56 0.46 0.56 0.80 0.45 0.45 0.80 1.11 1.26 1.35 1.67 1.78 1.52 1.49 1.65 1.79 1.89 1.84 2.07
0.98 1.08 1.05 0.96 1.13 1.77 1.77 1.34 0.99 1.16 1.59 1.50 1.38 1.48 1.50 1.04 0.71 0.46 0.44 0.37 0.32 0.33 0.35 0.36 0.40 0.45 0.43 0.69 1.04 0.62 0.48 0.86 1.28 1.52 1.66 2.14 2.26 1.88 1.78 1.83 2.03 2.13 2.02
1.09 0.96 1.14 1.17 1.07 1.07 1.37 1.36 1.10 0.99 1.51 1.50 2.00 1.41 1.03 1.06 1.29 1.00 0.72 0.63 0.57 0.42 0.36 0.46 0.47 0.41 0.44 0.48 0.68 1.00 0.71 0.56 0.87 1.27 1.79 2.17 2.27 2.27 2.26 2.13 1.97 2.11 2.20
1.30 1.33 1.30 1.45 1.51 1.61 1.23 1.74 1.64 1.52 1.65 1.38 0.94 1.18 1.43 1.40 1.67 1.70 1.20 0.82 0.94 0.73 0.63 0.60 0.77 0.65 0.61 0.70 0.69 0.68 0.82 0.84 0.88 1.11 1.37 1.71 2.21 2.28 2.12 2.46 2.97 2.58 2.23
1.54 1.39 1.37 1.37 1.29 1.36 1.51 1.79 2.17 2.18 2.20 1.97 1.52 1.36 1.39 1.40 1.16 1.54 1.73 1.27 1.19 1.14 1.17 1.51 1.29 1.11 1.00 0.97 1.06 1.17 1.10 1.12 1.21 1.19 1.25 1.73 2.26 2.67 2.83 2.61 2.68 3.45 3.56
2.34 1.87 1.79 1.47 1.26 1.01 1.10 1.42 1.91 2.13 2.52 2.69 2.52 2.04 1.70 1.56 1.54 1.76 1.92 1.77 1.67 1.38 1.44 1.54 1.40 1.32 1.42 1.58 1.52 1.72 1.61 1.49 1.60 1.77 1.72 1.77 1.94 2.25 2.75 2.78 2.76 2.86 3.45
2.48 2.39 2.46 2.38 1.93 1.63 1.48 1.38 1.53 1.54 1.66 2.07 2.90 3.45 3.52 2.71 2.53 2.73 2.82 3.08 3.05 2.48 2.04 1.36 1.06 1.08 1.12 1.36 1.57 2.22 2.06 2.05 1.95 1.96 1.96 1.88 1.91 2.15 2.43 2.95 3.30 3.27 3.28
2.19 2.31 2.73 2.60 2.57 2.50 2.48 2.20 1.74 1.56 1.62 1.65 1.74 2.09 2.34 2.41 2.43 2.42 2.58 2.89 3.74 3.43 2.52 1.85 1.24 1.07 1.11 1.37 1.59 1.77 1.68 1.74 1.90 1.95 2.24 2.38 2.27 2.19 2.19 2.27 2.49 2.66 2.82
2.68 3.10 3.32 3.14 3.16 3.12 3.17 3.28 2.81 2.38 2.45 2.24 2.01 1.88 1.81 1.75 1.72 1.70 1.88 2.34 3.19 3.54 2.91 1.77 1.41 1.14 1.33 1.50 1.74 1.79 2.16 2.61 2.14 1.99 1.90 2.19 2.32 2.25 2.17 2.11 2.01 2.19 2.41
2.96 2.97 3.32 3.59 3.28 3.30 3.61 3.80 3.82 3.62 3.29 2.98 2.84 2.57 1.93 1.70 1.76 1.99 2.20 2.44 2.68 3.16 3.28 2.27 1.84 1.71 1.84 2.03 2.10 2.09 2.11 2.07 2.31 2.29 1.82 1.63 1.90 2.30 2.40 2.45 2.39 2.24 2.29
2.54 2.64 2.91 3.09 3.18 3.54 3.73 3.81 3.90 3.79 3.56 3.51 3.66 3.43 2.93 2.77 2.59 2.53 2.72 2.57 2.56 2.74 2.93 2.47 1.98 1.78 1.89 2.25 2.27 1.95 1.78 1.59 1.56 2.05 2.45 2.21 1.92 1.94 2.15 2.44 2.99 2.81 2.57
2.91 2.83 2.98 3.26 3.13 3.24 3.64 3.98 4.10 4.02 3.94 3.93 3.72 3.48 3.14 3.14 3.08 3.16 3.15 3.11 2.87 2.75 2.98 3.17 2.53 2.21 2.24 2.23 2.30 2.18 1.96 1.86 1.78 2.00 1.94 2.06 2.13 2.00 2.07 2.15 2.22 2.41 2.24
2.07 2.32 2.34 2.41 2.52 2.67 2.80 3.15 3.40 3.62 3.43 3.37 3.46 3.38 3.56 3.50 3.17 2.90 2.96 3.01 2.96 2.94 3.08 3.35 3.31 2.98 2.81 2.69 2.64 2.46 2.36 2.15 2.01 1.88 2.03 1.90 1.89 1.89 2.10 2.27 2.25 2.05 1.98
1.51 1.49 1.52 1.75 1.91 2.11 2.45 2.47 2.68 2.99 3.09 3.10 2.97 2.91 3.04 3.67 3.75 3.58 3.45 3.39 3.34 3.51 3.27 3.30 3.48 3.11 2.82 3.03 3.12 2.87 2.44 2.46 2.49 2.07 2.04 2.17 2.04 2.06 2.02 2.05 2.17 2.19 2.27
1.49 1.62 1.46 1.59 1.94 1.99 2.55 2.51 2.46 2.66 2.82 2.85 3.00 2.96 3.12 3.53 3.33 3.58 3.39 3.05 2.89 3.05 2.97 2.88 2.88 2.91 2.60 2.23 2.20 2.31 2.63 2.86 3.13 2.73 2.55 2.84 2.40 2.39 2.30 2.28 2.85 2.39 2.11
2.05 1.87 2.03 1.98 1.95 1.91 2.57 2.56 2.60 2.37 2.77 2.83 2.78 2.71 2.82 2.95 3.17 2.80 3.27 3.12 2.88 3.01 2.75 2.51 2.42 2.23 2.28 2.29 2.44 2.54 2.51 2.59 2.64 2.53 2.70 3.51 3.14 3.04 2.76 2.81 3.04 2.33 2.23
2.62 2.27 2.14 2.11 1.96 2.60 2.76 3.02 3.36 2.82 2.50 2.66 2.83 2.63 2.53 2.56 2.80 2.82 2.74 2.94 2.83 2.81 3.04 3.03 2.94 3.06 3.10 3.02 3.00 3.02 3.17 3.60 3.70 3.48 2.93 3.38 3.23 3.06 2.80 2.72 3.18 2.36 2.18
3.09 2.86 2.41 2.20 2.25 2.30 2.30 1.93 2.08 2.28 2.72 3.06 2.97 2.93 3.10 3.00 3.76 3.66 3.19 3.53 3.78 4.00 4.57 4.42 4.21 4.26 4.06 3.67 3.40 3.55 4.29 4.04 4.18 3.97 3.32 3.16 3.23 3.26 3.29 3.32 3.20 2.97 2.39
2.65 2.56 2.56 2.26 2.36 2.18 2.56 2.10 1.80 1.28 1.66 1.98 2.40 2.70 3.52 2.97 3.42 3.15 2.77 2.74 3.43 4.14 3.98 4.21 4.25 4.07 3.83 3.70 3.85 3.27 3.02 3.09 3.35 3.91 3.33 3.11 3.05 2.94 3.71 3.43 3.00 2.81 2.67

GFSMA_prec_precacc_276.txt.gz
Total_Precipitation_Accumulation
0.83 0.64 0.48 0.54 0.48 0.48 0.69 0.93 1.21 1.21 1.24 1.18 1.26 1.16 0.94 0.74 0.85 1.00 1.09 1.43 1.31 1.13 1.14 1.07 0.84 0.93 0.77 0.70 0.71 0.72 0.62 0.50 0.51 0.53 0.47 0.38 0.46 0.56 0.57 0.54 0.56 0.49 0.54
0.79 0.68 0.55 0.54 0.52 0.53 0.64 0.85 1.19 1.29 1.35 1.53 1.30 0.96 0.94 0.67 0.67 1.06 1.75 1.84 1.42 1.38 1.16 1.29 1.50 1.35 1.12 1.02 0.92 0.83 0.65 0.55 0.53 0.47 0.50 0.51 0.50 0.55 0.50 0.47 0.52 0.55 0.54
0.72 0.77 0.75 0.72 0.61 0.60 0.67 0.91 1.16 1.29 1.07 1.02 1.11 1.34 1.56 1.46 0.91 0.60 0.75 0.89 0.91 0.96 1.06 1.40 1.58 1.80 1.95 1.74 1.33 1.01 0.88 0.62 0.54 0.53 0.49 0.48 0.48 0.45 0.47 0.47 0.48 0.56 0.61
1.15 0.98 0.76 0.84 1.01 0.88 0.77 0.89 1.10 1.63 1.50 1.09 0.74 0.77 1.05 1.20 1.09 1.13 0.85 0.71 0.67 0.80 1.18 1.03 1.80 2.48 2.33 1.73 1.24 1.09 0.79 0.73 0.72 0.77 0.85 0.78 0.63 0.55 0.51 0.49 0.59 0.73 0.72
1.82 1.43 1.33 1.43 1.39 1.40 1.43 1.62 1.83 1.95 1.56 1.26 0.93 0.73 0.69 0.66 0.53 0.46 0.48 0.48 0.47 0.46 0.45 0.55 0.80 1.08 0.98 0.95 0.87 0.83 0.80 0.71 0.71 0.83 1.00 1.05 0.91 0.81 0.76 0.68 0.73 0.79 0.82
1.27 1.36 1.54 1.77 1.79 1.61 1.29 1.08 1.17 1.32 1.30 1.16 1.04 0.75 0.70 0.48 0.38 0.25 0.24 0.34 0.37 0.53 0.51 0.42 0.57 0.64 0.60 0.61 0.71 0.80 0.79 0.87 0.87 0.86 0.96 1.07 1.19 1.16 1.12 1.03 1.03 1.11 1.07
1.23 1.12 1.40 2.15 2.28 1.46 1.01 1.07 1.34 1.35 1.20 1.06 1.45 1.13 0.81 0.54 0.37 0.24 0.19 0.26 0.27 0.33 0.64 0.66 0.48 0.56 0.70 0.52 0.47 0.64 0.84 1.04 1.13 1.10 1.21 1.22 1.20 1.29 1.34 1.30 1.17 1.42 1.47
1.03 1.15 0.94 1.05 1.60 1.87 1.70 1.24 1.24 1.51 1.38 1.28 1.46 1.44 1.29 1.22 0.73 0.40 0.35 0.24 0.23 0.31 0.30 0.45 0.56 0.46 0.56 0.80 0.45 0.45 0.80 1.11 1.26 1.35 1.67 1.78 1.52 1.49 1.65 1.79 1.89 1.85 2.09
1.01 1.10 1.07 0.98 1.13 1.77 1.77 1.34 0.99 1.16 1.59 1.50 1.38 1.48 1.50 1.04 0.71 0.46 0.44 0.37 0.32 0.33 0.35 0.36 0.40 0.45 0.43 0.69 1.04 0.62 0.48 0.86 1.28 1.52 1.66 2.14 2.26 1.88 1.78 1.83 2.04 2.16 2.05
1.13 0.98 1.15 1.19 1.11 1.08 1.38 1.36 1.10 0.99 1.51 1.50 2.00 1.41 1.03 1.06 1.29 1.00 0.72 0.63 0.57 0.42 0.36 0.46 0.47 0.41 0.44 0.48 0.68 1.00 0.71 0.56 0.87 1.27 1.79 2.17 2.27 2.27 2.26 2.15 1.98 2.13 2.21
1.41 1.39 1.36 1.51 1.58 1.69 1.28 1.76 1.65 1.53 1.66 1.39 0.94 1.18 1.43 1.40 1.67 1.70 1.20 0.82 0.94 0.73 0.63 0.60 0.77 0.65 0.61 0.70 0.69 0.68 0.82 0.84 0.88 1.11 1.37 1.71 2.21 2.29 2.14 2.48 2.99 2.60 2.24
1.92 1.72 1.63 1.56 1.49 1.59 1.72 1.96 2.29 2.27 2.24 2.00 1.56 1.39 1.40 1.40 1.17 1.55 1.73 1.27 1.19 1.14 1.17 1.51 1.29 1.11 1.00 0.97 1.06 1.17 1.10 1.12 1.21 1.19 1.25 1.73 2.26 2.69 2.88 2.64 2.70 3.46 3.57
3.02 2.65 2.54 2.11 1.84 1.62 1.69 2.03 2.61 2.76 2.83 2.81 2.61 2.11 1.76 1.61 1.56 1.78 1.94 1.78 1.67 1.38 1.44 1.54 1.40 1.32 1.42 1.58 1.52 1.72 1.61 1.49 1.60 1.77 1.72 1.77 1.96 2.28 2.78 2.81 2.78 2.86 3.45
2.84 2.74 2.95 3.19 3.07 2.79 2.54 2.31 2.38 2.41 2.42 2.53 3.19 3.65 3.68 2.83 2.61 2.79 2.86 3.12 3.08 2.49 2.04 1.36 1.06 1.08 1.12 1.36 1.57 2.22 2.06 2.05 1.95 1.96 1.96 1.90 1.94 2.17 2.45 2.97 3.32 3.28 3.28
2.46 2.58 2.97 2.91 3.06 3.26 3.48 3.46 2.96 2.53 2.32 2.21 2.18 2.40 2.56 2.57 2.58 2.56 2.67 2.97 3.82 3.48 2.53 1.85 1.24 1.07 1.11 1.37 1.59 1.77 1.68 1.74 1.90 1.95 2.26 2.43 2.32 2.21 2.21 2.30 2.52 2.68 2.83
2.75 3.19 3.41 3.24 3.29 3.30 3.48 3.85 3.80 3.46 3.32 2.99 2.67 2.49 2.37 2.19 2.01 1.88 2.02 2.47 3.33 3.66 2.98 1.77 1.41 1.14 1.33 1.50 1.74 1.79 2.16 2.61 2.14 2.00 1.92 2.22 2.34 2.28 2.21 2.15 2.04 2.22 2.44
2.96 2.99 3.35 3.62 3.30 3.33 3.65 3.87 4.03 4.03 3.82 3.77 3.72 3.37 2.71 2.45 2.45 2.56 2.71 2.89 3.08 3.50 3.57 2.40 1.88 1.73 1.84 2.04 2.12 2.11 2.13 2.08 2.33 2.31 1.85 1.65 1.94 2.35 2.45 2.50 2.42 2.27 2.31
2.54 2.64 2.91 3.09 3.18 3.54 3.73 3.81 3.91 3.82 3.63 3.68 3.96 3.80 3.41 3.47 3.44 3.45 3.66 3.51 3.49 3.62 3.85 3.18 2.45 2.15 2.15 2.41 2.40 2.06 1.87 1.68 1.64 2.14 2.53 2.29 2.01 2.01 2.21 2.50 3.04 2.84 2.59
2.91 2.83 2.98 3.26 3.13 3.24 3.64 3.98 4.10 4.02 3.95 3.94 3.75 3.54 3.24 3.35 3.38 3.58 3.83 4.00 3.78 3.74 3.98 4.10 3.27 2.95 2.98 2.96 3.03 2.87 2.62 2.44 2.26 2.48 2.43 2.46 2.53 2.48 2.62 2.70 2.58 2.61 2.31
2.07 2.32 2.34 2.41 2.52 2.67 2.80 3.15 3.40 3.62 3.43 3.37 3.46 3.38 3.57 3.53 3.26 3.01 3.12 3.20 3.17 3.28 3.49 3.88 3.86 3.59 3.39 3.29 3.33 3.29 3.40 3.36 3.41 3.45 3.76 3.49 3.30 2.99 3.00 2.98 2.68 2.30 2.14
1.51 1.49 1.52 1.75 1.91 2.11 2.45 2.47 2.68 2.99 3.09 3.10 2.97 2.91 3.04 3.67 3.76 3.60 3.48 3.42 3.41 3.62 3.49 3.59 3.74 3.48 3.20 3.33 3.41 3.29 3.11 3.25 3.07 2.46 2.39 2.49 2.30 2.24 2.20 2.28 2.49 2.57 2.64
1.49 1.62 1.46 1.59 1.94 1.99 2.55 2.51 2.46 2.66 2.82 2.85 3.00 2.96 3.12 3.53 3.33 3.58 3.39 3.05 2.89 3.07 3.01 2.93 2.93 2.97 2.67 2.33 2.31 2.42 2.72 2.94 3.21 2.80 2.63 3.03 2.69 2.76 2.67 2.57 3.07 2.58 2.30
2.05 1.87 2.03 1.98 1.95 1.91 2.57 2.56 2.60 2.37 2.77 2.83 2.78 2.71 2.82 2.95 3.17 2.80 3.27 3.12 2.88 3.01 2.76 2.52 2.43 2.23 2.28 2.30 2.45 2.56 2.54 2.65 2.71 2.62 2.81 3.65 3.29 3.16 2.92 3.01 3.25 2.50 2.39
2.62 2.27 2.14 2.11 1.96 2.60 2.77 3.02 3.36 2.82 2.50 2.66 2.83 2.63 2.53 2.56 2.80 2.82 2.74 2.94 2.83 2.81 3.04 3.03 2.94 3.06 3.10 3.02 3.01 3.04 3.18 3.62 3.72 3.51 2.99 3.44 3.31 3.16 2.92 2.83 3.35 2.49 2.27
3.09 2.86 2.41 2.20 2.25 2.30 2.30 1.93 2.08 2.28 2.72 3.06 2.97 2.93 3.10 3.00 3.76 3.66 3.19 3.53 3.78 4.00 4.57 4.42 4.21 4.26 4.07 3.68 3.41 3.55 4.29 4.04 4.18 3.97 3.33 3.18 3.25 3.32 3.39 3.44 3.30 3.11 2.51
2.65 2.56 2.56 2.26 2.36 2.18 2.56 2.10 1.80 1.28 1.66 1.98 2.40 2.70 3.52 2.97 3.43 3.15 2.77 2.74 3.43 4.14 3.98 4.21 4.25 4.07 3.83 3.70 3.86 3.27 3.02 3.10 3.35 3.91 3.33 3.12 3.06 2.95 3.71 3.44 3.02 2.85 2.72

GFSMA_prec_precacc_279.txt.gz
Total_Precipitation_Accumulation
0.83 0.64 0.48 0.54 0.48 0.48 0.69 0.93 1.21 1.21 1.24 1.18 1.26 1.16 0.94 0.74 0.85 1.00 1.09 1.43 1.31 1.13 1.14 1.07 0.84 0.93 0.77 0.70 0.71 0.72 0.62 0.50 0.51 0.53 0.47 0.38 0.46 0.56 0.57 0.54 0.56 0.49 0.54
0.79 0.68 0.55 0.54 0.52 0.53 0.64 0.85 1.19 1.29 1.35 1.53 1.30 0.96 0.94 0.67 0.67 1.06 1.75 1.84 1.42 1.38 1.16 1.29 1.50 1.35 1.12 1.02 0.92 0.83 0.65 0.55 0.53 0.47 0.50 0.51 0.50 0.55 0.50 0.47 0.52 0.55 0.54
0.72 0.77 0.75 0.72 0.61 0.60 0.67 0.91 1.16 1.29 1.07 1.02 1.11 1.34 1.56 1.46 0.91 0.60 0.75 0.89 0.91 0.96 1.06 1.40 1.58 1.80 1.95 1.74 1.33 1.01 0.88 0.62 0.54 0.53 0.49 0.48 0.48 0.45 0.47 0.47 0.48 0.56 0.61
1.15 0.98 0.76 0.84 1.01 0.88 0.77 0.89 1.10 1.63 1.50 1.09 0.74 0.77 1.05 1.20 1.09 1.13 0.85 0.71 0.67 0.80 1.18 1.03 1.80 2.48 2.33 1.73 1.24 1.09 0.79 0.73 0.72 0.77 0.85 0.78 0.63 0.55 0.51 0.49 0.59 0.73 0.72
1.82 1.43 1.33 1.43 1.39 1.40 1.43 1.62 1.83 1.95 1.56 1.26 0.93 0.73 0.69 0.66 0.53 0.46 0.48 0.48 0.47 0.46 0.45 0.55 0.80 1.08 0.98 0.95 0.87 0.83 0.80 0.71 0.71 0.83 1.00 1.05 0.91 0.81 0.76 0.68 0.73 0.79 0.82
1.28 1.37 1.55 1.77 1.79 1.61 1.29 1.08 1.17 1.32 1.30 1.16 1.04 0.75 0.70 0.48 0.38 0.25 0.24 0.34 0.37 0.53 0.51 0.42 0.57 0.64 0.60 0.61 0.71 0.80 0.79 0.87 0.87 0.86 0.96 1.07 1.19 1.16 1.12 1.03 1.03 1.11 1.07
1.24 1.14 1.41 2.15 2.28 1.46 1.01 1.07 1.34 1.35 1.20 1.06 1.45 1.13 0.81 0.54 0.37 0.24 0.19 0.26 0.27 0.33 0.64 0.66 0.48 0.56 0.70 0.52 0.47 0.64 0.84 1.04 1.13 1.10 1.21 1.22 1.20 1.29 1.34 1.30 1.17 1.42 1.47
1.06 1.18 0.96 1.05 1.60 1.87 1.70 1.24 1.24 1.51 1.38 1.28 1.46 1.44 1.29 1.22 0.73 0.40 0.35 0.24 0.23 0.31 0.30 0.45 0.56 0.46 0.56 0.80 0.45 0.45 0.80 1.11 1.26 1.35 1.67 1.78 1.52 1.49 1.65 1.79 1.89 1.85 2.09
1.03 1.13 1.08 0.98 1.14 1.78 1.77 1.34 0.99 1.16 1.59 1.50 1.38 1.49 1.50 1.04 0.71 0.46 0.44 0.37 0.32 0.33 0.35 0.36 0.40 0.45 0.43 0.69 1.04 0.62 0.48 0.86 1.28 1.52 1.66 2.14 2.26 1.88 1.78 1.83 2.04 2.16 2.05
1.13 0.99 1.17 1.21 1.13 1.13 1.44 1.41 1.15 1.01 1.53 1.50 2.00 1.41 1.04 1.07 1.29 1.00 0.72 0.63 0.57 0.42 0.36 0.46 0.47 0.41 0.44 0.48 0.68 1.00 0.71 0.56 0.87 1.27 1.79 2.17 2.27 2.27 2.26 2.15 1.98 2.13 2.21
1.41 1.39 1.36 1.52 1.59 1.71 1.34 1.85 1.79 1.72 1.85 1.46 0.98 1.20 1.44 1.40 1.68 1.71 1.20 0.82 0.94 0.73 0.63 0.60 0.77 0.65 0.61 0.70 0.69 0.68 0.82 0.84 0.88 1.11 1.37 1.71 2.21 2.29 2.14 2.48 2.99 2.60 2.24
1.93 1.72 1.64 1.58 1.51 1.61 1.73 1.99 2.41 2.51 2.55 2.29 1.83 1.60 1.54 1.46 1.19 1.56 1.74 1.28 1.19 1.14 1.17 1.51 1.29 1.11 1.00 0.97 1.06 1.17 1.10 1.12 1.21 1.19 1.25 1.73 2.26 2.69 2.88 2.64 2.70 3.46 3.57
3.02 2.65 2.54 2.12 1.86 1.65 1.73 2.09 2.69 2.98 3.34 3.41 3.18 2.67 2.29 2.05 1.88 1.93 2.00 1.81 1.68 1.38 1.44 1.54 1.40 1.32 1.42 1.58 1.52 1.72 1.61 1.49 1.60 1.77 1.72 1.77 1.96 2.28 2.78 2.81 2.78 2.86 3.45
2.84 2.74 2.95 3.20 3.08 2.79 2.55 2.35 2.49 2.55 2.62 2.90 3.65 4.12 4.14 3.32 3.07 3.10 3.07 3.29 3.20 2.52 2.05 1.36 1.06 1.08 1.12 1.36 1.57 2.22 2.06 2.05 1.95 1.96 1.96 1.90 1.94 2.18 2.46 2.98 3.33 3.30 3.29
2.46 2.58 2.97 2.91 3.06 3.26 3.48 3.48 3.01 2.63 2.50 2.44 2.44 2.68 2.88 2.90 2.92 2.86 2.95 3.23 4.01 3.58 2.54 1.85 1.24 1.07 1.11 1.37 1.59 1.77 1.68 1.74 1.90 1.95 2.26 2.43 2.32 2.21 2.21 2.32 2.55 2.72 2.87
2.75 3.19 3.41 3.24 3.29 3.30 3.48 3.85 3.80 3.46 3.34 3.02 2.74 2.59 2.49 2.34 2.18 2.02 2.15 2.60 3.44 3.78 3.06 1.78 1.41 1.14 1.33 1.50 1.74 1.79 2.16 2.61 2.14 2.00 1.92 2.22 2.35 2.29 2.23 2.18 2.09 2.28 2.50
2.96 2.99 3.35 3.62 3.30 3.33 3.65 3.87 4.03 4.03 3.82 3.77 3.72 3.37 2.72 2.47 2.47 2.59 2.76 2.98 3.18 3.63 3.71 2.44 1.88 1.73 1.85 2.04 2.12 2.11 2.13 2.08 2.33 2.31 1.85 1.65 1.95 2.36 2.48 2.54 2.47 2.32 2.36
2.54 2.64 2.91 3.09 3.18 3.54 3.73 3.81 3.91 3.82 3.63 3.68 3.96 3.80 3.41 3.47 3.45 3.45 3.67 3.52 3.51 3.64 3.90 3.20 2.45 2.15 2.15 2.41 2.40 2.06 1.87 1.68 1.64 2.14 2.53 2.30 2.02 2.03 2.24 2.55 3.10 2.91 2.68
2.91 2.83 2.98 3.26 3.13 3.24 3.64 3.98 4.10 4.02 3.95 3.94 3.75 3.54 3.24 3.35 3.39 3.58 3.83 4.00 3.78 3.74 3.99 4.11 3.28 2.95 2.99 2.96 3.03 2.88 2.63 2.44 2.26 2.50 2.44 2.57 2.70 2.66 2.86 3.09 3.28 3.53 3.31
2.07 2.32 2.34 2.41 2.52 2.67 2.80 3.15 3.40 3.62 3.43 3.37 3.46 3.38 3.57 3.53 3.26 3.01 3.12 3.20 3.17 3.28 3.49 3.88 3.86 3.60 3.40 3.30 3.33 3.30 3.41 3.36 3.41 3.46 3.79 3.62 3.50 3.44 3.52 3.54 3.29 2.89 2.70
1.51 1.49 1.52 1.75 1.91 2.11 2.45 2.47 2.68 2.99 3.09 3.10 2.97 2.91 3.04 3.67 3.76 3.60 3.48 3.42 3.41 3.62 3.49 3.59 3.74 3.49 3.21 3.33 3.41 3.30 3.12 3.26 3.08 2.47 2.41 2.51 2.34 2.33 2.32 2.43 2.63 2.71 2.79
1.49 1.62 1.46 1.59 1.94 1.99 2.55 2.51 2.46 2.66 2.82 2.85 3.00 2.96 3.12 3.53 3.33 3.58 3.39 3.05 2.89 3.07 3.01 2.93 2.93 2.97 2.67 2.33 2.31 2.42 2.73 2.97 3.25 2.85 2.68 3.09 2.74 2.81 2.75 2.67 3.25 2.77 2.47
2.05 1.87 2.03 1.98 1.95 1.91 2.57 2.56 2.60 2.37 2.77 2.83 2.78 2.71 2.82 2.95 3.17 2.80 3.27 3.12 2.88 3.01 2.76 2.52 2.43 2.23 2.28 2.30 2.45 2.56 2.54 2.66 2.74 2.66 2.86 3.70 3.36 3.26 3.05 3.16 3.45 2.67 2.55
2.62 2.27 2.14 2.11 1.96 2.60 2.77 3.02 3.36 2.82 2.50 2.66 2.83 2.63 2.53 2.56 2.80 2.82 2.74 2.94 2.83 2.81 3.04 3.03 2.94 3.06 3.10 3.02 3.02 3.04 3.18 3.62 3.72 3.52 3.02 3.49 3.40 3.27 3.05 2.98 3.56 2.66 2.45
3.09 2.86 2.41 2.20 2.25 2.30 2.30 1.93 2.08 2.28 2.72 3.06 2.97 2.93 3.10 3.00 3.76 3.66 3.19 3.53 3.78 4.00 4.57 4.42 4.21 4.26 4.07 3.68 3.41 3.55 4.29 4.05 4.18 3.98 3.34 3.21 3.30 3.43 3.57 3.63 3.52 3.33 2.73
2.65 2.56 2.56 2.26 2.36 2.18 2.56 2.10 1.80 1.28 1.66 1.98 2.40 2.70 3.52 2.97 3.43 3.15 2.78 2.74 3.43 4.14 3.98 4.21 4.25 4.07 3.83 3.70 3.86 3.27 3.02 3.10 3.36 3.92 3.35 3.15 3.08 3.01 3.80 3.55 3.16 3.02 2.94

GFSMA_prec_precacc_282.txt.gz
Total_Precipitation_Accumulation
0.83 0.64 0.48 0.54 0.48 0.48 0.69 0.93 1.21 1.21 1.24 1.18 1.26 1.16 0.94 0.74 0.85 1.00 1.09 1.43 1.31 1.13 1.14 1.07 0.84 0.93 0.77 0.70 0.71 0.72 0.62 0.50 0.51 0.53 0.47 0.38 0.46 0.56 0.57 0.54 0.56 0.49 0.54
0.79 0.68 0.55 0.54 0.52 0.53 0.64 0.85 1.19 1.29 1.35 1.53 1.30 0.96 0.94 0.67 0.67 1.06 1.75 1.84 1.42 1.38 1.16 1.29 1.50 1.35 1.12 1.02 0.92 0.83 0.65 0.55 0.53 0.47 0.50 0.51 0.50 0.55 0.50 0.47 0.52 0.55 0.54
0.72 0.77 0.75 0.72 0.61 0.60 0.67 0.91 1.16 1.29 1.07 1.02 1.11 1.34 1.56 1.46 0.91 0.60 0.75 0.89 0.91 0.96 1.06 1.40 1.58 1.80 1.95 1.74 1.33 1.01 0.88 0.62 0.54 0.53 0.49 0.48 0.48 0.45 0.47 0.47 0.48 0.56 0.61
1.16 0.99 0.76 0.84 1.01 0.88 0.77 0.89 1.10 1.63 1.50 1.09 0.74 0.77 1.05 1.20 1.09 1.13 0.85 0.71 0.67 0.80 1.18 1.03 1.80 2.48 2.33 1.73 1.24 1.09 0.79 0.73 0.72 0.77 0.85 0.78 0.63 0.55 0.51 0.49 0.59 0.73 0.72
1.88 1.48 1.35 1.44 1.40 1.41 1.43 1.63 1.83 1.95 1.56 1.26 0.93 0.73 0.69 0.66 0.53 0.46 0.48 0.48 0.47 0.46 0.45 0.55 0.80 1.08 0.98 0.95 0.87 0.83 0.80 0.71 0.71 0.83 1.00 1.05 0.91 0.81 0.76 0.68 0.73 0.79 0.82
1.35 1.46 1.62 1.82 1.83 1.64 1.31 1.09 1.18 1.32 1.30 1.16 1.04 0.75 0.70 0.48 0.38 0.25 0.24 0.34 0.37 0.53 0.51 0.42 0.57 0.64 0.60 0.61 0.71 0.80 0.79 0.87 0.87 0.86 0.96 1.07 1.19 1.16 1.12 1.03 1.03 1.11 1.07
1.25 1.17 1.46 2.20 2.33 1.50 1.03 1.09 1.35 1.36 1.20 1.07 1.46 1.13 0.81 0.54 0.37 0.24 0.19 0.26 0.27 0.33 0.64 0.66 0.48 0.56 0.70 0.52 0.47 0.64 0.84 1.04 1.13 1.10 1.21 1.22 1.20 1.29 1.34 1.30 1.17 1.42 1.47
1.06 1.20 0.99 1.09 1.64 1.90 1.73 1.26 1.26 1.53 1.39 1.29 1.46 1.45 1.29 1.22 0.73 0.40 0.35 0.24 0.23 0.31 0.30 0.45 0.56 0.46 0.56 0.80 0.45 0.45 0.80 1.11 1.26 1.35 1.67 1.78 1.52 1.49 1.65 1.79 1.89 1.85 2.09
1.03 1.14 1.10 1.02 1.17 1.82 1.83 1.41 1.04 1.21 1.63 1.53 1.41 1.51 1.51 1.04 0.71 0.46 0.44 0.37 0.32 0.33 0.35 0.36 0.40 0.45 0.43 0.69 1.04 0.62 0.48 0.86 1.28 1.52 1.66 2.14 2.26 1.88 1.78 1.83 2.04 2.16 2.05
1.13 0.99 1.17 1.22 1.14 1.15 1.47 1.45 1.21 1.08 1.61 1.58 2.07 1.47 1.09 1.09 1.32 1.01 0.72 0.63 0.57 0.42 0.36 0.46 0.47 0.41 0.44 0.48 0.68 1.00 0.71 0.56 0.87 1.27 1.79 2.17 2.27 2.27 2.26 2.15 1.98 2.13 2.21
1.41 1.39 1.36 1.52 1.59 1.72 1.34 1.86 1.82 1.77 2.00 1.80 1.38 1.55 1.77 1.64 1.84 1.86 1.27 0.83 0.95 0.73 0.63 0.60 0.77 0.65 0.61 0.70 0.69 0.68 0.82 0.84 0.88 1.11 1.37 1.71 2.21 2.29 2.14 2.48 2.99 2.60 2.24
1.93 1.72 1.64 1.58 1.52 1.61 1.74 2.00 2.42 2.53 2.57 2.33 1.95 1.82 1.88 1.86 1.53 1.83 1.95 1.39 1.24 1.17 1.19 1.52 1.30 1.11 1.00 0.97 1.06 1.17 1.10 1.12 1.21 1.19 1.25 1.73 2.26 2.69 2.88 2.64 2.70 3.46 3.57
3.02 2.65 2.54 2.13 1.87 1.65 1.73 2.09 2.69 2.98 3.34 3.41 3.19 2.69 2.32 2.12 2.04 2.21 2.29 2.03 1.83 1.46 1.47 1.56 1.41 1.33 1.43 1.58 1.52 1.72 1.61 1.49 1.60 1.77 1.72 1.77 1.96 2.28 2.78 2.81 2.78 2.86 3.45
2.84 2.74 2.95 3.20 3.08 2.80 2.55 2.35 2.49 2.55 2.62 2.90 3.65 4.14 4.15 3.34 3.09 3.20 3.24 3.44 3.30 2.59 2.09 1.38 1.06 1.08 1.13 1.37 1.58 2.22 2.06 2.05 1.95 1.96 1.96 1.90 1.94 2.18 2.46 2.98 3.33 3.30 3.29
2.46 2.58 2.97 2.91 3.06 3.26 3.48 3.48 3.01 2.63 2.50 2.44 2.44 2.68 2.89 2.91 2.94 2.91 3.03 3.34 4.16 3.68 2.57 1.86 1.24 1.08 1.15 1.41 1.62 1.78 1.68 1.74 1.90 1.95 2.26 2.43 2.32 2.21 2.21 2.32 2.55 2.72 2.87
2.75 3.19 3.41 3.24 3.29 3.30 3.48 3.85 3.80 3.46 3.34 3.02 2.74 2.59 2.49 2.34 2.18 2.03 2.17 2.62 3.49 3.87 3.13 1.79 1.41 1.15 1.34 1.51 1.75 1.80 2.16 2.61 2.14 2.00 1.92 2.22 2.35 2.29 2.23 2.18 2.09 2.28 2.50
2.96 2.99 3.35 3.62 3.30 3.33 3.65 3.87 4.03 4.03 3.82 3.77 3.72 3.37 2.72 2.47 2.47 2.59 2.77 2.98 3.19 3.64 3.73 2.45 1.89 1.74 1.85 2.05 2.13 2.12 2.14 2.09 2.33 2.31 1.85 1.65 1.95 2.36 2.48 2.54 2.47 2.32 2.36
2.54 2.64 2.91 3.09 3.18 3.54 3.73 3.81 3.91 3.82 3.63 3.68 3.96 3.80 3.41 3.47 3.45 3.46 3.67 3.52 3.51 3.65 3.90 3.20 2.46 2.16 2.15 2.42 2.41 2.07 1.88 1.69 1.65 2.15 2.55 2.31 2.03 2.03 2.24 2.55 3.11 2.91 2.68
2.91 2.83 2.98 3.26 3.13 3.24 3.64 3.98 4.10 4.02 3.95 3.94 3.75 3.54 3.24 3.35 3.39 3.58 3.83 4.00 3.79 3.74 4.00 4.12 3.28 2.96 2.99 2.97 3.05 2.89 2.63 2.44 2.27 2.51 2.45 2.57 2.71 2.66 2.87 3.09 3.29 3.53 3.32
2.07 2.32 2.34 2.41 2.52 2.67 2.80 3.15 3.40 3.62 3.43 3.37 3.46 3.38 3.57 3.53 3.26 3.01 3.12 3.20 3.17 3.28 3.49 3.88 3.86 3.60 3.40 3.31 3.34 3.31 3.41 3.37 3.41 3.46 3.80 3.63 3.52 3.45 3.52 3.54 3.31 2.90 2.72
1.51 1.49 1.52 1.75 1.91 2.11 2.45 2.47 2.68 2.99 3.09 3.10 2.97 2.91 3.04 3.67 3.76 3.60 3.48 3.42 3.41 3.62 3.49 3.59 3.74 3.49 3.21 3.34 3.42 3.31 3.12 3.26 3.09 2.47 2.41 2.52 2.35 2.34 2.34 2.45 2.66 2.76 2.84
1.49 1.62 1.46 1.59 1.94 1.99 2.55 2.51 2.46 2.66 2.82 2.85 3.00 2.96 3.12 3.53 3.33 3.58 3.39 3.05 2.89 3.07 3.01 2.93 2.93 2.97 2.68 2.34 2.32 2.42 2.74 2.97 3.25 2.86 2.69 3.09 2.75 2.82 2.76 2.69 3.31 2.84 2.58
2.05 1.87 2.03 1.98 1.95 1.91 2.57 2.56 2.60 2.37 2.77 2.83 2.78 2.71 2.82 2.95 3.17 2.81 3.28 3.12 2.88 3.01 2.77 2.52 2.44 2.24 2.28 2.30 2.45 2.56 2.54 2.66 2.74 2.66 2.86 3.71 3.37 3.27 3.07 3.20 3.53 2.74 2.64
2.62 2.27 2.14 2.11 1.96 2.60 2.77 3.02 3.36 2.82 2.50 2.66 2.83 2.63 2.53 2.56 2.80 2.83 2.74 2.94 2.83 2.81 3.05 3.04 2.95 3.07 3.11 3.03 3.02 3.05 3.19 3.62 3.72 3.52 3.02 3.50 3.41 3.29 3.08 3.02 3.66 2.76 2.55
3.09 2.86 2.41 2.20 2.25 2.30 2.30 1.93 2.08 2.28 2.72 3.06 2.97 2.93 3.10 3.00 3.76 3.66 3.20 3.53 3.78 4.00 4.57 4.42 4.21 4.26 4.07 3.68 3.41 3.56 4.30 4.05 4.18 3.98 3.35 3.21 3.30 3.45 3.61 3.75 3.68 3.47 2.84
2.65 2.56 2.56 2.26 2.36 2.18 2.56 2.10 1.80 1.29 1.66 1.98 2.40 2.70 3.53 2.97 3.43 3.15 2.78 2.75 3.44 4.14 3.98 4.21 4.25 4.07 3.83 3.70 3.86 3.28 3.03 3.11 3.37 3.92 3.36 3.17 3.11 3.03 3.86 3.65 3.32 3.26 3.20

GFSMA_prec_precacc_285.txt.gz
Total_Precipitation_Accumulation
0.83 0.64 0.48 0.54 0.48 0.48 0.69 0.93 1.21 1.21 1.24 1.18 1.26 1.16 0.94 0.74 0.85 1.00 1.09 1.43 1.31 1.13 1.14 1.07 0.84 0.93 0.77 0.70 0.71 0.72 0.62 0.50 0.51 0.53 0.47 0.38 0.46 0.56 0.57 0.54 0.56 0.49 0.54
0.83 0.69 0.55 0.54 0.52 0.53 0.64 0.85 1.19 1.29 1.35 1.53 1.30 0.96 0.94 0.67 0.67 1.06 1.75 1.84 1.42 1.38 1.16 1.29 1.50 1.35 1.12 1.02 0.92 0.83 0.65 0.55 0.53 0.47 0.50 0.51 0.50 0.55 0.50 0.47 0.52 0.55 0.54
0.82 0.83 0.76 0.72 0.61 0.60 0.67 0.91 1.16 1.29 1.07 1.02 1.11 1.34 1.56 1.46 0.91 0.60 0.75 0.89 0.91 0.96 1.06 1.40 1.58 1.80 1.95 1.74 1.33 1.01 0.88 0.62 0.54 0.53 0.49 0.48 0.48 0.45 0.47 0.47 0.48 0.56 0.61
1.24 1.04 0.81 0.89 1.04 0.90 0.78 0.89 1.10 1.63 1.50 1.09 0.74 0.77 1.05 1.20 1.09 1.13 0.85 0.71 0.67 0.80 1.18 1.03 1.80 2.48 2.33 1.73 1.24 1.09 0.79 0.73 0.72 0.77 0.85 0.78 0.63 0.55 0.51 0.49 0.59 0.73 0.72
1.91 1.52 1.42 1.52 1.48 1.47 1.48 1.66 1.85 1.97 1.56 1.26 0.93 0.73 0.69 0.66 0.53 0.46 0.48 0.48 0.47 0.46 0.45 0.55 0.80 1.08 0.98 0.95 0.87 0.83 0.80 0.71 0.71 0.83 1.00 1.05 0.91 0.81 0.76 0.68 0.73 0.79 0.82
1.35 1.48 1.67 1.88 1.90 1.71 1.38 1.15 1.23 1.35 1.31 1.17 1.04 0.75 0.70 0.48 0.38 0.25 0.24 0.34 0.37 0.53 0.51 0.42 0.57 0.64 0.60 0.61 0.71 0.80 0.79 0.87 0.87 0.86 0.96 1.07 1.19 1.16 1.12 1.03 1.03 1.11 1.07
1.25 1.18 1.47 2.23 2.38 1.57 1.10 1.16 1.42 1.42 1.25 1.10 1.48 1.13 0.81 0.54 0.37 0.24 0.19 0.26 0.27 0.33 0.64 0.66 0.48 0.56 0.70 0.52 0.47 0.64 0.84 1.04 1.13 1.10 1.21 1.22 1.20 1.29 1.34 1.30 1.17 1.42 1.47
1.06 1.20 1.00 1.10 1.67 1.96 1.82 1.39 1.38 1.62 1.45 1.36 1.53 1.49 1.30 1.22 0.73 0.40 0.35 0.24 0.23 0.31 0.30 0.45 0.56 0.46 0.56 0.80 0.45 0.45 0.80 1.11 1.26 1.35 1.67 1.78 1.52 1.49 1.65 1.79 1.89 1.85 2.09
1.03 1.14 1.10 1.02 1.18 1.84 1.87 1.50 1.15 1.35 1.76 1.63 1.53 1.70 1.67 1.11 0.77 0.47 0.44 0.37 0.32 0.33 0.35 0.36 0.40 0.45 0.43 0.69 1.04 0.62 0.48 0.86 1.28 1.52 1.66 2.14 2.26 1.88 1.78 1.83 2.04 2.16 2.05
1.13 0.99 1.17 1.22 1.15 1.16 1.48 1.49 1.26 1.15 1.73 1.70 2.19 1.64 1.37 1.35 1.52 1.15 0.78 0.65 0.60 0.47 0.42 0.47 0.47 0.41 0.44 0.48 0.68 1.00 0.71 0.56 0.87 1.27 1.79 2.17 2.27 2.27 2.26 2.15 1.98 2.13 2.21
1.41 1.39 1.36 1.52 1.59 1.72 1.34 1.86 1.83 1.78 2.03 1.85 1.44 1.62 1.83 1.76 2.06 2.19 1.58 1.08 1.23 1.07 0.89 0.70 0.79 0.67 0.63 0.72 0.71 0.69 0.85 0.85 0.88 1.11 1.37 1.71 2.21 2.29 2.14 2.48 2.99 2.60 2.24
1.93 1.72 1.64 1.58 1.52 1.61 1.74 2.00 2.42 2.53 2.58 2.34 1.96 1.86 1.92 1.93 1.62 1.92 2.03 1.44 1.27 1.19 1.21 1.54 1.31 1.14 1.03 1.02 1.13 1.29 1.20 1.13 1.22 1.19 1.25 1.73 2.26 2.69 2.88 2.64 2.70 3.46 3.57
3.02 2.65 2.54 2.13 1.87 1.65 1.73 2.09 2.69 2.98 3.34 3.41 3.19 2.69 2.32 2.13 2.07 2.25 2.36 2.08 1.87 1.47 1.47 1.56 1.41 1.34 1.44 1.61 1.55 1.80 1.70 1.57 1.68 1.77 1.72 1.77 1.96 2.28 2.78 2.81 2.78 2.86 3.45
2.84 2.74 2.95 3.20 3.08 2.80 2.55 2.35 2.49 2.55 2.62 2.90 3.65 4.14 4.15 3.34 3.10 3.21 3.26 3.47 3.31 2.59 2.09 1.38 1.06 1.08 1.15 1.39 1.60 2.24 2.07 2.05 1.95 1.96 1.96 1.90 1.94 2.18 2.46 2.98 3.33 3.30 3.29
2.46 2.58 2.97 2.91 3.06 3.26 3.48 3.48 3.01 2.63 2.50 2.44 2.44 2.68 2.89 2.91 2.94 2.91 3.04 3.35 4.18 3.70 2.57 1.86 1.24 1.09 1.18 1.42 1.63 1.80 1.70 1.75 1.91 1.96 2.26 2.43 2.32 2.21 2.21 2.32 2.55 2.72 2.87
2.75 3.19 3.41 3.24 3.29 3.30 3.48 3.85 3.80 3.46 3.34 3.02 2.74 2.59 2.49 2.34 2.18 2.03 2.17 2.63 3.50 3.89 3.14 1.79 1.41 1.15 1.34 1.51 1.76 1.80 2.16 2.61 2.15 2.00 1.93 2.22 2.35 2.29 2.23 2.18 2.09 2.28 2.50
2.96 2.99 3.35 3.62 3.30 3.33 3.65 3.87 4.03 4.03 3.82 3.77 3.72 3.37 2.72 2.47 2.47 2.59 2.77 2.98 3.19 3.65 3.73 2.46 1.89 1.74 1.85 2.05 2.13 2.12 2.14 2.09 2.33 2.31 1.85 1.65 1.96 2.37 2.48 2.54 2.48 2.32 2.36
2.54 2.64 2.91 3.09 3.18 3.54 3.73 3.81 3.91 3.82 3.63 3.68 3.96 3.80 3.41 3.47 3.45 3.46 3.67 3.52 3.51 3.65 3.90 3.20 2.46 2.16 2.15 2.42 2.41 2.07 1.88 1.69 1.65 2.15 2.55 2.31 2.03 2.03 2.24 2.55 3.11 2.91 2.68
2.91 2.83 2.98 3.26 3.13 3.24 3.64 3.98 4.10 4.02 3.95 3.94 3.75 3.54 3.24 3.35 3.39 3.58 3.83 4.00 3.79 3.74 4.00 4.12 3.28 2.96 2.99 2.97 3.05 2.89 2.63 2.44 2.27 2.51 2.45 2.57 2.71 2.66 2.87 3.09 3.29 3.53 3.32
2.07 2.32 2.34 2.41 2.52 2.67 2.80 3.15 3.40 3.62 3.43 3.37 3.46 3.38 3.57 3.53 3.26 3.01 3.12 3.20 3.17 3.28 3.49 3.88 3.86 3.60 3.40 3.31 3.35 3.31 3.41 3.37 3.41 3.46 3.80 3.63 3.52 3.45 3.52 3.54 3.31 2.90 2.72
1.51 1.49 1.52 1.75 1.91 2.11 2.45 2.47 2.68 2.99 3.09 3.10 2.97 2.91 3.04 3.67 3.76 3.60 3.48 3.42 3.41 3.62 3.49 3.59 3.74 3.49 3.21 3.34 3.42 3.31 3.13 3.27 3.09 2.48 2.42 2.52 2.35 2.34 2.34 2.45 2.66 2.76 2.85
1.49 1.62 1.46 1.59 1.94 1.99 2.55 2.51 2.46 2.66 2.82 2.85 3.00 2.96 3.12 3.53 3.33 3.58 3.39 3.05 2.89 3.07 3.01 2.93 2.94 2.97 2.68 2.34 2.32 2.42 2.74 2.97 3.25 2.86 2.69 3.09 2.76 2.83 2.76 2.69 3.31 2.84 2.59
2.05 1.87 2.03 1.98 1.95 1.91 2.57 2.56 2.60 2.37 2.77 2.83 2.78 2.71 2.82 2.95 3.17 2.81 3.28 3.12 2.88 3.02 2.77 2.53 2.44 2.24 2.29 2.31 2.46 2.56 2.54 2.66 2.74 2.66 2.87 3.71 3.37 3.27 3.07 3.21 3.54 2.75 2.64
2.62 2.27 2.14 2.11 1.96 2.60 2.77 3.02 3.36 2.82 2.50 2.66 2.83 2.63 2.53 2.56 2.80 2.83 2.74 2.94 2.83 2.81 3.05 3.04 2.95 3.07 3.11 3.03 3.02 3.05 3.19 3.63 3.72 3.52 3.02 3.50 3.41 3.29 3.08 3.03 3.67 2.77 2.57
3.09 2.86 2.41 2.20 2.25 2.30 2.30 1.93 2.08 2.28 2.72 3.06 2.97 2.93 3.10 3.00 3.76 3.66 3.20 3.54 3.78 4.00 4.58 4.42 4.21 4.26 4.07 3.68 3.41 3.57 4.31 4.06 4.19 3.98 3.35 3.22 3.31 3.46 3.62 3.76 3.69 3.52 2.91
2.65 2.56 2.56 2.26 2.36 2.18 2.56 2.10 1.80 1.29 1.66 1.98 2.40 2.70 3.53 2.97 3.43 3.15 2.79 2.76 3.45 4.14 3.99 4.22 4.25 4.07 3.83 3.71 3.87 3.29 3.04 3.13 3.38 3.93 3.37 3.19 3.12 3.06 3.89 3.66 3.33 3.29 3.27

GFSMA_prec_precacc_288.txt.gz
Total_Precipitation_Accumulation
0.84 0.64 0.48 0.54 0.48 0.48 0.69 0.93 1.21 1.21 1.24 1.18 1.26 1.16 0.94 0.74 0.85 1.00 1.09 1.43 1.31 1.13 1.14 1.07 0.84 0.93 0.77 0.70 0.71 0.72 0.62 0.50 0.51 0.53 0.47 0.38 0.46 0.56 0.57 0.54 0.56 0.49 0.54
0.88 0.73 0.58 0.56 0.54 0.54 0.64 0.85 1.19 1.29 1.35 1.53 1.30 0.96 0.94 0.67 0.67 1.06 1.75 1.84 1.42 1.38 1.16 1.29 1.50 1.35 1.12 1.02 0.92 0.83 0.65 0.55 0.53 0.47 0.50 0.51 0.50 0.55 0.50 0.47 0.52 0.55 0.54
0.83 0.85 0.80 0.79 0.68 0.63 0.68 0.92 1.16 1.29 1.07 1.02 1.11 1.34 1.56 1.46 0.91 0.60 0.75 0.89 0.91 0.96 1.06 1.40 1.58 1.80 1.95 1.74 1.33 1.01 0.88 0.62 0.54 0.53 0.49 0.48 0.48 0.45 0.47 0.47 0.48 0.56 0.61
1.25 1.05 0.82 0.92 1.09 0.94 0.81 0.91 1.13 1.64 1.50 1.10 0.74 0.77 1.05 1.20 1.09 1.13 0.85 0.71 0.67 0.80 1.18 1.03 1.80 2.48 2.33 1.73 1.24 1.09 0.79 0.73 0.72 0.77 0.85 0.78 0.63 0.55 0.51 0.49 0.59 0.73 0.72
1.92 1.54 1.45 1.54 1.50 1.49 1.50 1.69 1.89 2.05 1.61 1.29 0.94 0.73 0.69 0.66 0.53 0.46 0.48 0.48 0.47 0.46 0.45 0.55 0.80 1.08 0.98 0.95 0.87 0.83 0.80 0.71 0.71 0.83 1.00 1.05 0.91 0.81 0.76 0.68 0.73 0.79 0.82
1.35 1.48 1.68 1.90 1.92 1.74 1.40 1.16 1.25 1.39 1.38 1.25 1.10 0.77 0.71 0.49 0.38 0.25 0.24 0.34 0.37 0.53 0.51 0.42 0.57 0.64 0.60 0.61 0.71 0.80 0.79 0.87 0.87 0.86 0.96 1.07 1.19 1.16 1.12 1.03 1.03 1.11 1.07
1.25 1.18 1.47 2.23 2.39 1.58 1.13 1.19 1.45 1.44 1.28 1.17 1.55 1.17 0.82 0.54 0.37 0.25 0.19 0.26 0.27 0.33 0.64 0.66 0.48 0.56 0.70 0.52 0.47 0.64 0.84 1.04 1.13 1.10 1.21 1.22 1.20 1.29 1.34 1.30 1.17 1.43 1.47
1.06 1.20 1.00 1.10 1.67 1.96 1.83 1.41 1.44 1.68 1.50 1.44 1.65 1.58 1.38 1.26 0.76 0.43 0.38 0.26 0.25 0.32 0.31 0.46 0.57 0.47 0.57 0.80 0.45 0.45 0.80 1.11 1.26 1.35 1.67 1.78 1.52 1.49 1.65 1.79 1.89 1.85 2.10
1.03 1.14 1.10 1.02 1.18 1.84 1.87 1.50 1.18 1.39 1.79 1.65 1.59 1.91 1.89 1.26 0.84 0.51 0.52 0.49 0.47 0.44 0.42 0.41 0.42 0.47 0.45 0.72 1.08 0.65 0.49 0.87 1.28 1.52 1.66 2.14 2.26 1.88 1.78 1.83 2.04 2.16 2.05
1.13 0.99 1.17 1.22 1.15 1.16 1.48 1.49 1.26 1.16 1.74 1.72 2.21 1.69 1.50 1.62 1.82 1.36 0.87 0.77 0.78 0.70 0.79 0.86 0.74 0.69 0.74 0.80 0.95 1.14 0.78 0.60 0.90 1.28 1.79 2.18 2.28 2.27 2.26 2.15 1.98 2.13 2.21
1.41 1.39 1.36 1.52 1.59 1.72 1.34 1.86 1.83 1.78 2.03 1.85 1.45 1.63 1.84 1.79 2.17 2.35 1.68 1.10 1.24 1.08 1.00 0.98 1.22 1.13 1.01 1.08 1.02 0.86 1.04 1.15 1.19 1.22 1.40 1.73 2.21 2.29 2.14 2.48 2.99 2.60 2.24
1.93 1.72 1.64 1.58 1.52 1.61 1.74 2.00 2.42 2.53 2.58 2.34 1.97 1.86 1.94 1.95 1.64 1.96 2.08 1.46 1.28 1.19 1.21 1.55 1.32 1.15 1.07 1.08 1.20 1.35 1.27 1.29 1.42 1.38 1.42 1.84 2.29 2.69 2.88 2.64 2.70 3.46 3.57
3.02 2.65 2.54 2.13 1.87 1.65 1.73 2.09 2.69 2.98 3.34 3.41 3.19 2.69 2.32 2.14 2.07 2.26 2.37 2.09 1.88 1.47 1.47 1.56 1.42 1.34 1.45 1.61 1.56 1.81 1.70 1.58 1.76 1.93 1.92 1.95 2.06 2.33 2.80 2.81 2.78 2.86 3.45
2.84 2.74 2.95 3.20 3.08 2.80 2.55 2.35 2.49 2.55 2.62 2.90 3.65 4.14 4.15 3.34 3.10 3.21 3.26 3.48 3.32 2.59 2.09 1.38 1.06 1.08 1.15 1.39 1.60 2.25 2.07 2.05 1.95 1.97 2.00 1.93 1.97 2.19 2.47 2.98 3.33 3.30 3.29
2.46 2.58 2.97 2.91 3.06 3.26 3.48 3.48 3.01 2.63 2.50 2.44 2.44 2.68 2.89 2.91 2.94 2.91 3.04 3.35 4.18 3.70 2.58 1.86 1.24 1.09 1.18 1.43 1.64 1.80 1.70 1.75 1.91 1.96 2.28 2.44 2.33 2.23 2.23 2.32 2.55 2.72 2.87
2.75 3.19 3.41 3.24 3.29 3.30 3.48 3.85 3.80 3.46 3.34 3.02 2.74 2.59 2.49 2.34 2.18 2.03 2.17 2.63 3.50 3.89 3.14 1.79 1.41 1.15 1.34 1.51 1.76 1.80 2.16 2.62 2.15 2.01 1.93 2.23 2.35 2.29 2.23 2.18 2.09 2.28 2.50
2.96 2.99 3.35 3.62 3.30 3.33 3.65 3.87 4.03 4.03 3.82 3.77 3.72 3.37 2.72 2.47 2.47 2.59 2.77 2.98 3.19 3.65 3.73 2.46 1.89 1.74 1.85 2.05 2.13 2.12 2.14 2.09 2.33 2.31 1.85 1.65 1.96 2.37 2.48 2.54 2.48 2.32 2.36
2.54 2.64 2.91 3.09 3.18 3.54 3.73 3.81 3.91 3.82 3.63 3.68 3.96 3.80 3.41 3.47 3.45 3.46 3.67 3.52 3.51 3.65 3.91 3.20 2.46 2.16 2.15 2.42 2.41 2.07 1.88 1.69 1.65 2.15 2.55 2.31 2.03 2.03 2.24 2.55 3.11 2.91 2.68
2.91 2.83 2.98 3.26 3.13 3.24 3.64 3.98 4.10 4.02 3.95 3.94 3.75 3.54 3.24 3.35 3.39 3.58 3.83 4.00 3.79 3.74 4.00 4.12 3.28 2.96 2.99 2.97 3.05 2.89 2.63 2.44 2.27 2.51 2.45 2.57 2.71 2.66 2.87 3.09 3.29 3.54 3.33
2.07 2.32 2.34 2.41 2.52 2.67 2.80 3.15 3.40 3.62 3.43 3.37 3.46 3.38 3.57 3.53 3.26 3.01 3.12 3.20 3.17 3.28 3.49 3.88 3.86 3.61 3.41 3.31 3.35 3.31 3.41 3.37 3.41 3.46 3.80 3.63 3.52 3.45 3.52 3.54 3.31 2.91 2.72
1.51 1.49 1.52 1.75 1.91 2.11 2.45 2.47 2.68 2.99 3.09 3.10 2.97 2.91 3.04 3.67 3.76 3.60 3.48 3.42 3.41 3.62 3.50 3.59 3.75 3.49 3.21 3.34 3.43 3.32 3.13 3.27 3.09 2.48 2.42 2.52 2.35 2.34 2.34 2.45 2.67 2.77 2.85
1.49 1.62 1.46 1.59 1.94 1.99 2.55 2.51 2.46 2.66 2.82 2.85 3.00 2.96 3.12 3.53 3.33 3.58 3.39 3.05 2.89 3.07 3.02 2.94 2.94 2.97 2.68 2.34 2.33 2.43 2.74 2.97 3.25 2.86 2.69 3.09 2.76 2.83 2.76 2.70 3.32 2.84 2.59
2.05 1.87 2.03 1.98 1.95 1.91 2.57 2.56 2.60 2.37 2.77 2.83 2.78 2.71 2.82 2.95 3.17 2.81 3.28 3.12 2.88 3.02 2.77 2.53 2.45 2.25 2.29 2.31 2.46 2.57 2.55 2.67 2.74 2.66 2.87 3.71 3.37 3.27 3.07 3.23 3.55 2.75 2.65
2.62 2.27 2.14 2.11 1.96 2.60 2.77 3.02 3.36 2.82 2.50 2.66 2.83 2.63 2.53 2.56 2.80 2.83 2.75 2.95 2.84 2.82 3.05 3.04 2.96 3.07 3.11 3.03 3.03 3.06 3.20 3.63 3.73 3.52 3.02 3.50 3.41 3.30 3.09 3.03 3.69 2.79 2.58
3.09 2.86 2.41 2.20 2.25 2.30 2.30 1.93 2.08 2.28 2.72 3.06 2.97 2.93 3.10 3.00 3.76 3.67 3.20 3.54 3.78 4.01 4.58 4.42 4.21 4.27 4.07 3.68 3.42 3.58 4.32 4.09 4.21 3.98 3.35 3.24 3.31 3.47 3.63 3.78 3.73 3.57 2.96
2.65 2.56 2.56 2.26 2.36 2.18 2.56 2.10 1.80 1.29 1.66 1.98 2.40 2.70 3.53 2.97 3.43 3.15 2.79 2.76 3.45 4.14 3.99 4.22 4.25 4.07 3.83 3.71 3.87 3.29 3.06 3.18 3.41 3.96 3.38 3.20 3.13 3.08 3.91 3.68 3.36 3.33 3.36

GFSMA_prec_precacc_291.txt.gz
Total_Precipitation_Accumulation
0.85 0.64 0.48 0.54 0.48 0.48 0.69 0.93 1.21 1.21 1.24 1.18 1.26 1.16 0.94 0.74 0.85 1.00 1.09 1.43 1.31 1.13 1.14 1.07 0.84 0.93 0.77 0.70 0.71 0.72 0.62 0.50 0.51 0.53 0.47 0.38 0.46 0.56 0.57 0.54 0.56 0.49 0.54
0.88 0.73 0.58 0.56 0.54 0.54 0.64 0.86 1.19 1.30 1.35 1.53 1.30 0.96 0.94 0.67 0.67 1.06 1.75 1.84 1.42 1.38 1.16 1.29 1.50 1.35 1.12 1.02 0.92 0.83 0.65 0.55 0.53 0.47 0.50 0.51 0.50 0.55 0.50 0.47 0.52 0.55 0.54
0.83 0.86 0.81 0.79 0.68 0.63 0.68 0.92 1.16 1.29 1.07 1.02 1.11 1.34 1.56 1.46 0.91 0.60 0.75 0.89 0.91 0.96 1.06 1.40 1.58 1.80 1.95 1.74 1.33 1.01 0.88 0.62 0.54 0.53 0.49 0.48 0.48 0.45 0.47 0.47 0.48 0.56 0.61
1.26 1.06 0.83 0.93 1.09 0.94 0.82 0.91 1.13 1.64 1.51 1.10 0.75 0.77 1.06 1.20 1.09 1.13 0.85 0.71 0.67 0.80 1.18 1.03 1.80 2.48 2.33 1.73 1.24 1.09 0.79 0.73 0.72 0.77 0.85 0.78 0.63 0.55 0.51 0.49 0.59 0.73 0.72
1.92 1.54 1.45 1.54 1.50 1.50 1.51 1.70 1.90 2.05 1.61 1.30 0.95 0.73 0.69 0.66 0.53 0.47 0.49 0.48 0.47 0.46 0.45 0.55 0.80 1.08 0.98 0.95 0.87 0.83 0.80 0.71 0.71 0.83 1.00 1.05 0.91 0.81 0.76 0.68 0.73 0.79 0.82
1.35 1.48 1.68 1.90 1.92 1.74 1.40 1.17 1.26 1.40 1.38 1.26 1.10 0.77 0.71 0.49 0.39 0.28 0.27 0.35 0.38 0.54 0.51 0.42 0.57 0.64 0.60 0.61 0.71 0.80 0.79 0.87 0.87 0.86 0.96 1.07 1.19 1.16 1.12 1.03 1.03 1.11 1.07
1.25 1.18 1.47 2.23 2.39 1.58 1.13 1.19 1.45 1.44 1.29 1.18 1.55 1.17 0.82 0.54 0.40 0.28 0.24 0.28 0.30 0.35 0.65 0.67 0.49 0.57 0.70 0.52 0.47 0.64 0.84 1.04 1.14 1.11 1.21 1.23 1.21 1.29 1.34 1.30 1.18 1.43 1.48
1.06 1.20 1.00 1.10 1.67 1.96 1.83 1.41 1.44 1.68 1.50 1.44 1.66 1.59 1.38 1.26 0.77 0.44 0.40 0.32 0.32 0.42 0.43 0.62 0.76 0.55 0.60 0.82 0.48 0.47 0.81 1.11 1.26 1.35 1.67 1.79 1.53 1.50 1.66 1.79 1.90 1.85 2.10
1.03 1.14 1.10 1.02 1.18 1.84 1.87 1.50 1.18 1.39 1.79 1.65 1.59 1.91 1.90 1.27 0.85 0.51 0.52 0.56 0.62 0.70 0.80 0.81 0.80 0.82 0.78 1.10 1.51 0.90 0.65 0.96 1.36 1.59 1.70 2.15 2.28 1.89 1.79 1.85 2.06 2.17 2.05
1.13 0.99 1.17 1.22 1.15 1.16 1.48 1.49 1.26 1.16 1.74 1.72 2.21 1.69 1.51 1.64 1.84 1.37 0.87 0.77 0.78 0.71 0.81 0.95 0.96 0.93 1.05 1.16 1.49 1.79 1.38 1.00 1.14 1.45 1.97 2.32 2.36 2.34 2.31 2.17 2.00 2.13 2.22
1.41 1.39 1.36 1.52 1.59 1.72 1.34 1.86 1.83 1.78 2.03 1.85 1.45 1.63 1.84 1.79 2.18 2.36 1.69 1.10 1.24 1.09 1.00 0.99 1.26 1.19 1.15 1.29 1.33 1.25 1.41 1.47 1.45 1.55 1.67 1.96 2.43 2.53 2.40 2.68 3.16 2.68 2.25
1.93 1.72 1.64 1.58 1.52 1.61 1.74 2.00 2.42 2.53 2.58 2.34 1.97 1.86 1.94 1.95 1.64 1.97 2.08 1.46 1.28 1.19 1.21 1.55 1.33 1.16 1.07 1.08 1.21 1.37 1.29 1.32 1.46 1.53 1.71 2.24 2.75 3.16 3.32 3.03 3.04 3.70 3.66
3.02 2.65 2.54 2.13 1.87 1.65 1.73 2.09 2.69 2.98 3.34 3.41 3.19 2.69 2.32 2.14 2.07 2.26 2.37 2.09 1.88 1.47 1.47 1.56 1.42 1.34 1.45 1.61 1.56 1.81 1.70 1.59 1.76 1.94 1.94 1.98 2.14 2.45 2.98 3.03 2.99 3.06 3.60
2.84 2.74 2.95 3.20 3.08 2.80 2.55 2.35 2.49 2.55 2.62 2.90 3.65 4.14 4.15 3.34 3.10 3.21 3.26 3.48 3.32 2.59 2.09 1.38 1.06 1.08 1.15 1.39 1.60 2.25 2.07 2.05 1.95 1.97 2.00 1.93 1.97 2.20 2.48 2.99 3.34 3.31 3.30
2.46 2.58 2.97 2.91 3.06 3.26 3.48 3.48 3.01 2.63 2.50 2.44 2.44 2.68 2.89 2.91 2.94 2.91 3.04 3.35 4.18 3.70 2.58 1.86 1.24 1.09 1.18 1.43 1.64 1.80 1.70 1.75 1.91 1.96 2.28 2.44 2.33 2.23 2.23 2.33 2.56 2.72 2.87
2.75 3.19 3.41 3.24 3.29 3.30 3.48 3.85 3.80 3.46 3.34 3.02 2.74 2.59 2.49 2.34 2.18 2.03 2.17 2.63 3.50 3.89 3.14 1.79 1.41 1.15 1.34 1.51 1.76 1.80 2.16 2.62 2.15 2.01 1.93 2.23 2.35 2.29 2.23 2.18 2.09 2.28 2.50
2.96 2.99 3.35 3.62 3.30 3.33 3.65 3.87 4.03 4.03 3.82 3.77 3.72 3.37 2.72 2.47 2.47 2.59 2.77 2.98 3.19 3.65 3.73 2.46 1.89 1.74 1.85 2.05 2.13 2.12 2.14 2.09 2.33 2.31 1.85 1.65 1.96 2.37 2.48 2.54 2.48 2.32 2.36
2.54 2.64 2.91 3.09 3.18 3.54 3.73 3.81 3.91 3.82 3.63 3.68 3.96 3.80 3.41 3.47 3.45 3.46 3.67 3.52 3.51 3.65 3.91 3.20 2.46 2.16 2.15 2.42 2.41 2.07 1.88 1.69 1.65 2.15 2.55 2.31 2.03 2.03 2.24 2.55 3.11 2.91 2.68
2.91 2.83 2.98 3.26 3.13 3.24 3.64 3.98 4.10 4.02 3.95 3.94 3.75 3.54 3.24 3.35 3.39 3.58 3.83 4.00 3.79 3.74 4.00 4.12 3.28 2.96 2.99 2.97 3.05 2.89 2.63 2.44 2.27 2.51 2.45 2.57 2.71 2.66 2.87 3.09 3.29 3.54 3.33
2.07 2.32 2.34 2.41 2.52 2.67 2.80 3.15 3.40 3.62 3.43 3.37 3.46 3.38 3.57 3.53 3.26 3.01 3.12 3.20 3.17 3.28 3.49 3.88 3.86 3.61 3.41 3.31 3.35 3.31 3.41 3.37 3.41 3.46 3.80 3.63 3.52 3.45 3.52 3.54 3.31 2.91 2.73
1.51 1.49 1.52 1.75 1.91 2.11 2.45 2.47 2.68 2.99 3.09 3.10 2.97 2.91 3.04 3.67 3.76 3.60 3.48 3.42 3.41 3.62 3.50 3.59 3.75 3.49 3.21 3.34 3.43 3.32 3.14 3.27 3.09 2.48 2.42 2.52 2.35 2.34 2.34 2.45 2.67 2.77 2.85
1.49 1.62 1.46 1.59 1.94 1.99 2.55 2.51 2.46 2.66 2.82 2.85 3.00 2.96 3.12 3.53 3.33 3.58 3.39 3.05 2.89 3.07 3.02 2.94 2.95 2.98 2.68 2.34 2.33 2.43 2.75 2.98 3.25 2.86 2.69 3.09 2.76 2.83 2.76 2.70 3.32 2.85 2.60
2.05 1.87 2.03 1.98 1.95 1.91 2.57 2.56 2.60 2.37 2.77 2.83 2.78 2.71 2.82 2.95 3.17 2.81 3.28 3.12 2.89 3.02 2.77 2.53 2.45 2.25 2.30 2.31 2.47 2.58 2.55 2.67 2.75 2.66 2.87 3.71 3.37 3.27 3.07 3.23 3.56 2.76 2.66
2.62 2.27 2.14 2.11 1.96 2.60 2.77 3.02 3.36 2.82 2.50 2.66 2.83 2.63 2.53 2.56 2.80 2.83 2.75 2.95 2.84 2.82 3.05 3.04 2.96 3.07 3.11 3.03 3.03 3.08 3.22 3.64 3.73 3.52 3.03 3.51 3.41 3.30 3.09 3.03 3.70 2.81 2.61
3.09 2.86 2.41 2.20 2.25 2.30 2.30 1.93 2.08 2.28 2.72 3.06 2.97 2.93 3.10 3.00 3.76 3.67 3.20 3.54 3.78 4.01 4.58 4.42 4.21 4.27 4.07 3.68 3.42 3.59 4.34 4.12 4.23 3.99 3.35 3.25 3.31 3.47 3.63 3.78 3.75 3.61 3.00
2.65 2.56 2.56 2.26 2.36 2.18 2.56 2.10 1.80 1.29 1.66 1.98 2.40 2.70 3.53 2.97 3.43 3.15 2.79 2.76 3.46 4.14 3.99 4.22 4.25 4.07 3.83 3.71 3.87 3.30 3.07 3.24 3.44 3.99 3.38 3.23 3.13 3.08 3.93 3.69 3.37 3.33 3.37